[[{"header":{"parameterUnit":"m.s-1","parameterCategory":1,"la1":30.6,"la2":29.2853,"lo1":-89.7004,"lo2":-87.6739,"dy":0.0162,"dx":0.0183,"nx":112,"ny":82,"refTime":"2023-07-10T00:00:00:Z","depth":0,"parameterNumber":2,"parameterNumberName":"U-component_of_WINDS"},"data":[0.0,0.0,0.0,0.0,0.0,0.0,0.0,0.0,0.0,0.0,0.0,0.0,0.0,0.0,0.0,0.0,0.0,0.0,0.0,0.0,0.0,0.0,0.0,0.0,0.0,0.0,0.0,0.0,0.0,0.0,0.0,0.0,0.0,0.0,0.0,0.0,0.0,0.0,0.0,0.0,0.0,0.0,0.0,0.0,0.0,0.0,0.0,0.0,0.0,0.0,0.0,0.0,0.0,0.0,0.0,0.0,0.0,0.0,0.0,0.0,0.0,0.0,0.0,0.0,0.0,0.0,0.0,0.0,0.0,0.0,0.0,0.0,0.0,0.0,0.0,0.0,0.0,0.0,0.0,0.0,0.0,0.0,0.0,0.0,0.0,0.0,0.0,0.0,0.0,0.0,-1.7926,-1.8862,-2.0719,-2.2007,-2.2332,-2.2572,-2.2008,-2.0346,0.0,0.0,0.0,0.0,0.0,0.0,0.0,0.0,0.0,0.0,0.0,0.0,0.0,0.0,0.0,0.0,0.0,0.0,0.0,0.0,0.0,0.0,0.0,0.0,0.0,0.0,0.0,0.0,0.0,0.0,0.0,0.0,0.0,0.0,0.0,0.0,0.0,0.0,0.0,0.0,0.0,0.0,0.0,0.0,0.0,0.0,0.0,0.0,0.0,0.0,0.0,0.0,0.0,0.0,0.0,0.0,0.0,0.0,0.0,0.0,0.0,0.0,0.0,0.0,0.0,0.0,0.0,0.0,0.0,0.0,0.0,0.0,0.0,0.0,0.0,0.0,0.0,0.0,0.0,0.0,0.0,0.0,0.0,0.0,0.0,0.0,0.0,0.0,0.0,0.0,0.0,0.0,0.0,0.0,0.0,0.0,0.0,0.0,0.0,0.0,0.0,0.0,0.0,0.0,-1.909,-2.1604,-2.2736,-2.3233,-2.2992,-2.297,-2.2259,-2.0487,0.0,0.0,0.0,0.0,0.0,0.0,0.0,0.0,0.0,0.0,0.0,0.0,0.0,0.0,0.0,0.0,0.0,0.0,0.0,0.0,0.0,0.0,0.0,0.0,0.0,0.0,0.0,0.0,0.0,0.0,0.0,0.0,0.0,0.0,0.0,0.0,0.0,0.0,0.0,0.0,0.0,0.0,0.0,0.0,0.0,0.0,0.0,0.0,0.0,0.0,0.0,0.0,0.0,0.0,0.0,0.0,0.0,0.0,0.0,0.0,0.0,0.0,0.0,0.0,0.0,0.0,0.0,0.0,0.0,0.0,0.0,0.0,0.0,0.0,0.0,0.0,0.0,0.0,0.0,0.0,0.0,0.0,0.0,0.0,0.0,0.0,0.0,0.0,0.0,0.0,0.0,0.0,0.0,0.0,0.0,0.0,0.0,0.0,0.0,0.0,0.0,0.0,0.0,-1.8651,-2.0688,-2.3055,-2.3475,-2.3589,-2.3652,-2.3642,-2.2945,-2.1199,-1.9989,0.0,0.0,0.0,0.0,0.0,0.0,0.0,0.0,0.0,0.0,0.0,0.0,0.0,0.0,0.0,0.0,0.0,0.0,0.0,0.0,0.0,0.0,0.0,0.0,0.0,0.0,0.0,0.0,0.0,0.0,0.0,0.0,0.0,0.0,0.0,0.0,0.0,0.0,0.0,0.0,0.0,0.0,0.0,0.0,0.0,0.0,0.0,0.0,0.0,0.0,0.0,0.0,0.0,0.0,0.0,0.0,0.0,0.0,0.0,0.0,0.0,0.0,0.0,0.0,0.0,0.0,0.0,0.0,0.0,0.0,0.0,0.0,0.0,0.0,0.0,0.0,0.0,0.0,0.0,0.0,0.0,0.0,0.0,0.0,0.0,0.0,0.0,0.0,0.0,0.0,0.0,0.0,0.0,0.0,0.0,0.0,0.0,0.0,0.0,0.0,0.0,0.0,-2.0562,-2.1951,-2.381,-2.3865,-2.3866,-2.421,-2.3919,-2.318,-2.1686,-2.0315,0.0,0.0,0.0,0.0,0.0,0.0,0.0,0.0,0.0,0.0,0.0,0.0,0.0,0.0,0.0,0.0,0.0,0.0,0.0,0.0,0.0,0.0,0.0,0.0,0.0,0.0,0.0,0.0,0.0,0.0,0.0,0.0,0.0,0.0,0.0,0.0,0.0,0.0,0.0,0.0,0.0,0.0,0.0,0.0,0.0,0.0,0.0,0.0,0.0,0.0,0.0,0.0,0.0,0.0,0.0,0.0,0.0,0.0,0.0,0.0,0.0,0.0,0.0,0.0,0.0,0.0,0.0,0.0,0.0,0.0,0.0,0.0,0.0,0.0,0.0,0.0,0.0,0.0,0.0,0.0,0.0,0.0,0.0,0.0,0.0,0.0,0.0,0.0,0.0,0.0,0.0,0.0,0.0,0.0,0.0,0.0,0.0,0.0,0.0,0.0,0.0,0.0,-2.0777,-2.2265,-2.3917,-2.4076,-2.4208,-2.4547,-2.3449,-2.2405,-2.1371,-1.9456,0.0,0.0,0.0,0.0,0.0,0.0,0.0,0.0,0.0,0.0,0.0,0.0,0.0,0.0,0.0,0.0,0.0,0.0,0.0,0.0,0.0,0.0,0.0,0.0,0.0,0.0,0.0,0.0,0.0,0.0,0.0,0.0,0.0,0.0,0.0,0.0,0.0,0.0,0.0,0.0,0.0,0.0,0.0,0.0,0.0,0.0,0.0,0.0,0.0,0.0,0.0,0.0,0.0,0.0,0.0,0.0,0.0,0.0,0.0,0.0,0.0,0.0,0.0,0.0,0.0,0.0,0.0,0.0,0.0,0.0,0.0,0.0,0.0,0.0,0.0,0.0,0.0,0.0,0.0,0.0,0.0,0.0,0.0,0.0,0.0,0.0,0.0,0.0,0.0,0.0,0.0,0.0,0.0,0.0,0.0,0.0,0.0,0.0,0.0,0.0,0.0,0.0,-2.2046,-2.3862,-2.4384,-2.497,-2.5285,-2.5193,-2.4887,-2.3825,-2.177,0.0,0.0,0.0,0.0,0.0,0.0,0.0,0.0,0.0,0.0,0.0,0.0,0.0,0.0,0.0,0.0,0.0,0.0,0.0,0.0,0.0,0.0,0.0,0.0,0.0,0.0,0.0,0.0,0.0,0.0,0.0,0.0,0.0,0.0,0.0,0.0,0.0,0.0,0.0,0.0,0.0,0.0,0.0,0.0,0.0,0.0,0.0,0.0,0.0,0.0,0.0,0.0,0.0,0.0,0.0,0.0,0.0,0.0,0.0,0.0,0.0,0.0,0.0,0.0,0.0,0.0,0.0,0.0,0.0,0.0,0.0,0.0,0.0,0.0,0.0,0.0,0.0,0.0,0.0,0.0,0.0,0.0,0.0,0.0,0.0,0.0,0.0,0.0,0.0,0.0,0.0,0.0,0.0,0.0,0.0,0.0,0.0,0.0,0.0,0.0,0.0,0.0,-2.01,-2.2839,-2.4804,-2.4894,-2.5462,-2.5771,-2.5652,-2.5641,-2.454,-2.2061,0.0,0.0,0.0,0.0,0.0,0.0,0.0,0.0,0.0,0.0,0.0,0.0,0.0,0.0,0.0,0.0,0.0,0.0,0.0,0.0,0.0,0.0,0.0,0.0,0.0,0.0,0.0,0.0,0.0,0.0,0.0,0.0,0.0,0.0,0.0,0.0,0.0,0.0,0.0,0.0,0.0,0.0,0.0,0.0,0.0,0.0,0.0,0.0,0.0,0.0,0.0,0.0,0.0,0.0,0.0,0.0,0.0,0.0,0.0,0.0,0.0,0.0,0.0,0.0,0.0,0.0,0.0,0.0,0.0,0.0,0.0,0.0,0.0,0.0,0.0,0.0,0.0,0.0,0.0,0.0,0.0,0.0,0.0,0.0,0.0,0.0,0.0,0.0,0.0,0.0,0.0,0.0,0.0,0.0,0.0,0.0,0.0,0.0,0.0,0.0,0.0,0.0,-2.0574,-2.297,-2.489,-2.5535,-2.5346,-2.5398,-2.5974,-2.5172,-2.3928,0.0,0.0,0.0,0.0,0.0,0.0,0.0,0.0,0.0,0.0,0.0,0.0,0.0,0.0,0.0,0.0,0.0,0.0,0.0,0.0,0.0,0.0,0.0,0.0,0.0,0.0,0.0,0.0,0.0,0.0,0.0,0.0,0.0,0.0,0.0,0.0,0.0,0.0,0.0,0.0,0.0,0.0,0.0,0.0,0.0,0.0,0.0,0.0,0.0,0.0,0.0,0.0,0.0,0.0,0.0,0.0,0.0,0.0,0.0,0.0,0.0,0.0,0.0,0.0,0.0,0.0,0.0,0.0,0.0,0.0,0.0,0.0,0.0,0.0,0.0,0.0,0.0,0.0,0.0,0.0,0.0,0.0,0.0,0.0,0.0,0.0,0.0,0.0,0.0,0.0,0.0,0.0,0.0,0.0,0.0,0.0,0.0,0.0,0.0,0.0,0.0,0.0,0.0,-2.1497,-2.4102,-2.6024,-2.6366,-2.6632,-2.6899,-2.7108,-2.6807,-2.6066,-2.4756,0.0,0.0,0.0,0.0,0.0,0.0,0.0,0.0,0.0,0.0,0.0,0.0,0.0,0.0,0.0,0.0,0.0,0.0,0.0,0.0,0.0,0.0,0.0,0.0,0.0,0.0,0.0,0.0,0.0,0.0,0.0,0.0,0.0,0.0,0.0,0.0,0.0,0.0,0.0,0.0,0.0,0.0,0.0,0.0,0.0,0.0,0.0,0.0,0.0,0.0,0.0,0.0,0.0,0.0,0.0,0.0,0.0,0.0,0.0,0.0,0.0,0.0,0.0,0.0,0.0,0.0,0.0,0.0,0.0,0.0,0.0,0.0,0.0,0.0,0.0,0.0,0.0,0.0,0.0,0.0,0.0,0.0,0.0,0.0,0.0,0.0,0.0,0.0,0.0,0.0,0.0,0.0,0.0,0.0,0.0,0.0,0.0,0.0,0.0,0.0,0.0,0.0,-2.1999,-2.4814,-2.6899,-2.7264,-2.7423,-2.7655,-2.7997,-2.7777,-2.7115,-2.5743,0.0,0.0,0.0,0.0,0.0,0.0,0.0,0.0,0.0,0.0,0.0,0.0,0.0,0.0,0.0,0.0,0.0,0.0,0.0,0.0,0.0,0.0,0.0,0.0,0.0,0.0,0.0,0.0,0.0,0.0,0.0,0.0,0.0,0.0,0.0,0.0,0.0,0.0,0.0,0.0,0.0,0.0,0.0,0.0,0.0,0.0,0.0,0.0,0.0,0.0,0.0,0.0,0.0,0.0,0.0,0.0,0.0,0.0,0.0,0.0,0.0,0.0,0.0,0.0,0.0,0.0,0.0,0.0,0.0,0.0,0.0,0.0,0.0,0.0,0.0,0.0,0.0,0.0,0.0,0.0,0.0,0.0,0.0,0.0,0.0,0.0,0.0,0.0,0.0,0.0,0.0,0.0,0.0,0.0,0.0,0.0,0.0,0.0,0.0,0.0,0.0,0.0,-2.226,-2.5202,-2.7589,-2.8162,-2.7996,-2.8057,-2.8672,-2.8264,-2.7465,-2.6012,0.0,0.0,0.0,0.0,0.0,0.0,0.0,0.0,0.0,0.0,0.0,0.0,0.0,0.0,0.0,0.0,0.0,0.0,0.0,0.0,0.0,0.0,0.0,0.0,0.0,0.0,0.0,0.0,0.0,0.0,0.0,0.0,0.0,0.0,0.0,0.0,0.0,0.0,0.0,0.0,0.0,0.0,0.0,0.0,0.0,0.0,0.0,0.0,0.0,0.0,0.0,0.0,0.0,0.0,0.0,0.0,0.0,0.0,0.0,0.0,-1.7948,-1.7899,0.0,0.0,0.0,0.0,0.0,0.0,0.0,0.0,0.0,0.0,0.0,0.0,0.0,0.0,0.0,0.0,0.0,0.0,0.0,0.0,0.0,0.0,0.0,0.0,0.0,0.0,0.0,0.0,0.0,0.0,0.0,0.0,0.0,0.0,0.0,0.0,0.0,0.0,0.0,0.0,-2.3189,-2.6275,-2.8404,-2.8567,-2.9195,-2.9548,-2.9314,-2.9252,-2.9056,-2.8697,-2.7114,0.0,0.0,0.0,0.0,0.0,0.0,0.0,0.0,0.0,0.0,0.0,0.0,0.0,0.0,0.0,0.0,0.0,0.0,0.0,0.0,0.0,0.0,0.0,0.0,0.0,0.0,0.0,0.0,0.0,0.0,0.0,0.0,0.0,0.0,0.0,0.0,0.0,0.0,0.0,0.0,0.0,0.0,0.0,0.0,0.0,0.0,0.0,0.0,0.0,0.0,0.0,0.0,0.0,0.0,0.0,0.0,0.0,0.0,0.0,0.0,-2.0096,0.0,0.0,0.0,0.0,0.0,0.0,0.0,0.0,0.0,0.0,0.0,0.0,0.0,0.0,0.0,0.0,0.0,0.0,0.0,0.0,0.0,0.0,0.0,0.0,0.0,0.0,0.0,0.0,0.0,0.0,0.0,0.0,0.0,0.0,0.0,0.0,0.0,0.0,0.0,0.0,-2.4007,-2.6662,-2.8707,-2.9318,-2.9717,-2.9756,-2.9523,-2.9516,-2.9394,-2.9237,-2.8267,0.0,0.0,0.0,0.0,0.0,0.0,0.0,0.0,0.0,0.0,0.0,0.0,0.0,0.0,0.0,0.0,0.0,0.0,0.0,0.0,0.0,0.0,0.0,0.0,0.0,0.0,0.0,0.0,0.0,0.0,0.0,0.0,0.0,0.0,0.0,0.0,0.0,0.0,0.0,0.0,0.0,0.0,0.0,0.0,0.0,0.0,0.0,0.0,0.0,0.0,0.0,0.0,0.0,-2.3227,-2.3239,-2.3827,-2.5043,-2.5251,-2.4617,-2.291,-2.2181,-2.2022,-2.1718,0.0,0.0,0.0,0.0,0.0,0.0,0.0,0.0,0.0,0.0,0.0,0.0,0.0,0.0,0.0,0.0,0.0,0.0,0.0,0.0,0.0,0.0,0.0,0.0,-2.5712,-2.6138,-2.3382,0.0,0.0,0.0,0.0,0.0,0.0,0.0,0.0,0.0,0.0,0.0,-2.4728,-2.7047,-2.8888,-3.0097,-3.0083,-2.9874,-2.9699,-2.9715,-2.9641,-2.9249,-2.9192,-2.8988,0.0,0.0,0.0,0.0,0.0,0.0,0.0,0.0,0.0,0.0,0.0,0.0,0.0,0.0,0.0,0.0,0.0,0.0,0.0,0.0,0.0,0.0,0.0,0.0,0.0,0.0,0.0,0.0,0.0,0.0,0.0,0.0,-1.1925,-1.2869,0.0,0.0,0.0,0.0,0.0,0.0,0.0,0.0,0.0,0.0,0.0,0.0,0.0,-1.9836,-2.1212,-2.2292,-2.3552,-2.4867,-2.5347,-2.5638,-2.5772,-2.6253,-2.6235,-2.585,-2.503,0.0,-2.4727,-2.3902,0.0,0.0,0.0,0.0,0.0,0.0,0.0,0.0,0.0,0.0,0.0,0.0,0.0,0.0,0.0,0.0,0.0,0.0,0.0,0.0,0.0,0.0,-2.6075,-2.7286,-2.8067,-2.8411,-2.7899,-2.6595,-2.5403,-2.5228,-2.4488,-2.3368,0.0,0.0,0.0,0.0,0.0,0.0,-2.5463,-2.8166,-2.999,-3.0099,-3.1261,-3.152,-3.0373,-3.0935,-3.1082,-3.0263,-2.9972,-3.0,-3.0375,-3.0265,0.0,0.0,0.0,0.0,0.0,0.0,0.0,0.0,0.0,0.0,0.0,0.0,0.0,0.0,0.0,0.0,0.0,0.0,0.0,0.0,0.0,0.0,0.0,0.0,0.0,0.0,0.0,0.0,0.0,-1.1618,-1.3282,-1.4692,-1.4464,-1.4262,0.0,0.0,0.0,0.0,0.0,0.0,0.0,0.0,0.0,-1.9673,-2.127,-2.2514,-2.332,-2.4471,-2.5144,-2.5406,-2.6316,-2.6388,-2.5829,-2.6745,-2.6757,-2.6111,-2.663,-2.6792,-2.6533,-2.537,-2.5408,-2.6058,0.0,0.0,0.0,0.0,-2.3059,-2.3982,-2.3547,-2.435,-2.5584,-2.5482,0.0,0.0,0.0,0.0,0.0,0.0,0.0,-2.3908,0.0,0.0,-2.7811,-2.8632,-2.9463,-3.001,-2.9732,-2.9418,-2.882,-2.768,-2.731,-2.6599,-2.4884,-2.4275,0.0,0.0,0.0,-2.5721,-2.7229,-2.9238,-3.0654,-3.0978,-3.1616,-3.1588,-3.0572,-3.098,-3.1173,-3.0911,-3.0465,-3.0627,-3.1308,-3.0898,-2.9871,0.0,0.0,0.0,0.0,0.0,0.0,0.0,0.0,0.0,0.0,0.0,0.0,0.0,0.0,0.0,0.0,0.0,0.0,0.0,0.0,0.0,0.0,0.0,0.0,0.0,0.0,0.0,0.0,-1.2883,-1.4569,-1.5729,-1.5901,-1.6175,0.0,0.0,0.0,0.0,0.0,0.0,-1.9648,-2.0102,-2.0818,-2.2151,-2.3679,-2.4735,-2.5242,-2.6082,-2.644,-2.6435,-2.7214,-2.7132,-2.629,-2.741,-2.739,-2.6562,-2.7739,-2.8275,-2.8183,-2.695,-2.6935,-2.758,-2.673,-2.6606,-2.6685,-2.5008,-2.5298,-2.6395,-2.5695,-2.6687,-2.8248,-2.8092,-2.8386,-2.8549,-2.6998,0.0,0.0,0.0,0.0,-2.6465,-2.7183,-2.8422,-2.9497,-2.9834,-3.0539,-3.1081,-3.0722,-3.1064,-3.1088,-2.9761,-2.9728,-2.9392,-2.7803,-2.7478,0.0,-2.5748,0.0,-2.7685,-2.8923,-3.013,-3.1033,-3.1687,-3.1807,-3.1594,-3.0779,-3.1233,-3.1426,-3.1442,-3.1098,-3.1124,-3.1826,-3.1229,-3.0225,-2.8972,0.0,0.0,0.0,0.0,0.0,0.0,0.0,0.0,0.0,0.0,0.0,0.0,0.0,0.0,0.0,0.0,0.0,0.0,0.0,0.0,0.0,0.0,0.0,0.0,0.0,0.0,0.0,0.0,0.0,-1.4883,-1.6832,0.0,0.0,0.0,0.0,-1.8432,-1.9185,-2.0359,-2.2202,-2.3294,-2.4182,-2.4897,-2.5342,-2.6008,-2.7085,-2.7133,-2.7637,-2.8658,-2.8674,-2.85,-2.8085,-2.853,-2.8322,-2.7651,-2.8098,-2.8895,-2.9725,-2.8933,-2.8876,-2.9261,-2.9151,-2.9111,-2.9111,-2.857,-2.8652,-2.8898,-2.8228,-2.8474,-2.9199,-2.9558,-2.9948,-2.9954,-2.8909,-2.8237,0.0,0.0,-2.829,-2.8802,-2.9539,-3.0583,-3.1456,-3.1474,-3.1498,-3.1465,-3.1465,-3.1442,-3.1373,-3.1292,-3.1302,-3.0948,-2.9837,0.0,-2.8623,-2.8197,-2.8471,-2.9003,-2.9976,-3.0773,-3.1234,-3.1475,-3.2002,-3.2022,-3.149,-3.2211,-3.2541,-3.2211,-3.1922,-3.1775,-3.176,-3.1196,-3.0846,-3.0785,-3.0091,0.0,0.0,0.0,0.0,0.0,0.0,0.0,0.0,0.0,0.0,0.0,0.0,0.0,0.0,0.0,0.0,0.0,0.0,0.0,0.0,0.0,0.0,0.0,0.0,0.0,0.0,0.0,0.0,-1.7334,-1.8582,0.0,-2.0279,-1.9965,-2.0195,-2.144,-2.2213,-2.334,-2.4964,-2.5468,-2.5668,-2.5834,-2.6312,-2.681,-2.7198,-2.7866,-2.8292,-2.847,-2.8698,-2.8603,-2.8318,-2.8611,-2.8632,-2.8392,-2.9274,-3.0026,-3.0576,-3.0833,-3.055,-3.0035,-2.9763,-2.9645,-2.9593,-2.9481,-2.9363,-2.9165,-2.8753,-2.8744,-2.904,-2.9665,-2.9902,-2.9919,-2.9564,-2.9345,-2.9245,-2.9564,-2.9933,-3.0369,-3.1128,-3.146,-3.1644,-3.1845,-3.1883,-3.1778,-3.1782,-3.1993,-3.2213,-3.2378,-3.2422,-3.2152,-3.1246,-3.1337,-3.1288,-3.033,-3.0934,-3.1636,-3.1879,-3.2262,-3.2716,-3.3047,-3.3052,-3.2763,-3.2324,-3.2654,-3.2468,-3.1629,-3.1891,-3.1822,-3.1152,-3.1164,-3.0898,-3.0176,-2.9544,-2.8789,0.0,0.0,0.0,0.0,0.0,0.0,0.0,0.0,0.0,0.0,0.0,0.0,0.0,0.0,0.0,0.0,0.0,0.0,0.0,0.0,0.0,0.0,0.0,0.0,0.0,0.0,-1.7341,-1.8422,-2.0106,-2.1426,-2.2078,-2.2519,-2.2951,-2.352,-2.4249,-2.5124,-2.6182,-2.6534,-2.6664,-2.655,-2.6873,-2.7197,-2.7554,-2.8044,-2.847,-2.8829,-2.8936,-2.8975,-2.9018,-2.926,-2.9417,-2.9486,-3.0558,-3.1097,-3.1322,-3.1776,-3.1421,-3.0551,-3.0302,-3.0136,-2.995,-2.9444,-2.9174,-2.9012,-2.9115,-2.9266,-2.9477,-3.0176,-3.0343,-3.0227,-3.0393,-3.0385,-3.0425,-3.0852,-3.1059,-3.1297,-3.1951,-3.1956,-3.1919,-3.2026,-3.225,-3.2283,-3.1923,-3.2304,-3.2649,-3.2634,-3.2746,-3.2746,-3.2424,-3.2762,-3.2794,-3.2133,-3.277,-3.3265,-3.3213,-3.3364,-3.3635,-3.3844,-3.3557,-3.3255,-3.3021,-3.2788,-3.2333,-3.1518,-3.1848,-3.1587,-3.0469,-3.0822,-3.0486,-2.9445,-2.9273,-2.8733,-2.77,0.0,0.0,0.0,0.0,0.0,0.0,0.0,0.0,0.0,0.0,0.0,0.0,0.0,0.0,0.0,0.0,0.0,0.0,0.0,0.0,0.0,0.0,0.0,-1.3786,-1.7086,-1.9188,-1.8024,-2.1287,-2.3812,-2.431,-2.4236,-2.4313,-2.4641,-2.54,-2.5845,-2.5782,-2.6712,-2.7245,-2.7169,-2.6949,-2.7224,-2.8235,-2.7608,-2.8164,-2.9897,-2.9477,-2.9672,-3.037,-3.0354,-3.0533,-3.0908,-3.1733,-3.2057,-3.1988,-3.1702,-3.1397,-3.1055,-3.1026,-3.0792,-3.0335,-2.8881,-2.8364,-2.853,-2.956,-3.0124,-3.0494,-3.122,-3.1293,-3.1069,-3.1416,-3.1441,-3.1515,-3.194,-3.1793,-3.1572,-3.194,-3.2342,-3.2489,-3.2083,-3.2532,-3.2708,-3.175,-3.2296,-3.2761,-3.2094,-3.2221,-3.265,-3.3365,-3.3206,-3.3176,-3.3444,-3.3794,0.0,-3.3885,-3.3847,-3.3902,-3.3711,-3.3499,-3.3265,-3.3348,-3.271,-3.218,-3.1902,-3.1886,-3.1182,-2.9793,-3.0112,-2.9856,-2.8738,-2.9514,-2.9231,-2.7831,0.0,0.0,0.0,0.0,0.0,0.0,0.0,0.0,0.0,0.0,0.0,0.0,0.0,0.0,0.0,0.0,0.0,0.0,0.0,0.0,0.0,0.0,-1.6116,-1.5937,-1.9311,-2.1873,-2.2009,-2.331,-2.4178,-2.4174,-2.487,-2.5444,-2.5723,-2.6706,-2.7416,-2.7605,-2.7867,-2.7637,-2.6885,-2.7749,-2.801,-2.7477,-2.8285,-2.9114,-2.9897,-2.9266,-2.9302,-3.0069,-3.002,-3.0216,-3.0537,-3.1342,-3.177,-3.1977,-3.1912,-3.1998,-3.2057,-3.0998,-3.0484,-3.0435,-3.0251,-3.0217,-3.0217,-3.0592,-3.072,-3.0836,-3.1023,-3.103,-3.0911,-3.1063,-3.085,-3.0637,-3.0836,-3.0754,-3.0827,-3.1191,-3.1589,-3.1939,-3.233,-3.254,-3.265,-3.2934,-3.3002,-3.2984,-3.3047,-3.292,-3.2952,-3.3397,-3.3642,-3.3788,-3.3893,-3.4202,-3.4558,-3.464,-3.4377,-3.4322,-3.4588,-3.3785,-3.3345,-3.3782,-3.2861,-3.2104,-3.1917,-3.2024,-3.1806,-3.0872,-3.123,-3.0846,-2.9606,-3.0118,-2.981,0.0,0.0,0.0,0.0,0.0,0.0,0.0,0.0,0.0,0.0,0.0,0.0,0.0,0.0,0.0,0.0,0.0,0.0,0.0,0.0,0.0,0.0,-1.6661,-1.8356,-1.9779,-2.1607,-2.3119,-2.3869,-2.4402,-2.4675,-2.4709,-2.5587,-2.6257,-2.6615,-2.7243,-2.7783,-2.8312,-2.8278,-2.7914,-2.6964,-2.7909,-2.8035,-2.7221,-2.8186,-2.9061,-2.99,-2.9476,-2.9741,-3.0585,-3.0601,-3.0854,-3.13,-3.182,-3.2001,-3.1977,-3.1983,-3.1918,0.0,0.0,0.0,0.0,0.0,-3.0467,-3.0543,-3.1072,-3.1209,-3.1197,-3.1517,-3.162,-3.1683,-3.1999,-3.1891,-3.181,-3.1977,-3.182,-3.1596,-3.1803,-3.2005,-3.2187,-3.2459,-3.2665,-3.2873,-3.289,-3.3034,-3.3143,-3.3047,-3.3111,0.0,-3.3444,-3.3594,-3.3708,-3.3746,-3.4449,-3.487,-3.4763,-3.4979,-3.5122,-3.5049,-3.4204,-3.3838,-3.4155,-3.3115,0.0,0.0,0.0,-3.2087,-3.109,-3.1241,0.0,0.0,0.0,-3.0816,-3.0314,-3.0918,0.0,0.0,-2.9681,-2.9479,0.0,0.0,0.0,0.0,0.0,0.0,0.0,0.0,0.0,0.0,0.0,0.0,0.0,0.0,0.0,0.0,-1.883,-2.0794,-2.4086,-2.3861,-2.3639,-2.4478,-2.4984,-2.5444,-2.5769,-2.6421,-2.6955,-2.7286,-2.7392,-2.7736,-2.8378,0.0,0.0,0.0,0.0,-2.782,-2.7243,-2.7701,-2.8624,-2.9855,-2.9822,-3.0375,-3.1437,-3.1387,-3.1862,-3.2526,-3.2526,-3.235,-3.1977,-3.1955,-3.1523,-3.0962,-3.0953,-3.0999,-3.0947,-3.0463,-3.0232,-3.0217,-3.142,0.0,0.0,-3.2474,-3.272,-3.2813,-3.3533,-3.3661,-3.3702,-3.4034,-3.3607,-3.2956,-3.2862,-3.2862,-3.2776,-3.2491,-3.2968,-3.3222,-3.2301,-3.2825,-3.3301,-3.265,-3.3047,-3.3476,-3.3558,-3.3303,-3.3208,-3.3574,-3.4481,-3.5067,-3.4726,-3.5558,-3.5934,-3.5215,0.0,0.0,-3.4509,-3.3505,-3.2866,-3.2968,-3.2983,-3.2436,-3.1183,-3.1042,-3.0447,-2.9356,-3.1015,-3.2067,-3.2487,-3.4132,-3.4818,-3.4498,-3.1955,-3.149,0.0,0.0,0.0,0.0,0.0,0.0,0.0,0.0,0.0,0.0,0.0,0.0,0.0,0.0,0.0,-1.9116,-2.0666,-2.2601,-2.5159,-2.5357,-2.5392,-2.5818,-2.6145,-2.6514,-2.6849,-2.756,-2.8003,-2.807,-2.8601,-2.8969,-2.9102,-2.941,-2.9044,-2.7733,-2.8845,-2.8927,-2.7686,-2.8578,-2.9171,-2.9425,0.0,0.0,-3.0187,-3.017,-3.0811,-3.1759,-3.17,-3.1745,-3.1993,-3.1622,-3.1437,-3.1297,-3.1034,-3.0921,-3.1023,-3.1861,-3.1927,-3.1734,-3.2942,-3.3176,-3.2945,-3.338,-3.3512,-3.3516,-3.3661,-3.3479,0.0,-3.2588,-3.2201,-3.1745,-3.1441,-3.1692,-3.2157,-3.2348,-3.2968,-3.3429,-3.3222,-3.3333,-3.3444,-3.3301,-3.3397,-3.3558,-3.3968,-3.3903,-3.3984,-3.4437,-3.4698,-3.5073,-3.5897,-3.5564,-3.5483,-3.5967,-3.5074,-3.4485,-3.4525,-3.3457,-3.2949,-3.3328,-3.3722,-3.3594,-3.2998,-3.3703,-3.3669,-3.2773,-3.3456,-3.406,-3.4444,-3.4513,-3.4986,-3.5794,-3.4915,-3.4365,0.0,0.0,0.0,0.0,0.0,0.0,0.0,0.0,0.0,0.0,0.0,-1.7075,0.0,0.0,-2.0427,-2.1248,-2.2545,-2.3958,-2.5463,-2.5973,-2.6199,-2.6146,-2.6615,-2.6972,-2.7098,-2.7997,-2.8426,-2.803,-2.8666,-2.9053,-2.9036,-2.921,-2.906,-2.8393,-2.9349,-2.9298,-2.8041,-2.909,-2.9513,-2.9298,-2.9513,-2.9905,-3.0405,-3.0803,-3.1474,-3.2376,-3.188,-3.2059,-3.2604,-3.2146,-3.1993,-3.196,-3.1831,-3.1647,-3.1582,-3.2793,-3.2952,-3.2747,-3.3778,-3.3943,-3.3806,-3.4209,-3.4392,-3.4542,-3.4542,-3.4585,-3.4463,-3.3686,-3.3359,-3.3071,-3.245,-3.2488,-3.2762,-3.2937,-3.3222,-3.3492,-3.3492,-3.3492,-3.3558,-3.3722,-3.3804,-3.3968,-3.4376,-3.4458,-3.4507,-3.4716,-3.508,-3.5426,-3.5638,-3.5719,-3.58,-3.5978,-3.5071,-3.453,-3.4863,-3.4097,-3.3594,-3.3762,-3.4159,-3.4163,-3.3547,-3.4418,-3.463,-3.4025,-3.4467,-3.4934,-3.5279,-3.5279,-3.5469,-3.5849,-3.6071,-3.5713,0.0,0.0,0.0,0.0,0.0,0.0,0.0,0.0,-1.6381,-1.8116,-1.8491,-1.9067,-2.0913,-2.18,-2.2499,-2.3207,-2.3974,-2.4802,-2.5566,-2.6236,-2.6504,-2.62,-2.68,-2.726,-2.7407,-2.8349,-2.8622,-2.8044,-2.8652,-2.904,-2.9023,-2.9044,-2.9142,-2.9209,-2.9788,-2.9638,-2.8649,-2.9508,-2.9832,-2.9409,-3.0042,-3.0616,-3.0982,-3.1572,-3.2259,-3.3092,-3.2472,-3.2604,-3.3044,-3.2816,-3.2664,-3.2588,-3.2757,-3.2604,-3.2375,-3.3289,-3.3542,-3.3398,-3.4239,-3.4558,-3.4575,-3.4962,-3.5342,-3.5514,-3.5514,-3.5757,-3.5948,-3.5223,-3.4899,-3.4659,-3.3936,-3.3613,-3.3532,-3.3495,-3.3492,-3.3492,-3.3492,-3.3492,-3.3558,-3.3886,-3.3968,-3.4131,-3.4621,-3.4621,-3.4719,-3.4784,-3.5295,-3.556,-3.5354,-3.5642,-3.5828,-3.5702,-3.4971,-3.4646,-3.4919,-3.4666,-3.4271,-3.3921,-3.432,-3.4309,-3.3645,-3.4352,-3.4568,-3.4283,-3.4609,-3.5001,-3.5539,-3.5921,-3.5991,-3.5782,-3.641,-3.6268,-1.3663,-1.3762,-1.4156,-1.4874,-1.4904,-1.5232,0.0,0.0,-1.664,-1.875,-1.921,-1.9707,-2.1385,-2.2376,-2.3262,-2.425,-2.4519,-2.4933,-2.5854,-2.6342,-2.6547,-2.6474,-2.7159,-2.7875,-2.855,-2.9008,-2.923,-2.9114,-2.9524,-2.9763,-2.9763,-3.0037,-3.0241,-3.0218,-3.0654,-3.0501,-2.9741,-3.0107,-3.0176,-2.9758,-3.0155,-3.0582,-3.0894,-3.0974,-3.1636,-3.269,-3.2952,-3.2892,-3.2664,-3.2968,-3.2892,-3.2681,-3.3365,-3.3441,-3.3044,-3.3196,-3.3449,-3.3819,-3.464,-3.5094,-3.5407,-3.5828,-3.5982,-3.6016,-3.6016,-3.6097,-3.5999,-3.5463,-3.5123,-3.4717,-3.4148,-3.374,-3.351,-3.3476,-3.3492,-3.3492,-3.3492,-3.3492,-3.3476,-3.3558,-3.3574,-3.3722,-3.4131,-3.4213,-3.4474,-3.524,-3.4768,-3.4768,-3.6158,-3.5141,-3.4618,-3.5568,-3.4971,-3.4382,-3.4179,-3.4064,-3.3921,-3.3572,-3.395,-3.3984,-3.351,-3.4001,-3.4286,-3.4252,-3.3938,-3.4412,-3.5526,-3.5502,-3.5842,-3.6521,-3.6575,-3.6188,-1.3581,-1.3814,0.0,0.0,-1.6006,-1.6908,-1.7251,-1.7379,-1.7633,-1.8596,-1.9074,-1.9626,-2.0673,-2.1666,-2.2607,0.0,-2.4027,-2.4587,-2.5592,-2.6047,-2.6176,-2.5923,-2.592,-2.6461,-2.7952,-2.8235,-2.8392,-2.8392,-2.9083,-2.9404,-2.8986,-2.9662,-3.0089,-3.0119,-3.0472,-3.0422,-2.9926,-3.0069,-2.9977,-2.9822,-3.016,-3.0637,-3.1241,-3.1209,-3.1558,-3.2299,-3.3137,-3.3289,-3.2968,-3.3365,-3.3441,-3.3306,-3.3685,-3.3685,-3.3517,-3.3517,-3.3831,-3.4222,-3.4769,-3.5207,-3.5566,-3.596,-3.6097,-3.6097,-3.6097,-3.6097,-3.5935,-3.5271,-3.4946,-3.4621,-3.3968,-3.364,-3.3492,-3.3492,-3.3492,-3.3492,-3.3492,-3.3492,-3.3574,-3.3804,-3.3886,-3.3968,-3.4458,-3.4294,-3.436,-3.5245,-3.485,-3.4719,-3.5255,-3.4809,-3.4462,-3.4666,-3.5007,-3.4762,-3.3762,-3.3889,-3.3858,-3.3508,-3.364,-3.3804,-3.3886,-3.4067,-3.4391,-3.4875,-3.4484,-3.4725,-3.5439,-3.5649,-3.5902,-3.6218,-3.6703,-3.6834,-1.3737,0.0,0.0,-1.5403,-1.6733,-1.7811,-1.7672,-1.8043,-1.8425,-1.8591,-1.9017,-1.9464,-2.003,-2.0509,-2.1324,-2.272,-2.3358,-2.3999,-2.5218,-2.5435,-2.5344,-2.4903,-2.431,-2.4727,-2.6719,-2.7154,-2.7495,-2.8006,-2.881,-2.9117,-2.8751,-2.9475,-2.9902,-3.0035,-3.0287,-3.0256,-2.9926,-2.9997,-2.9977,-2.9838,-3.023,-3.075,-3.1309,-3.1469,-3.1771,-3.2228,-3.323,-3.3583,-3.3365,-3.3685,-3.3761,-3.3761,-3.3761,-3.3761,-3.3761,-3.3761,-3.4076,-3.4453,-3.4847,-3.5207,-3.5566,-3.596,-3.6097,-3.6097,-3.6097,-3.6097,-3.5935,-3.5352,-3.5027,-3.4783,-3.4213,-3.3886,-3.364,-3.364,-3.364,-3.364,-3.364,-3.3804,-3.3886,-3.4049,-3.4131,-3.4213,-3.4376,-3.4131,-3.4179,-3.4865,-3.4702,-3.4619,-3.481,-3.4783,-3.459,-3.4159,-3.4938,-3.5023,-3.3842,-3.4096,-3.4144,-3.3794,-3.3683,-3.38,-3.4031,-3.4098,-3.4458,-3.519,-3.4946,-3.5027,-3.5595,-3.6017,-3.6188,-3.6306,-3.703,-3.7364,0.0,0.0,-1.5271,-1.6853,-1.701,-1.7008,-1.8067,-1.8417,-1.8731,-1.9199,-1.9314,-1.942,-1.9849,-1.9112,-1.9313,-2.2167,-2.264,-2.319,-2.4792,-2.4515,-2.3934,-2.3231,-2.2648,-2.3039,0.0,-2.5807,-2.6934,-2.8618,-2.9111,-2.947,-2.9847,-2.9881,-3.0021,-3.0388,-3.0422,-3.0256,-2.9926,-3.0228,-3.0193,-2.9838,-3.0541,-3.0895,-3.0914,-3.17,-3.2243,-3.2692,-3.314,-3.3494,-3.3761,-3.3761,-3.3761,-3.3761,-3.3761,-3.3761,-3.3761,-3.3761,-3.4076,-3.4453,-3.4847,-3.5207,-3.5566,-3.596,-3.6097,-3.6097,-3.6097,-3.6097,-3.6097,-3.6097,-3.5757,-3.5352,-3.5352,-3.4702,-3.4049,-3.4049,-3.4049,-3.4049,-3.4049,-3.4458,-3.4621,-3.4213,-3.4131,-3.3968,-3.3558,-3.3574,-3.3603,-3.3953,-3.4001,-3.4407,-3.5536,-3.5275,-3.4874,-3.4525,-3.4811,-3.4874,-3.4509,-3.4795,-3.4859,-3.4493,-3.4175,-3.4001,-3.4001,-3.4079,-3.4294,-3.4783,-3.4783,-3.5206,-3.6097,-3.6416,-3.6792,-3.7165,-3.7555,-3.7775,0.0,0.0,-1.7125,-1.7532,-1.8319,-1.9136,-1.9698,-2.02,-2.0477,-2.0234,-2.0347,-2.0385,-2.0076,-2.0016,-2.0522,-2.2041,-2.24,-2.2976,-2.4326,-2.4269,-2.3657,-2.2758,-2.2699,0.0,0.0,0.0,0.0,-2.6934,-2.7634,-2.7908,-2.7847,-2.9157,-2.9716,-2.9379,-2.9834,-2.9921,-2.9513,-2.9585,-2.9801,-3.0156,-3.0953,-3.127,-3.1232,-3.1812,-3.214,-3.2305,-3.3003,-3.334,-3.3477,-3.3734,-3.3761,-3.3761,-3.3761,-3.3761,-3.3761,-3.3761,-3.3922,-3.4111,-3.4761,-3.5207,-3.5487,-3.5638,-3.5855,-3.6016,-3.5757,-3.5855,-3.6016,-3.5676,-3.5514,-3.5271,-3.4702,-3.4294,-3.4131,-3.4131,-3.4131,-3.4213,-3.4458,-3.4458,-3.4294,-3.4131,-3.3886,-3.364,-3.3476,-3.3683,-3.4032,-3.4604,-3.4493,-3.4498,-3.4822,-3.4976,-3.489,-3.4541,-3.5033,-3.5145,-3.4557,-3.5083,-3.5221,-3.4642,-3.4814,-3.48,-3.4572,-3.4523,-3.4783,-3.519,-3.4898,-3.5175,-3.6021,-3.6375,-3.6788,-3.7132,-3.7828,-3.8152,-1.5085,-1.6236,-1.7739,-1.822,-1.9461,-2.059,-2.0598,-2.1267,-2.1674,-2.1034,-2.068,-2.0354,-1.9735,-1.9801,-2.0261,-2.1199,-2.1698,-2.2387,-2.3666,-2.3537,-2.3054,-2.2289,-2.241,-2.3168,0.0,0.0,0.0,-2.675,-2.716,-2.7352,-2.7472,-2.8874,-2.9378,-2.8785,-2.9367,-2.9569,-2.9298,-2.9298,-2.9656,-3.0361,-3.1027,-3.143,-3.1654,-3.2133,-3.2295,-3.234,-3.3026,-3.3272,-3.3306,-3.3683,-3.3761,-3.3761,-3.3761,-3.3761,-3.3761,-3.3761,-3.3922,-3.4128,-3.4761,-3.5121,-3.5316,-3.5587,-3.5855,-3.6016,-3.5757,-3.5838,-3.6016,-3.5757,-3.5676,-3.5514,-3.4946,-3.4702,-3.4539,-3.4539,-3.4539,-3.4621,-3.4946,-3.4783,-3.4539,-3.4376,-3.4131,-3.3934,-3.3733,-3.4064,-3.4525,-3.497,-3.4954,-3.489,-3.489,-3.5081,-3.5145,-3.4906,-3.5303,-3.5383,-3.4922,-3.5526,-3.5735,-3.5281,-3.5408,-3.5411,-3.518,-3.5079,-3.5109,-3.5369,-3.5304,-3.5598,-3.6217,-3.6628,-3.7009,-3.7369,-3.8015,-3.8289,-1.6227,-1.6639,-1.7308,-1.8977,-2.0334,-2.1221,-2.083,-2.1643,-2.2316,-2.1676,-2.0488,-1.9425,0.0,0.0,-1.871,-1.9825,-2.0612,-2.1528,-2.285,-2.2545,-2.2127,0.0,0.0,0.0,0.0,0.0,0.0,-2.7923,0.0,-2.7646,-2.8575,-2.9043,-2.9176,-2.8887,-2.9158,-2.9302,-2.9369,-2.9385,-2.9705,-3.0405,-3.0778,-3.1384,-3.212,-3.2473,-3.2662,-3.2707,-3.31,-3.3272,-3.3306,-3.3683,-3.3761,-3.3761,-3.3761,-3.3761,-3.3761,-3.3761,-3.4059,-3.4419,-3.4813,-3.4967,-3.5121,-3.5823,-3.608,-3.6097,-3.6097,-3.6097,-3.6097,-3.6097,-3.6097,-3.6097,-3.6097,-3.5757,-3.5433,-3.5433,-3.5433,-3.5433,-3.5433,-3.5433,-3.5271,-3.4865,-3.4783,-3.4572,-3.4119,-3.4557,-3.5017,-3.5033,-3.5335,-3.5573,-3.5573,-3.5573,-3.5573,-3.5573,-3.5573,-3.5573,-3.5558,-3.5993,-3.6324,-3.6291,-3.605,-3.5907,-3.5891,-3.5639,-3.545,-3.5467,-3.5906,-3.6344,-3.6656,-3.7059,-3.7454,-3.7895,-3.822,-3.8323,-1.6448,-1.7477,-1.8897,-2.0247,-2.0955,-2.1641,-2.2684,-2.2865,-2.2634,-2.1994,-2.1341,-2.0597,0.0,0.0,0.0,-2.0341,-2.0766,0.0,-2.3217,-2.3269,0.0,-2.3119,0.0,-2.4317,-2.4729,-2.4703,0.0,0.0,-2.7223,-2.6769,-2.66,-2.8296,-2.9428,-2.9593,-2.9428,-2.9585,-3.0085,-3.013,-3.0236,-3.0405,-3.0778,-3.1384,-3.2103,-3.2204,-3.2408,-3.2707,-3.31,-3.3272,-3.3306,-3.3683,-3.3761,-3.3761,-3.3761,-3.3761,-3.3761,-3.3761,-3.3829,-3.4025,-3.4402,-3.4898,-3.5316,-3.5282,-3.5617,-3.6016,-3.5676,-3.5838,-3.6097,-3.6097,-3.6097,-3.6016,-3.5676,-3.5514,-3.5433,-3.5433,-3.5433,-3.5514,-3.5855,-3.5676,-3.5352,-3.5271,-3.4702,-3.4245,-3.4036,-3.4366,-3.4731,-3.4986,-3.5335,-3.5573,-3.5573,-3.5573,-3.5573,-3.5573,-3.5573,-3.5462,-3.5192,-3.5864,-3.6149,-3.5623,-3.6058,-3.6317,-3.6062,-3.6234,-3.6148,-3.5935,-3.6563,-3.6936,-3.7036,-3.7758,-3.8357,-3.8682,-3.916,-3.9195,-1.7979,-1.8822,-2.0149,-2.1518,-2.1872,-2.2143,-2.3051,-2.2863,-2.2355,-2.1714,-2.098,0.0,0.0,0.0,0.0,0.0,0.0,0.0,-2.2596,-2.2883,-2.3134,0.0,-2.408,0.0,-2.4935,-2.5044,-2.5659,0.0,-2.6876,-2.6838,-2.7066,-2.8693,-2.9576,-2.9671,-2.9553,-2.966,-2.9942,-3.0065,-3.0316,-3.0696,-3.1203,-3.1909,-3.2651,-3.2747,-3.2878,-3.2963,0.0,-3.3426,-3.3306,-3.3683,-3.3761,-3.3761,-3.3761,-3.3761,-3.3778,-3.4025,-3.3974,-3.3888,-3.4495,-3.5072,-3.5512,-3.5208,-3.5612,-3.6016,-3.5757,-3.5935,-3.6097,-3.6097,-3.6097,-3.6016,-3.5757,-3.5676,-3.5676,-3.5676,-3.5676,-3.5757,-3.6016,-3.5757,-3.5433,-3.5433,-3.467,-3.4191,-3.4467,-3.4538,-3.462,-3.4986,-3.5208,-3.5399,-3.5558,-3.5573,-3.5661,-3.5938,-3.5922,-3.5864,-3.5665,-3.6379,-3.659,-3.5859,-3.6472,-3.6731,-3.6324,-3.6396,-3.6349,-3.628,-3.6686,-3.7144,-3.7487,-3.7946,-3.834,-3.8716,-3.9007,-3.892,-1.9868,-2.0272,-2.1066,-2.2594,-2.2685,-2.246,-2.2685,-2.2325,-2.1817,-2.1178,0.0,-1.9161,-1.9007,0.0,-1.9072,-1.9564,0.0,-2.1234,-2.1547,-2.2081,-2.267,-2.3453,-2.3779,-2.4242,-2.4994,-2.5136,-2.5493,-2.6254,-2.6659,-2.7376,-2.869,-2.9377,-2.9605,-2.939,-2.9818,-2.9855,-2.9441,-2.9855,-3.0392,-3.1187,-3.1845,-3.26,-3.3363,-3.3741,-3.3648,-3.3357,-3.37,-3.3597,-3.322,-3.3665,-3.3785,-3.3775,-3.3802,-3.3837,-3.3964,-3.4324,-3.4256,-3.4032,-3.487,-3.539,-3.5756,-3.5581,-3.5817,-3.6178,-3.6097,-3.6097,-3.6097,-3.6097,-3.6097,-3.6097,-3.6097,-3.6097,-3.6097,-3.6097,-3.6097,-3.6097,-3.6097,-3.5757,-3.5433,-3.5433,-3.4719,-3.4352,-3.5014,-3.4725,-3.4541,-3.4944,-3.5024,-3.5167,-3.5572,-3.57,-3.5835,-3.6286,-3.6372,-3.6366,-3.6385,-3.7044,-3.7165,-3.6425,-3.6807,-3.6871,-3.6532,-3.632,-3.6392,-3.6626,-3.6741,-3.7147,-3.7809,-3.7896,-3.81,-3.8494,-3.8597,-3.8578,-2.0027,-2.0661,-2.1391,-2.2676,-2.2511,-2.218,-2.2793,-2.2162,0.0,0.0,0.0,-1.9153,-1.8615,-1.8404,0.0,-1.9246,0.0,0.0,0.0,0.0,-2.2975,0.0,0.0,0.0,0.0,0.0,0.0,0.0,0.0,-2.7522,-2.8388,-2.8789,-2.9204,-2.981,-3.0456,-3.0655,-3.0228,-3.0584,-3.1178,-3.1981,-3.2428,-3.3042,-3.3809,-3.4116,-3.4105,-3.3751,-3.3727,0.0,-3.2844,-3.3546,-3.361,-3.3388,-3.3672,-3.3988,-3.4342,-3.4783,-3.4887,-3.4887,-3.5716,-3.6277,-3.6481,-3.5765,-3.6008,-3.65,-3.6178,-3.6097,-3.6097,-3.6097,-3.6097,-3.6097,-3.6097,-3.6097,-3.6097,-3.6097,-3.6097,-3.6097,-3.6097,-3.6016,-3.5838,-3.5514,-3.4996,-3.4556,-3.4392,-3.4189,-3.4195,-3.4677,-3.5019,-3.5297,-3.57,-3.5983,-3.6199,-3.6286,-3.6616,-3.6682,-3.6022,-3.6442,-3.6408,-3.562,-3.6042,-3.6268,-3.6217,-3.6737,-3.6847,-3.6638,-3.7555,-3.7947,-3.7809,-3.8477,-3.9025,-3.9433,-3.9894,-4.0028,-2.1357,-2.1859,-2.2423,-2.3261,-2.3019,-2.2584,-2.264,0.0,0.0,0.0,0.0,-1.8669,-1.8025,0.0,0.0,0.0,0.0,0.0,0.0,0.0,0.0,0.0,0.0,0.0,0.0,0.0,0.0,0.0,0.0,-2.7716,-2.8876,-2.9358,-2.9893,-3.0443,-3.0626,-3.0584,-3.037,-3.0797,-3.1494,-3.2488,-3.2805,-3.344,-3.4179,-3.4354,-3.4215,-3.3761,-3.3761,-3.3706,-3.3621,-3.4191,-3.4313,-3.4214,-3.4795,-3.5041,-3.5076,-3.5693,-3.5834,-3.5733,-3.651,-3.6934,-3.7059,-3.6646,-3.6746,-3.7045,-3.6804,-3.6804,-3.6724,-3.6483,-3.642,-3.6339,-3.6178,-3.6097,-3.6097,-3.6097,-3.6097,-3.6097,-3.6097,-3.5935,-3.5757,-3.5757,-3.5271,-3.4783,-3.4783,-3.4605,-3.4538,-3.4981,-3.5144,-3.5408,-3.574,-3.617,-3.6467,-3.6665,-3.6939,-3.6877,-3.6593,-3.6728,-3.6507,-3.5825,-3.6178,-3.6293,-3.6114,-3.6572,-3.6805,-3.6593,-3.7521,-3.8101,-3.8168,-3.8699,-3.923,-3.9689,-3.9961,-4.0023,-2.2474,-2.2638,-2.3062,-2.3422,-2.3249,-2.2843,-2.2478,-2.1404,0.0,0.0,-1.8803,-1.8123,-1.7612,0.0,0.0,0.0,0.0,0.0,0.0,0.0,0.0,0.0,0.0,0.0,0.0,0.0,0.0,0.0,0.0,0.0,-2.9429,-3.0103,-3.0643,-3.1087,-3.0831,-3.07,-3.0771,-3.1266,-3.1998,-3.3102,-3.3468,-3.4056,-3.4667,-3.4667,-3.4441,-3.4064,-3.4064,-3.4111,-3.4307,-3.4924,-3.5099,-3.5085,-3.5887,-3.612,-3.6075,-3.6841,-3.6927,-3.6839,-3.7565,-3.7849,-3.7753,-3.7692,-3.7593,-3.7525,-3.7445,-3.7445,-3.7365,-3.6965,-3.6822,-3.6661,-3.6339,-3.6178,-3.6097,-3.6178,-3.6178,-3.6097,-3.6178,-3.5918,-3.5757,-3.6178,-3.5612,-3.519,-3.5514,-3.5109,-3.4882,-3.5262,-3.5312,-3.5477,-3.5842,-3.6275,-3.661,-3.6997,-3.7183,-3.7183,-3.7076,-3.7214,-3.6975,-3.6148,-3.6447,-3.6498,-3.6114,-3.6447,-3.6605,-3.6607,-3.7403,-3.7998,-3.8534,-3.885,-3.9281,-3.9876,-3.9876,-3.9952,-2.2139,-2.1951,-2.2138,-2.2316,-2.2218,-2.208,-2.2244,0.0,0.0,0.0,-1.8695,-1.7782,-1.7521,-1.7351,0.0,0.0,0.0,0.0,0.0,0.0,0.0,0.0,0.0,0.0,0.0,0.0,0.0,0.0,0.0,0.0,-2.983,-3.0224,-3.0734,-3.1548,-3.1534,-3.1659,-3.1946,-3.2705,-3.3524,-3.433,-3.4772,-3.5134,-3.5456,-3.5456,-3.5306,-3.4857,-3.4857,-3.4525,0.0,-3.5073,-3.541,-3.5172,-3.593,-3.6682,-3.7393,-3.7794,-3.8189,-3.852,-3.8989,-3.9138,-3.9059,-3.8664,-3.8206,-3.7845,-3.7525,-3.7445,-3.7365,-3.7365,-3.7045,-3.6661,-3.6661,-3.6339,-3.6178,-3.6581,-3.6339,-3.6178,-3.6581,-3.6581,-3.6581,-3.6661,-3.6258,-3.6016,-3.6016,-3.5369,-3.4963,-3.5355,-3.5419,-3.5581,-3.6021,-3.6392,-3.6614,-3.6648,-3.7264,-3.7417,-3.6703,-3.7413,-3.7376,-3.6166,-3.646,-3.6477,-3.6097,-3.646,-3.6602,-3.6634,-3.7398,-3.8061,-3.8534,-3.885,-3.9451,-4.0318,-4.0318,-4.0536,-2.2083,-2.2061,-2.2307,-2.2917,-2.2873,-2.2692,-2.2536,0.0,0.0,-1.9559,-1.8579,-1.7678,-1.7225,-1.6974,-1.6949,0.0,0.0,0.0,0.0,0.0,0.0,0.0,0.0,0.0,0.0,0.0,0.0,0.0,0.0,0.0,-3.0863,-3.0838,-3.1133,-3.1879,-3.2139,-3.2313,-3.2437,-3.3036,-3.3839,-3.4812,-3.4993,-3.5392,-3.5978,-3.568,-3.5381,-3.5007,-3.5231,-3.5007,0.0,-3.6435,-3.6717,-3.6273,-3.7802,-3.8496,-3.8627,-3.9012,-3.9296,-3.944,-3.9295,-3.943,-3.9509,-3.8798,-3.8719,-3.8719,-3.8243,-3.8084,-3.8084,-3.7845,-3.7605,-3.7365,-3.6822,-3.642,-3.6178,-3.6581,-3.642,-3.6178,-3.6581,-3.65,-3.6339,-3.6339,-3.6178,-3.6178,-3.642,-3.6161,-3.608,-3.6563,-3.6322,-3.6322,-3.6804,-3.6783,-3.6789,-3.7014,-3.7063,-3.719,-3.7366,-3.7262,-3.7119,-3.6818,-3.7045,-3.6904,-3.6498,-3.7077,-3.7252,-3.7112,-3.783,-3.8482,-3.8932,-3.9324,-3.9982,-4.0807,-4.0807,-4.0892,-2.2249,-2.2326,-2.238,-2.3045,-2.3233,-2.3063,0.0,0.0,0.0,-1.937,-1.8414,-1.7574,-1.7137,-1.6786,-1.6777,0.0,0.0,0.0,0.0,0.0,0.0,0.0,0.0,0.0,0.0,0.0,0.0,0.0,0.0,0.0,-3.1226,-3.1125,-3.1458,-3.2438,-3.2738,-3.2932,-3.3056,-3.3643,-3.4451,-3.5357,-3.5504,-3.587,-3.6349,-3.5978,-3.5479,-3.5058,-3.5664,-3.5468,0.0,-3.7334,-3.7765,-3.7137,-3.9127,-3.9797,-3.9642,-3.9874,-4.0067,-4.0197,-3.9672,-3.9632,-3.9745,-3.9035,-3.8956,-3.9035,-3.8719,-3.856,-3.856,-3.8243,-3.8004,-3.7685,-3.6885,-3.65,-3.642,-3.6804,-3.6563,-3.642,-3.6804,-3.6581,-3.6258,-3.6258,-3.6258,-3.6339,-3.6661,-3.6581,-3.6724,-3.7135,-3.6947,-3.6885,-3.733,-3.7108,-3.7045,-3.7383,-3.702,-3.7054,-3.7719,-3.7426,-3.7309,-3.7486,-3.757,-3.7427,-3.7117,-3.7596,-3.7793,-3.7392,-3.8149,-3.8822,-3.9441,-3.9757,-4.0406,-4.1294,-4.1247,-4.1173,-2.2649,-2.2609,-2.2127,-2.2205,-2.27,-2.2766,0.0,0.0,0.0,-1.9183,-1.8216,-1.7461,-1.7407,-1.6959,-1.7026,-1.8376,0.0,0.0,0.0,0.0,0.0,0.0,0.0,0.0,0.0,0.0,0.0,0.0,0.0,0.0,-3.048,-3.0837,-3.1663,-3.3242,-3.3286,-3.3464,-3.3872,-3.4975,-3.5797,-3.6201,-3.6571,-3.6812,-3.6812,-3.6349,-3.5779,-3.5082,-3.6238,-3.5808,0.0,-3.7462,-3.816,-3.7535,-3.9242,-4.0144,-4.0394,-4.0063,-4.0449,-4.1035,-4.0202,-3.9872,-3.9823,-3.943,-3.8956,-3.864,-3.856,-3.856,-3.856,-3.856,-3.8004,-3.7285,-3.6804,-3.6742,-3.6822,-3.7285,-3.7045,-3.6804,-3.7285,-3.7045,-3.6661,-3.6661,-3.6661,-3.6742,-3.6742,-3.6339,-3.6287,-3.6675,-3.6717,-3.6867,-3.7374,-3.741,-3.7383,-3.7436,-3.7401,-3.7356,-3.739,-3.809,-3.8425,-3.7994,-3.7996,-3.8032,-3.7986,-3.797,-3.7816,-3.7445,-3.8222,-3.9023,-3.9932,-4.0189,-4.0824,-4.1658,-4.1723,-4.1296,-2.0249,-2.143,-2.2431,-2.2036,-2.2898,-2.3358,-2.135,0.0,0.0,0.0,-1.8685,-1.7769,-1.756,-1.7373,-1.7235,-1.7397,0.0,0.0,0.0,0.0,0.0,0.0,0.0,0.0,0.0,0.0,0.0,0.0,0.0,0.0,-3.1954,-3.1853,-3.222,-3.326,-3.3587,-3.3981,-3.4676,-3.5573,-3.6344,-3.7039,-3.7123,-3.7329,-3.7642,-3.7181,-3.6902,-3.6677,-3.7308,-3.6599,-3.5299,-3.8294,-3.8654,-3.7571,-3.9889,-4.088,-4.0977,-4.0859,-4.0937,-4.1074,-4.053,-4.0316,-4.0197,-3.9823,-3.943,-3.9114,-3.9114,-3.8877,-3.856,-3.856,-3.8243,-3.7765,-3.7605,-3.7365,-3.7285,-3.7685,-3.7205,-3.6822,-3.7285,-3.6804,-3.6258,-3.6258,-3.6258,-3.6483,-3.7045,-3.7045,-3.7188,-3.7932,-3.7729,-3.7765,-3.8145,-3.7986,-3.7924,-3.8181,-3.8475,-3.8547,-3.8257,-3.8447,-3.8635,-3.879,-3.9149,-3.9116,-3.8824,-3.8884,-3.8998,-3.9114,-3.9062,-3.9357,-3.9906,-4.0603,-4.1346,-4.2153,-4.1611,-4.1147,0.0,-2.0994,-2.1838,-2.1292,-2.2262,0.0,0.0,0.0,0.0,0.0,0.0,0.0,0.0,0.0,0.0,0.0,0.0,0.0,0.0,0.0,0.0,0.0,0.0,0.0,0.0,0.0,0.0,0.0,0.0,0.0,-3.2611,-3.2167,-3.2432,-3.3469,-3.3798,-3.4264,-3.4978,-3.5933,-3.6872,-3.7605,-3.7655,-3.7715,-3.7789,-3.7495,-3.7158,-3.6802,-3.7655,-3.7047,0.0,-3.8487,-3.8906,-3.7988,-4.0098,-4.1035,-4.1152,-4.0822,-4.0783,-4.0899,-4.0414,-4.0141,-4.004,-4.0137,-3.9745,-3.9272,-3.9272,-3.8956,-3.856,-3.856,-3.8322,-3.796,-3.7944,-3.7792,-3.7721,-3.7864,-3.7552,-3.7285,-3.7605,-3.7045,-3.6563,-3.6563,-3.6563,-3.6724,-3.7285,-3.7445,-3.7605,-3.8243,-3.8163,-3.8163,-3.856,-3.8402,-3.8322,-3.856,-3.8853,-3.889,-3.8615,-3.9022,-3.9353,-3.9431,-3.9894,-3.9844,-3.9208,-3.9398,-3.9588,-3.9666,-3.9603,-3.9865,-4.0636,-4.1228,-4.1796,-4.2151,-4.1267,-4.0775,0.0,0.0,0.0,0.0,0.0,0.0,0.0,0.0,0.0,0.0,0.0,0.0,0.0,0.0,0.0,0.0,0.0,0.0,0.0,0.0,0.0,0.0,0.0,0.0,0.0,0.0,0.0,0.0,0.0,0.0,-3.2665,-3.2032,-3.2347,-3.3729,-3.3887,-3.4268,-3.5062,-3.6209,-3.7204,-3.7932,-3.7916,-3.7751,-3.7326,-3.7383,-3.684,0.0,-3.7295,-3.7028,-3.5789,-3.8136,-3.8906,-3.8711,-4.0019,-4.0781,-4.1035,-4.0241,-4.0182,-4.0374,-4.0067,-3.9658,-3.943,-4.0197,-3.9943,-3.9314,-3.9333,-3.8956,-3.864,-3.864,-3.8322,-3.8014,-3.8006,-3.8052,-3.8014,-3.8024,-3.8052,-3.8004,-3.8004,-3.7685,-3.7445,-3.7445,-3.7445,-3.7445,-3.7445,-3.7445,-3.7605,-3.8004,-3.8004,-3.8163,-3.856,-3.856,-3.856,-3.856,-3.864,-3.8645,-3.8619,-3.9763,-4.0224,-3.9857,-4.0264,-4.0146,-3.9325,-3.9655,-3.9745,-3.9449,-3.9801,-4.0537,-4.1827,-4.2173,-4.215,-4.1834,-4.0987,-4.0328,-2.0006,0.0,-2.1703,-2.1083,0.0,0.0,0.0,0.0,0.0,0.0,0.0,0.0,0.0,0.0,0.0,0.0,0.0,0.0,0.0,0.0,0.0,0.0,0.0,0.0,0.0,0.0,0.0,0.0,0.0,-3.1996,-3.3444,-3.2843,-3.2844,-3.3747,-3.4141,-3.4845,-3.5939,-3.6818,-3.7204,-3.7118,-3.741,-3.7153,-3.6474,-3.7118,-3.7381,-3.7391,-3.7148,-3.6939,-3.693,-3.7819,-3.8359,-3.8711,-4.0019,-4.055,-4.0666,-4.0394,-4.0198,-4.004,-3.9945,-3.9669,-3.9351,-3.949,-3.9675,-3.9796,-3.9729,-3.9193,-3.864,-3.9035,-3.8798,-3.8493,-3.8813,-3.8693,-3.8591,-3.9314,-3.8693,-3.8084,-3.8402,-3.7924,-3.7445,-3.7445,-3.7445,-3.7525,-3.7845,-3.7845,-3.8004,-3.8402,-3.8481,-3.8481,-3.856,-3.856,-3.856,-3.856,-3.9231,-3.9467,-3.9119,-3.9369,-3.9502,-3.9362,-4.0048,-4.0424,-4.0216,-4.0028,-4.0135,-4.0759,-4.047,-4.083,-4.1846,-4.1872,-4.2073,-4.2283,-4.143,-4.0762,-1.9598,-2.0593,-2.1571,-2.1377,-2.1479,-2.1486,0.0,0.0,0.0,0.0,0.0,0.0,0.0,0.0,0.0,0.0,0.0,0.0,0.0,0.0,0.0,0.0,0.0,0.0,0.0,0.0,0.0,0.0,0.0,-3.2462,-3.3454,-3.332,-3.3445,-3.3765,-3.4403,-3.495,-3.5349,-3.6402,-3.6809,-3.6812,-3.7047,-3.6882,-3.6522,-3.7286,-3.7715,-3.7658,-3.7157,-3.7307,-3.7871,-3.7695,-3.8125,-3.8945,-3.9883,-4.0335,-4.0492,-4.051,-4.0353,-4.0137,-3.9981,-3.9769,-3.9559,-3.961,-3.9696,-3.9971,-4.0082,-3.9745,-3.9272,-3.9509,-3.9351,-3.9244,-3.9436,-3.924,-3.9025,-3.9472,-3.8919,-3.8402,-3.8798,-3.856,-3.8225,-3.8225,-3.8304,-3.8304,-3.8243,-3.8243,-3.8322,-3.856,-3.878,-3.8919,-3.8901,-3.8896,-3.9012,-3.9193,-3.9449,-3.9528,-3.9333,-3.9589,-3.9738,-3.9528,-4.0311,-4.0527,-3.9978,-4.0094,-4.0371,-4.0894,-4.1012,-4.143,-4.2068,-4.229,-4.2255,-4.1926,-4.124,-4.0607,-1.9519,-2.0087,-2.0822,-2.1419,-2.1252,-2.0831,0.0,0.0,0.0,0.0,0.0,0.0,0.0,0.0,0.0,0.0,0.0,0.0,0.0,0.0,0.0,0.0,0.0,0.0,0.0,0.0,0.0,0.0,0.0,-3.2888,-3.3371,-3.3739,-3.3957,-3.3817,-3.4622,-3.4852,-3.4396,-3.5632,-3.6386,-3.6552,-3.6756,-3.6811,-3.6626,-3.7511,-3.7789,-3.7511,0.0,0.0,-3.8661,-3.7649,-3.8132,-3.9386,-3.9645,-4.0039,-4.049,-4.0453,-4.0335,-4.0257,-3.9964,-3.9853,-3.9875,-4.0063,-4.0124,-4.0182,-4.0666,-4.0509,-4.0216,-4.0216,-4.0059,-3.9915,-3.9943,-3.9671,-3.9379,-3.9412,-3.9109,-3.8896,-3.9347,-3.9467,-3.937,-3.9426,-3.937,-3.9235,-3.8798,-3.8719,-3.8719,-3.8816,-3.9096,-3.9295,-3.9258,-3.9389,-3.9524,-3.9745,-3.9647,-3.949,-3.9467,-4.0132,-4.0388,-4.0075,-4.0712,-4.0572,-3.9467,-4.0099,-4.0371,-4.0183,-4.1155,-4.1829,-4.2188,-4.2652,-4.2321,-4.1303,-4.0792,-4.0353,-1.9202,-1.9454,-1.9945,-2.1588,-2.1504,-2.0787,0.0,0.0,0.0,0.0,0.0,0.0,0.0,0.0,0.0,0.0,0.0,0.0,0.0,0.0,0.0,0.0,0.0,0.0,0.0,0.0,0.0,0.0,0.0,-3.3358,-3.419,-3.4287,-3.415,-3.3817,-3.4831,-3.5056,-3.4424,-3.5933,-3.6249,-3.5264,-3.6623,-3.6732,-3.5787,-3.6934,-3.7642,-3.7897,0.0,-3.7631,-3.9004,-3.7757,-3.8374,-4.0138,-3.9473,-3.9716,-4.0451,-4.0125,-3.9759,-3.9468,-3.9391,-3.9568,-3.9946,-4.0666,-4.0912,-4.1078,-4.1899,-4.185,-4.154,-4.154,-4.0763,-4.0016,-4.033,-4.0103,-3.9858,-4.0189,-4.0005,-3.9839,-4.0258,-4.0069,-3.9839,-3.9781,-3.9813,-3.9666,-3.9272,-3.9193,-3.9291,-3.9663,-3.943,-3.9272,-3.9286,-3.9588,-3.9669,-3.9393,-3.9943,-4.033,-4.0296,-4.0445,-4.0642,-4.095,-4.1031,-4.0738,-3.982,-4.0227,-4.0009,-3.8951,-4.0098,-4.0959,-4.1421,-4.1767,-4.1861,-4.1665,-4.1227,-4.0771,-1.8826,-1.8977,-1.9373,-2.0733,-2.093,-2.0671,0.0,0.0,0.0,0.0,0.0,0.0,0.0,0.0,0.0,0.0,0.0,0.0,0.0,0.0,0.0,0.0,0.0,0.0,0.0,0.0,0.0,0.0,0.0,0.0,-3.4646,-3.4896,-3.4882,-3.4389,-3.4884,-3.5231,-3.5229,-3.6451,-3.6636,-3.5971,-3.6734,-3.6974,-3.6907,-3.7451,-3.7862,-3.797,0.0,-3.7864,-3.9096,-3.8026,-3.8536,-4.0016,-3.9858,-3.9943,-4.0089,-4.0197,-4.0414,-4.0628,-4.0627,-4.0569,-4.0625,-4.1557,-4.1622,-4.1525,-4.1959,-4.1927,-4.1773,-4.156,-4.1094,-4.0644,-4.081,-4.0521,-4.0233,-4.0193,-4.0047,-3.9937,-4.0132,-4.042,-4.0562,-4.0575,-4.074,-4.0693,-4.0056,-3.9943,-3.9962,-3.9915,-3.994,-3.9983,-3.9962,-4.0099,-4.0237,-4.0353,-4.0431,-4.0508,-4.0464,-4.1084,-4.1298,-4.083,-4.0602,-4.0411,-4.0256,-3.9978,-3.9757,-3.9673,-4.0466,-4.11,-4.1531,-4.1916,-4.1872,-4.1398,-4.1227,-4.0905,-1.8522,-1.869,-1.9017,0.0,0.0,0.0,0.0,0.0,0.0,0.0,0.0,0.0,0.0,0.0,0.0,0.0,0.0,0.0,0.0,0.0,0.0,0.0,0.0,0.0,0.0,0.0,0.0,0.0,0.0,0.0,-3.5142,-3.5538,-3.5487,-3.5078,-3.5127,-3.5456,-3.6136,-3.6779,-3.6942,-3.6679,-3.7147,-3.7594,-3.7982,-3.8273,-3.835,-3.8409,-3.7962,-3.8418,-3.9405,-3.8556,-3.8888,-3.995,-3.9976,-3.9911,-3.988,-4.0187,-4.1028,-4.1872,-4.1455,-4.1264,-4.1346,-4.2019,-4.2064,-4.1862,-4.2019,-4.2005,-4.185,-4.1483,-4.125,-4.1172,-4.1169,-4.0917,-4.0625,-4.0273,-4.0281,-4.0363,-4.0476,-4.1043,-4.1481,-4.1395,-4.1718,-4.173,-4.0933,-4.0721,-4.0566,-4.0385,-4.043,-4.0491,-4.053,-4.0608,-4.0763,-4.0997,-4.0841,-4.0723,-4.0761,-4.1769,-4.2017,-4.1014,-4.0655,-4.0487,-4.0374,-3.9861,-3.9813,-4.0375,-4.0728,-4.1196,-4.1802,-4.2025,-4.1819,-4.1409,-4.1196,-4.0989,-1.8402,-1.8701,-1.8935,-1.9052,0.0,0.0,0.0,0.0,0.0,0.0,0.0,0.0,0.0,0.0,0.0,0.0,0.0,0.0,0.0,0.0,0.0,0.0,0.0,0.0,0.0,0.0,0.0,0.0,0.0,0.0,-3.5958,-3.6035,-3.5862,-3.5489,-3.5743,-3.6162,-3.6571,-3.666,-3.6666,-3.6668,-3.8397,-3.8778,-3.7969,-3.8969,-3.9546,-3.957,-3.9241,-3.9478,-4.0126,-3.9374,-3.9719,-4.0698,-3.9189,-3.9135,-3.986,-3.9873,-4.09,-4.2099,-4.0539,-4.0686,-4.1654,-4.1715,-4.1973,-4.2337,-4.2805,-4.2621,-4.2293,-4.185,-4.1483,-4.1191,-4.1211,-4.1191,-4.1113,-4.1127,-4.1363,-4.1734,-4.2183,-4.2333,-4.232,-4.2399,-4.2392,-4.2242,-4.1802,-4.1391,-4.1243,-4.1621,-4.0996,-4.049,-4.0472,-4.0861,-4.1016,-4.0588,-4.0919,-4.1289,-4.1717,-4.2166,-4.2353,-4.2239,-4.2272,-4.1515,-3.9997,-4.0273,-4.024,-3.993,-3.9968,-4.0629,-4.1817,-4.1407,-4.1585,-4.226,-4.1474,-4.1304,-1.8119,-1.8364,-1.8542,-1.8892,0.0,0.0,0.0,0.0,0.0,0.0,0.0,0.0,0.0,0.0,0.0,0.0,0.0,0.0,0.0,0.0,0.0,0.0,0.0,0.0,0.0,0.0,0.0,0.0,0.0,0.0,-3.668,-3.6504,-3.6307,-3.6132,-3.6268,-3.6689,-3.7242,-3.7072,-3.7083,-3.7272,-3.8335,-3.9048,-3.9616,-3.9636,-3.9739,-4.0022,-3.9662,-3.9806,-4.031,-3.9983,-4.0218,-4.079,-3.9677,-3.9665,-4.0176,-3.9633,-4.0524,-4.1827,-4.0938,-4.1218,-4.2039,-4.2144,-4.2281,-4.2398,-4.256,-4.239,-4.2005,-4.185,-4.1463,-4.1172,-4.1172,-4.1172,-4.1191,-4.1206,-4.1481,-4.1872,-4.1996,-4.2709,-4.3155,-4.2886,-4.332,-4.345,-4.2728,-4.2453,-4.2225,-4.1836,-4.1523,-4.1094,-4.0567,-4.0938,-4.1016,-4.0588,-4.1152,-4.1758,-4.2127,-4.2617,-4.2731,-4.2388,-4.1694,-4.1069,-4.0747,-4.0842,-4.0876,-4.0745,-4.0979,-4.1322,-4.1797,-4.1337,-4.1445,-4.1991,-4.1625,-4.1571,-1.7728,-1.8016,-1.8353,0.0,0.0,0.0,0.0,0.0,0.0,0.0,0.0,0.0,0.0,0.0,0.0,0.0,0.0,0.0,0.0,0.0,0.0,0.0,0.0,0.0,0.0,0.0,0.0,0.0,0.0,0.0,-3.7117,-3.7034,-3.6926,-3.6876,-3.6809,-3.7225,-3.8081,-3.7569,-3.7637,-3.8288,-3.845,-3.8971,-3.9765,-3.963,-3.9818,-4.0248,-4.0033,-4.0166,-4.0689,-4.0382,-4.0382,-4.0504,-4.0218,-4.0213,-4.0305,-3.9764,-4.0512,-4.1792,-4.1122,-4.1404,-4.2119,-4.2048,-4.2116,-4.2216,-4.2216,-4.2005,-4.1773,-4.1618,-4.1483,-4.1425,-4.1562,-4.1601,-4.1641,-4.1558,-4.209,-4.2623,-4.2616,-4.3347,-4.3894,-4.3735,-4.3939,-4.4087,-4.3729,-4.3467,-4.3173,-4.2645,-4.2425,-4.1971,-4.1386,-4.1367,-4.1289,-4.1172,-4.1855,-4.2464,-4.2758,-4.3016,-4.3033,-4.2832,-4.1757,-4.117,-4.1196,-4.143,-4.1641,-4.1585,-4.1747,-4.195,-4.2244,-4.1711,-4.1667,-4.201,-4.1808,-4.1737,-1.7193,-1.7788,0.0,0.0,0.0,0.0,0.0,0.0,0.0,0.0,0.0,0.0,0.0,0.0,0.0,0.0,0.0,0.0,0.0,0.0,0.0,0.0,0.0,0.0,0.0,0.0,0.0,0.0,0.0,-3.7537,-3.7213,-3.7537,-3.7657,-3.7569,-3.728,-3.7725,-3.8963,-3.817,-3.8377,-3.9468,-3.8993,-3.8425,-3.7831,-3.9014,-3.9765,-4.0191,-4.0269,-4.076,-4.1402,-4.0617,-4.0094,-3.9786,-4.0576,-4.072,-4.0411,-4.0315,-4.115,-4.2124,-4.0834,-4.0973,-4.1666,-4.1251,-4.1416,-4.1773,-4.185,-4.185,-4.1695,-4.1327,-4.1483,-4.1892,-4.2406,-4.2525,-4.2467,-4.2424,-4.3398,-4.4402,-4.4435,-4.437,-4.4534,-4.4882,-4.4288,-4.3958,-4.4882,-4.4288,-4.3856,-4.433,-4.3696,-4.3099,-4.3074,-4.2304,-4.1951,-4.2466,-4.32,-4.3696,-4.3716,-4.3319,-4.3277,-4.3652,-4.3001,-4.2132,-4.1243,-4.2071,-4.2534,-4.2534,-4.2029,-4.2253,-4.3086,-4.2637,-4.2414,-4.2433,-4.1941,-4.1737,-1.7252,0.0,0.0,0.0,0.0,0.0,0.0,0.0,0.0,0.0,0.0,0.0,0.0,0.0,0.0,0.0,0.0,0.0,0.0,0.0,0.0,0.0,0.0,0.0,0.0,0.0,0.0,0.0,0.0,-3.728,-3.7164,-3.7483,-3.7402,-3.6856,-3.7011,-3.7292,-3.7757,-3.716,-3.7345,-3.8199,-3.7821,-3.8186,-3.926,-3.9385,-3.9887,-4.057,-4.0365,-4.0684,-4.1473,-4.1259,-4.0882,-4.0504,-4.0525,-4.0248,-3.9895,-4.0196,-4.0791,-4.1355,-4.1305,-4.1658,-4.2124,-4.2068,-4.2116,-4.2293,-4.2544,-4.2467,-4.2296,-4.2383,-4.2619,-4.2639,-4.2466,-4.3318,-4.4099,-4.3478,-4.3859,-4.4402,-4.4435,-4.4616,-4.4882,-4.4964,-4.4534,-4.439,-4.4942,-4.4514,-4.4271,-4.4353,-4.42,-4.3817,-4.3134,-4.2361,-4.2086,-4.2837,-4.3399,-4.384,-4.416,-4.4381,-4.438,-4.4239,-4.424,-4.3757,-4.2553,-4.3092,-4.3229,-4.2923,-4.2787,-4.2868,-4.3086,-4.2637,-4.2576,-4.2923,-4.2414,-4.215,-1.7153,0.0,0.0,0.0,0.0,0.0,0.0,0.0,0.0,0.0,0.0,0.0,0.0,0.0,0.0,0.0,0.0,0.0,0.0,0.0,0.0,0.0,0.0,0.0,0.0,0.0,0.0,0.0,-3.7205,-3.738,-3.7301,-3.7616,-3.7616,-3.7213,-3.7415,-3.757,-3.7625,-3.7481,-3.7597,-3.7928,-3.8004,-3.8528,-3.9456,-3.9223,-3.9657,-4.0507,-4.0905,-4.1453,-4.2159,-4.2441,-4.2089,-4.1381,-4.1381,-4.0954,-4.0218,-4.0811,-4.1069,-4.1235,-4.1448,-4.185,-4.2254,-4.2084,-4.2348,-4.2642,-4.2663,-4.283,-4.2924,-4.3051,-4.321,-4.3329,-4.3197,-4.3931,-4.4553,-4.388,-4.4321,-4.4845,-4.4658,-4.468,-4.4783,-4.4965,-4.4536,-4.4291,-4.4922,-4.4636,-4.4494,-4.4905,-4.4745,-4.4256,-4.3224,-4.2712,-4.2812,-4.3511,-4.3956,-4.438,-4.4846,-4.4967,-4.4886,-4.4643,-4.4886,-4.4642,-4.3912,-4.4055,-4.4055,-4.383,-4.3667,-4.3647,-4.3647,-4.3148,-4.2903,-4.2848,-4.2765,-4.2404,0.0,0.0,0.0,0.0,0.0,0.0,0.0,0.0,0.0,0.0,0.0,0.0,0.0,0.0,0.0,0.0,0.0,0.0,0.0,0.0,0.0,0.0,0.0,0.0,0.0,0.0,0.0,-3.7595,-3.7657,-3.7657,-3.7549,-3.7971,-3.8191,-3.8104,-3.8125,-3.8156,-3.8235,-3.8568,-3.8635,-3.8303,-3.902,-3.9189,-3.8832,-3.8807,-3.9312,-4.0183,-4.1766,-4.2704,-4.3123,-4.3883,-4.335,-4.2159,-4.2791,-4.2159,-4.1096,-4.1806,-4.1848,-4.1599,-4.1637,-4.1876,-4.2146,-4.1924,-4.2336,-4.2932,-4.2597,-4.3096,-4.3673,-4.3268,-4.3444,-4.3857,-4.4208,-4.4338,-4.423,-4.3873,-4.4744,-4.5617,-4.5127,-4.4723,-4.4582,-4.4966,-4.4355,-4.409,-4.4924,-4.4736,-4.4798,-4.5575,-4.5219,-4.4514,-4.3265,-4.3392,-4.38,-4.4389,-4.4818,-4.5167,-4.5759,-4.5391,-4.5148,-4.5107,-4.5129,-4.5088,-4.5107,-4.5046,-4.5046,-4.4964,-4.4616,-4.437,-4.437,-4.3876,-4.3297,-4.2569,-4.2902,-4.2485,0.0,0.0,0.0,0.0,0.0,0.0,0.0,0.0,0.0,0.0,0.0,0.0,0.0,0.0,0.0,0.0,0.0,0.0,0.0,0.0,0.0,0.0,0.0,0.0,0.0,0.0,0.0,-3.7636,-3.7942,-3.7868,-3.7233,-3.7837,-3.7904,-3.7348,-3.7549,-3.7693,-3.7559,-3.8063,-3.8395,-3.8479,-3.8726,-3.9108,-3.9629,-3.9287,-3.9435,-4.0078,-4.2029,-4.2835,-4.2595,-4.3127,-4.3141,-4.2791,-4.237,-4.2018,-4.1806,-4.23,-4.2465,-4.247,-4.2805,-4.2988,-4.3191,-4.3488,-4.369,-4.3837,-4.3799,-4.3898,-4.3975,-4.3653,-4.3833,-4.4086,-4.3878,-4.4338,-4.4716,-4.4317,-4.493,-4.5569,-4.5109,-4.5189,-4.5311,-4.5025,-4.488,-4.49,-4.5434,-4.5473,-4.5494,-4.5699,-4.5009,-4.4324,-4.4081,-4.3772,-4.3916,-4.4762,-4.4927,-4.5319,-4.6123,-4.6082,-4.6001,-4.6023,-4.6001,-4.6001,-4.6023,-4.5698,-4.5209,-4.4534,-4.4452,-4.4205,-4.3876,-4.3793,-4.3628,-4.338,-4.3234,-4.2985,0.0,0.0,0.0,0.0,0.0,0.0,0.0,0.0,0.0,0.0,0.0,0.0,0.0,0.0,0.0,0.0,0.0,0.0,0.0,0.0,0.0,0.0,0.0,0.0,0.0,0.0,-3.8562,-3.8473,-3.8357,-3.8208,-3.7963,-3.8094,-3.8037,-3.7636,-3.795,-3.8046,-3.7819,-3.8378,-3.8642,-3.8587,-3.8972,-3.9597,-4.0401,-4.0425,-4.0621,-4.1125,-4.265,-4.339,-4.3527,-4.3678,-4.3551,-4.3376,-4.2996,-4.2499,-4.2124,-4.2667,-4.2824,-4.2685,-4.2864,-4.3135,-4.335,-4.3636,-4.4031,-4.4332,-4.4209,-4.4428,-4.4697,-4.4081,-4.4107,-4.4226,-4.4009,-4.4164,-4.4339,-4.4303,-4.4848,-4.5227,-4.4765,-4.5025,-4.5227,-4.476,-4.4842,-4.5067,-4.5312,-4.5372,-4.5352,-4.5374,-4.4954,-4.4512,-4.4303,-4.4091,-4.4215,-4.4919,-4.5002,-4.5354,-4.6264,-4.6266,-4.6266,-4.6266,-4.6266,-4.6266,-4.6266,-4.6104,-4.5779,-4.5352,-4.4862,-4.4554,-4.4288,-4.3876,-4.3463,-4.3048,-4.3068,-4.2735,0.0,0.0,0.0,0.0,0.0,0.0,0.0,0.0,0.0,0.0,0.0,0.0,0.0,0.0,0.0,0.0,0.0,0.0,0.0,0.0,0.0,0.0,0.0,0.0,0.0,0.0,-3.8719,-3.9357,-3.8808,-3.8623,-3.873,-3.8378,-3.8191,-3.8191,-3.8503,-3.8528,-3.8266,-3.8859,-3.9101,-3.8885,-3.9517,-4.017,-4.0825,-4.1416,-4.1835,-4.2236,-4.3106,-4.3871,-4.439,-4.4228,-4.401,-4.3665,-4.3713,-4.31,-4.2356,-4.3057,-4.3045,-4.2721,-4.2716,-4.2926,-4.3224,-4.3443,-4.4026,-4.4547,-4.4304,-4.473,-4.5193,-4.4426,-4.4179,-4.4164,-4.4215,-4.3905,-4.3698,-4.4091,-4.4506,-4.4683,-4.4442,-4.476,-4.4938,-4.4496,-4.4764,-4.5088,-4.5148,-4.5089,-4.5109,-4.4995,-4.498,-4.4898,-4.4448,-4.4422,-4.4588,-4.5064,-4.5105,-4.5457,-4.6204,-4.6266,-4.6266,-4.6266,-4.6266,-4.6266,-4.6266,-4.6266,-4.6266,-4.6266,-4.5454,-4.4964,-4.48,-4.4041,-4.3297,-4.2652,-4.2985,-4.2485,0.0,0.0,0.0,0.0,0.0,0.0,0.0,0.0,0.0,0.0,0.0,0.0,0.0,0.0,0.0,0.0,0.0,0.0,0.0,0.0,0.0,0.0,0.0,0.0,0.0,0.0,-3.9212,-3.8866,-3.9155,-3.917,-3.8741,-3.8412,-3.8191,-3.8191,-3.8258,-3.8315,-3.8484,-3.8953,-3.928,-3.9517,-3.9996,-4.0127,-3.993,-4.1001,-4.1639,-4.1878,-4.3142,-4.3319,-4.2757,-4.3451,-4.3533,-4.325,-4.3687,-4.3525,-4.3132,-4.3617,-4.3503,-4.3093,-4.3115,-4.3184,-4.3359,-4.4163,-4.4496,-4.4612,-4.4667,-4.4805,-4.476,-4.3926,-4.3718,-4.3718,-4.3718,-4.3656,-4.3635,-4.3698,-4.3745,-4.3952,-4.4361,-4.5064,-4.5327,-4.4541,-4.5048,-4.5653,-4.5632,-4.5631,-4.5492,-4.5076,-4.4975,-4.5,-4.4882,-4.4898,-4.5084,-4.554,-4.5581,-4.5788,-4.6225,-4.6266,-4.6266,-4.6266,-4.6266,-4.6266,-4.6266,-4.6266,-4.6266,-4.6266,-4.5454,-4.4636,-4.3876,-4.3793,-4.3628,-4.3546,-4.3234,-4.2985,0.0,0.0,0.0,0.0,0.0,0.0,0.0,0.0,0.0,0.0,0.0,0.0,0.0,0.0,0.0,0.0,0.0,0.0,0.0,0.0,0.0,0.0,0.0,0.0,0.0,0.0,-3.949,-3.9479,-3.9265,-3.9182,-3.9368,-3.8649,-3.8304,-3.8503,-3.8503,-3.8597,-3.8912,-3.9256,-3.9649,-3.9952,-3.9975,-4.0149,-4.0431,-4.0957,-4.1529,-4.2102,-4.2716,-4.3184,-4.3479,-4.3193,-4.3224,-4.3512,-4.3569,-4.3468,-4.3311,-4.3543,-4.346,-4.3254,-4.3184,-4.3184,-4.3272,-4.4003,-4.4386,-4.4597,-4.4496,-4.456,-4.4642,-4.3843,-4.3615,-4.3615,-4.3615,-4.3615,-4.3615,-4.3615,-4.3615,-4.3654,-4.3597,-4.4462,-4.5352,-4.5413,-4.5593,-4.5729,-4.5678,-4.5281,-4.5021,-4.535,-4.516,-4.5123,-4.5316,-4.5374,-4.5457,-4.5664,-4.5685,-4.5871,-4.6225,-4.6266,-4.6266,-4.6266,-4.6266,-4.6266,-4.6266,-4.6266,-4.6185,-4.5942,-4.5291,-4.48,-4.4452,-4.3958,-4.3463,-4.2965,-4.2818,-4.2485,0.0,0.0,0.0,0.0,0.0,0.0,0.0,0.0,0.0,0.0,0.0,0.0,0.0,0.0,0.0,0.0,0.0,0.0,0.0,0.0,0.0,0.0,0.0,0.0,0.0,0.0,-3.9546,-3.9846,-3.9318,-3.9197,-3.983,-3.8891,-3.8437,-3.8681,-3.8681,-3.8814,-3.9078,-3.9494,-3.9888,-4.0279,-4.0084,-4.0279,-4.0825,-4.0891,-4.1353,-4.2104,-4.2163,-4.2782,-4.3589,-4.2757,-4.2808,-4.336,-4.342,-4.3404,-4.3372,-4.354,-4.3517,-4.335,-4.3232,-4.3184,-4.3298,-4.3727,-4.4195,-4.4525,-4.4187,-4.4432,-4.4664,-4.3864,-4.3615,-4.3615,-4.3615,-4.3615,-4.3635,-4.376,-4.3601,-4.3433,-4.3369,-4.4119,-4.5088,-4.5982,-4.5998,-4.5788,-4.5561,-4.5075,-4.4834,-4.5398,-4.5363,-4.5285,-4.5685,-4.5788,-4.5809,-4.5705,-4.5788,-4.5975,-4.6225,-4.6266,-4.6266,-4.6266,-4.6266,-4.6266,-4.6266,-4.6185,-4.6023,-4.5719,-4.5127,-4.48,-4.4636,-4.3876,-4.3131,-4.2402,-4.2402,-4.2068,0.0,0.0,0.0,0.0,0.0,0.0,0.0,0.0,0.0,0.0,0.0,0.0,0.0,0.0,0.0,0.0,0.0,0.0,0.0,0.0,0.0,0.0,0.0,0.0,0.0,0.0,-3.934,-3.925,-3.9344,-3.9453,-3.969,-3.9033,-3.8681,-3.8681,-3.8681,-3.8681,-3.8747,-3.9363,-3.9888,-4.0279,-4.0582,-4.0604,-4.0388,-4.0691,-4.1086,-4.1573,-4.1659,-4.1869,-4.2003,-4.1934,-4.1984,-4.2244,-4.3441,-4.3593,-4.3264,-4.4171,-4.4129,-4.3611,-4.3328,-4.3184,-4.325,-4.3757,-4.4189,-4.4547,-4.4218,-4.4465,-4.4654,-4.3843,-4.3615,-4.3615,-4.3615,-4.3615,-4.3718,-4.4174,-4.3613,-4.3224,-4.4091,-4.434,-4.4724,-4.5576,-4.6023,-4.6037,-4.5188,-4.5374,-4.5498,-4.5084,-4.5395,-4.5685,-4.5685,-4.6057,-4.614,-4.5726,-4.6057,-4.6246,-4.6266,-4.6266,-4.6266,-4.6266,-4.6266,-4.6266,-4.6266,-4.5942,-4.5719,-4.5719,-4.4862,-4.4205,-4.3793,-4.3297,-4.2902,-4.2402,-4.2402,-4.2402,0.0,0.0,0.0,0.0,0.0,0.0,0.0,0.0,0.0,0.0,0.0,0.0,0.0,0.0,0.0,0.0,0.0,0.0,0.0,0.0,0.0,0.0,0.0,0.0,0.0,0.0,-3.8811,-3.8458,-3.8549,-3.8811,-3.9261,-3.8929,-3.888,-3.9341,-3.9144,-3.9012,-3.9012,-3.9276,-3.9691,-4.0279,-3.9931,-4.0192,-4.0928,-4.0582,-4.0692,-4.1042,-4.0892,-4.1483,-4.2562,-4.2308,-4.2423,-4.2867,-4.3938,-4.3834,-4.3342,-4.3964,-4.3889,-4.3397,-4.3232,-4.339,-4.3617,-4.3473,-4.3947,-4.4463,-4.3853,-4.3997,-4.4247,-4.3725,-4.3615,-4.3539,-4.331,-4.3386,-4.3739,-4.422,-4.4132,-4.4004,-4.4618,-4.5002,-4.5308,-4.5637,-4.5818,-4.5726,-4.5105,-4.5126,-4.5188,-4.5022,-4.5395,-4.5685,-4.5685,-4.6078,-4.6182,-4.5726,-4.6078,-4.6266,-4.6266,-4.6266,-4.6266,-4.6266,-4.6266,-4.6266,-4.6266,-4.5942,-4.5719,-4.5719,-4.4862,-4.4288,-4.4123,-4.3711,-4.3297,-4.2818,-4.2818,-4.2652,0.0,0.0,0.0,0.0,0.0,0.0,0.0,0.0,0.0,0.0,0.0,0.0,0.0,0.0,0.0,0.0,0.0,0.0,0.0,0.0,0.0,0.0,0.0,0.0,0.0,0.0,-3.8819,-3.8567,-3.8645,0.0,-3.9433,-3.9042,-3.8912,-3.9218,-3.9042,-3.9106,-3.9302,-3.9343,-3.9691,-4.0279,-3.9931,-4.0192,-4.0928,-4.0582,-4.0517,-4.0669,-4.0563,-4.1287,-4.2501,-4.2136,-4.234,-4.31,-4.3998,-4.3856,-4.3268,-4.3789,-4.3753,-4.3416,-4.3289,-4.3543,-4.3893,-4.3723,-4.407,-4.4509,-4.384,-4.3855,-4.4,-4.3649,-4.3615,-4.3539,-4.3233,-4.3536,-4.3942,-4.4198,-4.4532,-4.4902,-4.4986,-4.5207,-4.5509,-4.5718,-4.5797,-4.5768,-4.5312,-4.5229,-4.5229,-4.5229,-4.5498,-4.5685,-4.5685,-4.6078,-4.6182,-4.5726,-4.6078,-4.6266,-4.6266,-4.6266,-4.6266,-4.6266,-4.6266,-4.6266,-4.6104,-4.5698,-4.5372,-4.5291,-4.4534,-4.4205,-4.4205,-4.3711,-4.3297,-4.2902,-4.2902,-4.2895,0.0,0.0,0.0,0.0,0.0,0.0,0.0,0.0,0.0,0.0,0.0,0.0,0.0,0.0,0.0,0.0,0.0,0.0,0.0,0.0,0.0,0.0,0.0,0.0,0.0,-3.921,-3.9341,-3.9648,-3.967,-3.9844,-4.0214,-3.9455,-3.8808,-3.8334,-3.8445,-3.8895,-3.9622,-3.965,-3.9888,-4.0279,-4.0647,-4.0582,-4.0344,-4.0647,-4.0582,-4.0366,-4.0804,-4.1262,-4.1699,-4.1294,-4.1719,-4.2738,-4.3688,-4.3636,-4.3224,-4.3781,-4.3856,-4.3672,-4.3382,-4.3573,-4.3981,-4.4414,-4.456,-4.4509,-4.4213,-4.4098,-4.3987,-4.367,-4.3615,-4.3615,-4.3615,-4.3968,-4.4272,-4.4295,-4.5026,-4.5596,-4.519,-4.5028,-4.5169,-4.5637,-4.6023,-4.6202,-4.5768,-4.5705,-4.5705,-4.5685,-4.5705,-4.5705,-4.5685,-4.6078,-4.6182,-4.5726,-4.6078,-4.6266,-4.6266,-4.6266,-4.6266,-4.6266,-4.6266,-4.6104,-4.5719,-4.5209,-4.48,-4.437,-4.3958,-4.3711,-4.3711,-4.3297,-4.2902,-4.2402,-4.2421,-4.29,-2.6903,0.0,0.0,0.0,0.0,0.0,0.0,0.0,0.0,0.0,0.0,0.0,0.0,0.0,0.0,0.0,0.0,0.0,0.0,0.0,0.0,0.0,0.0,0.0,0.0,-3.9018,-3.8933,0.0,-3.8637,-3.8659,-3.8352,-3.8651,-3.8906,-3.9004,-3.9211,-3.9345,-3.9558,-3.965,-3.9888,-4.0279,-4.0084,-4.0344,-4.0993,-4.0604,-4.0713,-4.1191,-4.1023,-4.1435,-4.2182,-4.2406,-4.2732,-4.3136,-4.3955,-4.3806,-4.3219,-4.3779,-4.3701,-4.3324,-4.3245,-4.3521,-4.3889,-4.402,-4.4133,-4.4166,-4.4145,-4.3902,-4.3649,-4.3594,-4.3615,-4.3615,-4.3615,-4.3741,-4.4041,-4.4625,-4.5298,-4.5874,-4.6345,-4.6163,-4.59,-4.5759,-4.6023,-4.6202,-4.5768,-4.5954,-4.6057,-4.5726,-4.5954,-4.6037,-4.5726,-4.6078,-4.6182,-4.5726,-4.6078,-4.6266,-4.6266,-4.6266,-4.6185,-4.5861,-4.5861,-4.5617,-4.5209,-4.48,-4.4534,-4.437,-4.3958,-4.3711,-4.3711,-4.3628,-4.3297,-4.2902,-4.2873,-4.3149,-2.8398,0.0,0.0,0.0,0.0,0.0,-3.294,-3.3725,-3.4655,0.0,0.0,0.0,0.0,0.0,0.0,0.0,0.0,0.0,0.0,0.0,0.0,0.0,0.0,0.0,0.0,-3.8723,-3.8659,-3.8229,-3.8444,-3.8462,-3.8015,-3.8627,-3.894,-3.8903,-3.9383,-3.9633,-3.9443,-3.993,-4.0214,-4.0279,-4.0084,-4.0366,-4.106,-4.0759,-4.0847,-4.1171,-4.1287,-4.161,-4.2133,-4.2764,-4.3071,-4.3276,-4.414,-4.4079,-4.355,-4.3823,-4.3648,-4.3257,-4.3257,-4.3403,-4.3683,-4.4091,-4.409,-4.3987,-4.4086,-4.3838,-4.3518,-4.3615,-4.3615,-4.3615,-4.3615,-4.3659,-4.3837,-4.4551,-4.4906,-4.5298,-4.5965,-4.6108,-4.599,-4.5956,-4.6142,-4.614,-4.5498,-4.5768,-4.5912,-4.5457,-4.5623,-4.5685,-4.5436,-4.5623,-4.5685,-4.5416,-4.5809,-4.6078,-4.6078,-4.6082,-4.5942,-4.5719,-4.5535,-4.5209,-4.48,-4.4534,-4.4288,-4.4123,-4.3876,-4.3711,-4.3711,-4.3546,-4.3131,-4.255,-4.2648,-4.2904,-3.0043,-3.0636,-3.1632,-3.2896,-3.3651,0.0,-3.4409,-3.5073,-3.5887,0.0,0.0,0.0,0.0,0.0,0.0,0.0,0.0,0.0,0.0,0.0,0.0,0.0,0.0,0.0,-3.8663,-3.8584,-3.8543,-3.8688,-3.8707,-3.8675,-3.8564,-3.8886,-3.8866,-3.844,-3.9321,-3.969,-3.9441,-4.0354,-4.0712,-4.0409,-4.0409,-4.0518,-4.0824,-4.0957,-4.1001,-4.0913,-4.1482,-4.176,-4.1928,-4.2696,-4.3071,-4.332,-4.4167,-4.431,-4.3975,-4.4003,-4.3686,-4.3392,-4.3364,-4.3295,-4.3456,-4.4277,-4.4246,-4.3911,-4.4057,-4.3843,-4.3532,-4.3594,-4.3615,-4.3615,-4.3615,-4.3598,-4.3751,-4.4277,-4.4374,-4.4526,-4.5059,-4.5373,-4.5634,-4.609,-4.6212,-4.5933,-4.5126,-4.5333,-4.5478,-4.5064,-4.5002,-4.5002,-4.5002,-4.5002,-4.5002,-4.5002,-4.5354,-4.5623,-4.5685,-4.5655,-4.5657,-4.5617,-4.5209,-4.4718,-4.437,-4.4288,-4.4041,-4.3628,-4.3546,-4.3546,-4.3546,-4.3234,-4.255,-4.1798,-4.2189,-4.2349,-3.1619,-3.27,-3.3933,-3.3234,-3.4208,0.0,-3.5084,-3.5802,-3.6497,0.0,0.0,0.0,0.0,0.0,0.0,0.0,0.0,0.0,0.0,0.0,0.0,0.0,0.0,0.0,-3.8023,-3.8913,-3.9162,-3.827,-3.8143,-3.8182,-3.8417,-3.8515,-3.859,-3.8693,-3.9421,-3.9876,-4.0124,-4.08,-4.1164,-4.1122,-4.0841,-4.0734,-4.0821,-4.0957,-4.1195,-4.154,-4.1646,-4.2149,-4.2944,-4.2938,-4.3206,-4.3595,-4.3805,-4.4031,-4.427,-4.4033,-4.39,-4.3745,-4.3741,-4.3502,-4.3342,-4.3845,-4.376,-4.3507,-4.3961,-4.3853,-4.3494,-4.3587,-4.3615,-4.3615,-4.3615,-4.3829,-4.4204,-4.4677,-4.4746,-4.4991,-4.5757,-4.5529,-4.5154,-4.5173,-4.5487,-4.5582,-4.5101,-4.5064,-4.5105,-4.5002,-4.5002,-4.5002,-4.5002,-4.5002,-4.5002,-4.5002,-4.5064,-4.5271,-4.5643,-4.5367,-4.5149,-4.5107,-4.478,-4.4288,-4.3876,-4.3546,-4.3317,-4.3234,-4.2818,-4.2652,-4.2652,-4.2569,-4.2402,-4.2235,-4.2002,-4.1866,-3.365,-3.4434,-3.5332,-3.4824,-3.5769,0.0,0.0,-3.7129,-3.7507,0.0,0.0,0.0,0.0,0.0,0.0,0.0,0.0,0.0,0.0,0.0,0.0,0.0,0.0,0.0,-3.7411,-3.8087,-3.8447,-3.8293,-3.8312,-3.8395,-3.8596,-3.8775,-3.8894,-3.9049,-3.9848,-4.0309,-4.0309,-4.1117,-4.1444,-4.1296,-4.1122,-4.1122,-4.134,-4.1683,-4.1815,-4.1743,-4.2364,-4.2628,-4.271,-4.3306,-4.3756,-4.4019,-4.4061,-4.4343,-4.4728,-4.431,-4.4047,-4.3949,-4.3828,-4.3425,-4.2948,-4.3376,-4.342,-4.3349,-4.3677,-4.37,-4.3606,-4.3835,-4.3898,-4.3974,-4.4125,-4.4352,-4.4567,-4.4799,-4.471,-4.4697,-4.5082,-4.5068,-4.4754,-4.4315,-4.4747,-4.4992,-4.4375,-4.4505,-4.4567,-4.4339,-4.4298,-4.4298,-4.4298,-4.4505,-4.465,-4.465,-4.4827,-4.5119,-4.5345,-4.4987,-4.4723,-4.4698,-4.4288,-4.3958,-4.3711,-4.3546,-4.338,-4.338,-4.3131,-4.3048,-4.3048,-4.3048,-4.2818,-4.2402,-4.1938,-4.1796,-3.607,-3.6517,-3.6969,-3.7021,-3.7892,-3.8743,0.0,0.0,0.0,0.0,0.0,0.0,0.0,0.0,0.0,0.0,0.0,0.0,0.0,0.0,0.0,0.0,0.0,0.0,-3.6795,-3.6812,-3.72,-3.8159,-3.829,-3.8488,-3.8752,-3.916,-3.937,-3.9462,-4.0361,-4.0724,-4.0456,-4.1462,-4.1797,-4.1546,-4.1486,-4.1617,-4.1923,-4.25,-4.2482,-4.1949,-4.295,-4.3083,-4.2564,-4.3557,-4.4166,-4.4389,-4.4452,-4.4705,-4.5042,-4.4645,-4.4352,-4.4113,-4.3881,-4.3386,-4.2916,-4.2996,-4.3197,-4.3328,-4.3349,-4.3595,-4.3919,-4.4201,-4.4331,-4.4407,-4.473,-4.4805,-4.4805,-4.488,-4.4579,-4.4352,-4.4428,-4.4654,-4.4579,-4.3995,-4.4277,-4.4428,-4.3767,-4.3925,-4.4049,-4.3677,-4.3615,-4.3539,-4.3462,-4.3792,-4.4019,-4.3942,-4.4266,-4.4539,-4.4722,-4.4401,-4.4191,-4.435,-4.3958,-4.3711,-4.3711,-4.3628,-4.3546,-4.3463,-4.3463,-4.3463,-4.3546,-4.3546,-4.3214,-4.2652,-4.2299,-4.2216,-3.914,-3.9755,-4.0195,-3.9512,-4.0392,-4.1123,-4.0108,0.0,-4.0303,-3.9475,0.0,0.0,0.0,0.0,0.0,0.0,0.0,0.0,0.0,0.0,0.0,0.0,0.0,-3.6122,-3.5883,-3.5663,-3.6077,-3.7386,-3.7095,-3.74,-3.8611,-3.9216,-3.9661,-4.0083,-4.0669,-4.0974,-4.0914,-4.1897,-4.2412,-4.2335,-4.2236,-4.2212,-4.2275,-4.2653,-4.2572,-4.217,-4.2814,-4.3279,-4.3542,-4.3577,-4.4052,-4.4754,-4.4709,-4.484,-4.4972,-4.4939,-4.4737,-4.4517,-4.4326,-4.4079,-4.3638,-4.2921,-4.2992,-4.338,-4.338,-4.3986,-4.4654,-4.473,-4.473,-4.473,-4.4805,-4.4805,-4.488,-4.5256,-4.5031,-4.4805,-4.5181,-4.5031,-4.4805,-4.4654,-4.4428,-4.4125,-4.3691,-4.3656,-4.3677,-4.3615,-4.3615,-4.3462,-4.3081,-4.3142,-4.3009,-4.2681,-4.2685,-4.2991,-4.3777,-4.35,-4.3557,-4.431,-4.3958,-4.3711,-4.3711,-4.338,-4.2985,-4.2569,-4.2569,-4.2735,-4.3151,-4.3131,-4.3214,-4.3546,-4.3546,-4.3297,-4.1181,-4.139,-4.1379,-4.0617,-4.0902,-4.1294,-4.0696,-4.0737,-4.0853,-4.0911,0.0,0.0,0.0,0.0,0.0,0.0,-3.8438,0.0,0.0,0.0,0.0,0.0,0.0,0.0,-3.5807,-3.6105,-3.6517,-3.7115,-3.7215,-3.7565,-3.8407,-3.9054,-3.9608,-3.9992,-4.0669,-4.0999,-4.1022,-4.2037,-4.2497,-4.2537,-4.2786,-4.2759,-4.2633,-4.3267,-4.3287,-4.2786,-4.3578,-4.3917,-4.3893,-4.4347,-4.4664,-4.48,-4.5278,-4.5255,-4.4954,-4.4905,-4.462,-4.4244,-4.4324,-4.3959,-4.3425,-4.3088,-4.3321,-4.3713,-4.3713,-4.423,-4.488,-4.5106,-4.5181,-4.5181,-4.5405,-4.533,-4.5256,-4.563,-4.5256,-4.488,-4.533,-4.5256,-4.5106,-4.488,-4.4654,-4.4428,-4.3974,-4.3767,-4.3615,-4.3615,-4.3615,-4.3462,-4.3004,-4.3249,-4.3339,-4.3192,-4.3119,-4.328,-4.3639,-4.3352,-4.3223,-4.3667,-4.3422,-4.334,-4.334,-4.3176,-4.3128,-4.3131,-4.3131,-4.3214,-4.3463,-4.3958,-4.4288,-4.4452,-4.3958,-4.3876,-4.3044,-4.2874,-4.2499,-4.1771,-4.1904,-4.2141,-4.1595,-4.1559,-4.1784,-4.2334,-4.1485,0.0,0.0,0.0,-4.0622,0.0,0.0,-3.7688,0.0,0.0,0.0,0.0,0.0,0.0,0.0,-3.5988,-3.6235,-3.6485,-3.6696,-3.7093,-3.7856,-3.8819,-3.957,-4.0154,-4.0884,-4.1386,-4.1533,-4.2365,-4.2885,-4.2956,-4.3449,-4.349,-4.3114,-4.3867,-4.3939,-4.3479,-4.4155,-4.4412,-4.4414,-4.4914,-4.5142,-4.5142,-4.5686,-4.5531,-4.4945,-4.4844,-4.4495,-4.4101,-4.4378,-4.3988,-4.3337,-4.3136,-4.3376,-4.3831,-4.3961,-4.4439,-4.5009,-4.5437,-4.5555,-4.563,-4.5928,-4.563,-4.533,-4.5779,-4.533,-4.488,-4.5181,-4.533,-4.533,-4.5031,-4.4805,-4.4579,-4.4428,-4.3898,-4.3615,-4.3615,-4.3615,-4.3462,-4.3004,-4.3213,-4.3346,-4.3298,-4.324,-4.3297,-4.3534,-4.3277,-4.3089,-4.3105,-4.3167,-4.3249,-4.3229,-4.3249,-4.3526,-4.4041,-4.3958,-4.3876,-4.3876,-4.4862,-4.527,-4.5209,-4.478,-4.478,-4.4985,-4.4761,-4.397,-4.3467,-4.4151,-4.4623,-4.3258,-4.3363,-4.373,-4.3413,-4.2868,-4.2431,-4.2445,-4.2358,-4.1778,-4.0377,-3.9627,0.0,0.0,0.0,0.0,0.0,0.0,0.0,0.0,-3.454,-3.4309,-3.5279,-3.4777,-3.5215,-3.7049,-3.8389,-3.959,-4.071,-4.1619,-4.2315,-4.2815,-4.3407,-4.3772,-4.3953,-4.45,-4.4398,-4.3764,-4.431,-4.4472,-4.4248,-4.4092,-4.4527,-4.5233,-4.4914,-4.521,-4.589,-4.589,-4.5415,-4.4823,-4.48,-4.4633,-4.445,-4.4827,-4.4454,-4.3752,-4.2873,-4.2904,-4.34,-4.3875,-4.4568,-4.5361,-4.5871,-4.6002,-4.6002,-4.6002,-4.5405,-4.4955,-4.533,-4.5106,-4.4805,-4.4805,-4.5106,-4.5405,-4.5405,-4.473,-4.4352,-4.473,-4.4125,-4.3615,-4.3615,-4.3615,-4.3462,-4.3004,-4.2697,-4.2416,-4.2466,-4.2053,-4.2168,-4.3089,-4.3086,-4.3086,-4.3086,-4.3492,-4.3654,-4.3716,-4.3654,-4.4116,-4.4964,-4.4616,-4.437,-4.437,-4.5657,-4.6063,-4.5678,-4.6509,-4.6449,-4.5504,-4.5635,-4.555,-4.4446,-4.4342,-4.4361,-4.3939,-4.3834,-4.3861,-4.3972,-4.3772,-4.3462,-4.3233,-4.2912,-4.2276,-4.1047,-3.9751,-3.8542,0.0,0.0,0.0,0.0,0.0,0.0,0.0,0.0,0.0,-3.4275,-3.4321,-3.5131,-3.6929,-3.783,-3.902,-4.0735,-4.1101,-4.1614,-4.2396,-4.2881,-4.3389,-4.3801,-4.4339,-4.4451,-4.4113,-4.4515,-4.4587,-4.4314,-4.4476,-4.4833,-4.5347,-4.5483,-4.5551,-4.5551,-4.5822,-4.5483,-4.48,-4.48,-4.4432,-4.4033,-4.438,-4.4219,-4.3709,-4.3416,-4.3468,-4.3807,-4.4214,-4.4786,-4.5412,-4.5871,-4.6002,-4.6002,-4.6002,-4.563,-4.533,-4.5704,-4.548,-4.5256,-4.5555,-4.548,-4.548,-4.5779,-4.4955,-4.4352,-4.473,-4.4125,-4.3615,-4.3615,-4.3615,-4.3462,-4.3004,-4.2621,-4.2396,-4.2446,-4.2033,-4.2031,-4.2598,-4.291,-4.2949,-4.2656,-4.3058,-4.346,-4.368,-4.368,-4.3959,-4.4596,-4.4452,-4.4288,-4.3958,-4.4944,-4.5515,-4.5739,-4.659,-4.6993,-4.6345,-4.6134,-4.5793,-4.4814,-4.4763,-4.4812,-4.4168,-4.4144,-4.433,-4.4517,-4.4361,-4.4019,-4.3535,-4.3322,-4.2701,-4.112,-3.9943,-3.8662,0.0,-3.5629,0.0,0.0,0.0,0.0,0.0,-3.4421,-3.4376,-3.3803,-3.399,-3.4701,0.0,-3.724,-3.8653,-4.0425,-4.0989,-4.1753,-4.268,-4.3044,-4.3556,-4.4181,-4.4512,-4.4571,-4.446,-4.4902,-4.5025,-4.4848,-4.4906,-4.5252,-4.5754,-4.5686,-4.5619,-4.5619,-4.5822,-4.5551,-4.4937,-4.4869,-4.4638,-4.4358,-4.4456,-4.4454,-4.4289,-4.3833,-4.3779,-4.3942,-4.4458,-4.4801,-4.5194,-4.5828,-4.6002,-4.6002,-4.6002,-4.5704,-4.548,-4.5704,-4.563,-4.5405,-4.5555,-4.548,-4.548,-4.5704,-4.4955,-4.4352,-4.473,-4.4125,-4.3615,-4.3615,-4.3615,-4.3539,-4.3233,-4.2851,-4.2628,-4.2603,-4.227,-4.219,-4.2617,-4.3092,-4.3133,-4.2701,-4.3081,-4.3458,-4.3935,-4.3935,-4.428,-4.5087,-4.5104,-4.4858,-4.437,-4.5291,-4.5861,-4.6144,-4.6905,-4.7544]},{"header":{"parameterUnit":"m.s-1","parameterCategory":1,"la1":30.6,"la2":29.2853,"lo1":-89.7004,"lo2":-87.6739,"dy":0.0162,"dx":0.0183,"nx":112,"ny":82,"refTime":"2023-07-10T00:00:00:Z","depth":0,"parameterNumber":3,"parameterNumberName":"V-component_of_WINDS"},"data":[0.0,0.0,0.0,0.0,0.0,0.0,0.0,0.0,0.0,0.0,0.0,0.0,0.0,0.0,0.0,0.0,0.0,0.0,0.0,0.0,0.0,0.0,0.0,0.0,0.0,0.0,0.0,0.0,0.0,0.0,0.0,0.0,0.0,0.0,0.0,0.0,0.0,0.0,0.0,0.0,0.0,0.0,0.0,0.0,0.0,0.0,0.0,0.0,0.0,0.0,0.0,0.0,0.0,0.0,0.0,0.0,0.0,0.0,0.0,0.0,0.0,0.0,0.0,0.0,0.0,0.0,0.0,0.0,0.0,0.0,0.0,0.0,0.0,0.0,0.0,0.0,0.0,0.0,0.0,0.0,0.0,0.0,0.0,0.0,0.0,0.0,0.0,0.0,0.0,0.0,-3.9222,-4.3509,-4.9257,-5.346,-5.51,-5.5002,-5.3628,-5.0677,0.0,0.0,0.0,0.0,0.0,0.0,0.0,0.0,0.0,0.0,0.0,0.0,0.0,0.0,0.0,0.0,0.0,0.0,0.0,0.0,0.0,0.0,0.0,0.0,0.0,0.0,0.0,0.0,0.0,0.0,0.0,0.0,0.0,0.0,0.0,0.0,0.0,0.0,0.0,0.0,0.0,0.0,0.0,0.0,0.0,0.0,0.0,0.0,0.0,0.0,0.0,0.0,0.0,0.0,0.0,0.0,0.0,0.0,0.0,0.0,0.0,0.0,0.0,0.0,0.0,0.0,0.0,0.0,0.0,0.0,0.0,0.0,0.0,0.0,0.0,0.0,0.0,0.0,0.0,0.0,0.0,0.0,0.0,0.0,0.0,0.0,0.0,0.0,0.0,0.0,0.0,0.0,0.0,0.0,0.0,0.0,0.0,0.0,0.0,0.0,0.0,0.0,0.0,0.0,-4.2255,-4.9686,-5.3239,-5.5573,-5.6729,-5.6147,-5.4749,-5.2512,0.0,0.0,0.0,0.0,0.0,0.0,0.0,0.0,0.0,0.0,0.0,0.0,0.0,0.0,0.0,0.0,0.0,0.0,0.0,0.0,0.0,0.0,0.0,0.0,0.0,0.0,0.0,0.0,0.0,0.0,0.0,0.0,0.0,0.0,0.0,0.0,0.0,0.0,0.0,0.0,0.0,0.0,0.0,0.0,0.0,0.0,0.0,0.0,0.0,0.0,0.0,0.0,0.0,0.0,0.0,0.0,0.0,0.0,0.0,0.0,0.0,0.0,0.0,0.0,0.0,0.0,0.0,0.0,0.0,0.0,0.0,0.0,0.0,0.0,0.0,0.0,0.0,0.0,0.0,0.0,0.0,0.0,0.0,0.0,0.0,0.0,0.0,0.0,0.0,0.0,0.0,0.0,0.0,0.0,0.0,0.0,0.0,0.0,0.0,0.0,0.0,0.0,0.0,-4.1767,-4.7017,-5.3825,-5.5641,-5.6948,-5.8358,-5.8151,-5.679,-5.4163,-5.1071,0.0,0.0,0.0,0.0,0.0,0.0,0.0,0.0,0.0,0.0,0.0,0.0,0.0,0.0,0.0,0.0,0.0,0.0,0.0,0.0,0.0,0.0,0.0,0.0,0.0,0.0,0.0,0.0,0.0,0.0,0.0,0.0,0.0,0.0,0.0,0.0,0.0,0.0,0.0,0.0,0.0,0.0,0.0,0.0,0.0,0.0,0.0,0.0,0.0,0.0,0.0,0.0,0.0,0.0,0.0,0.0,0.0,0.0,0.0,0.0,0.0,0.0,0.0,0.0,0.0,0.0,0.0,0.0,0.0,0.0,0.0,0.0,0.0,0.0,0.0,0.0,0.0,0.0,0.0,0.0,0.0,0.0,0.0,0.0,0.0,0.0,0.0,0.0,0.0,0.0,0.0,0.0,0.0,0.0,0.0,0.0,0.0,0.0,0.0,0.0,0.0,0.0,-4.6731,-5.094,-5.6263,-5.7087,-5.7975,-5.9733,-5.9387,-5.7916,-5.5231,-5.2579,0.0,0.0,0.0,0.0,0.0,0.0,0.0,0.0,0.0,0.0,0.0,0.0,0.0,0.0,0.0,0.0,0.0,0.0,0.0,0.0,0.0,0.0,0.0,0.0,0.0,0.0,0.0,0.0,0.0,0.0,0.0,0.0,0.0,0.0,0.0,0.0,0.0,0.0,0.0,0.0,0.0,0.0,0.0,0.0,0.0,0.0,0.0,0.0,0.0,0.0,0.0,0.0,0.0,0.0,0.0,0.0,0.0,0.0,0.0,0.0,0.0,0.0,0.0,0.0,0.0,0.0,0.0,0.0,0.0,0.0,0.0,0.0,0.0,0.0,0.0,0.0,0.0,0.0,0.0,0.0,0.0,0.0,0.0,0.0,0.0,0.0,0.0,0.0,0.0,0.0,0.0,0.0,0.0,0.0,0.0,0.0,0.0,0.0,0.0,0.0,0.0,0.0,-4.8214,-5.2293,-5.6345,-5.7592,-5.8806,-6.0566,-5.8776,-5.6879,-5.5312,-5.1694,0.0,0.0,0.0,0.0,0.0,0.0,0.0,0.0,0.0,0.0,0.0,0.0,0.0,0.0,0.0,0.0,0.0,0.0,0.0,0.0,0.0,0.0,0.0,0.0,0.0,0.0,0.0,0.0,0.0,0.0,0.0,0.0,0.0,0.0,0.0,0.0,0.0,0.0,0.0,0.0,0.0,0.0,0.0,0.0,0.0,0.0,0.0,0.0,0.0,0.0,0.0,0.0,0.0,0.0,0.0,0.0,0.0,0.0,0.0,0.0,0.0,0.0,0.0,0.0,0.0,0.0,0.0,0.0,0.0,0.0,0.0,0.0,0.0,0.0,0.0,0.0,0.0,0.0,0.0,0.0,0.0,0.0,0.0,0.0,0.0,0.0,0.0,0.0,0.0,0.0,0.0,0.0,0.0,0.0,0.0,0.0,0.0,0.0,0.0,0.0,0.0,0.0,-4.9662,-5.407,-5.7971,-5.9547,-6.0855,-6.2159,-6.1987,-6.0098,-5.6163,0.0,0.0,0.0,0.0,0.0,0.0,0.0,0.0,0.0,0.0,0.0,0.0,0.0,0.0,0.0,0.0,0.0,0.0,0.0,0.0,0.0,0.0,0.0,0.0,0.0,0.0,0.0,0.0,0.0,0.0,0.0,0.0,0.0,0.0,0.0,0.0,0.0,0.0,0.0,0.0,0.0,0.0,0.0,0.0,0.0,0.0,0.0,0.0,0.0,0.0,0.0,0.0,0.0,0.0,0.0,0.0,0.0,0.0,0.0,0.0,0.0,0.0,0.0,0.0,0.0,0.0,0.0,0.0,0.0,0.0,0.0,0.0,0.0,0.0,0.0,0.0,0.0,0.0,0.0,0.0,0.0,0.0,0.0,0.0,0.0,0.0,0.0,0.0,0.0,0.0,0.0,0.0,0.0,0.0,0.0,0.0,0.0,0.0,0.0,0.0,0.0,0.0,-4.5952,-5.1148,-5.5875,-5.9367,-6.0907,-6.2217,-6.349,-6.3663,-6.1705,-5.7097,0.0,0.0,0.0,0.0,0.0,0.0,0.0,0.0,0.0,0.0,0.0,0.0,0.0,0.0,0.0,0.0,0.0,0.0,0.0,0.0,0.0,0.0,0.0,0.0,0.0,0.0,0.0,0.0,0.0,0.0,0.0,0.0,0.0,0.0,0.0,0.0,0.0,0.0,0.0,0.0,0.0,0.0,0.0,0.0,0.0,0.0,0.0,0.0,0.0,0.0,0.0,0.0,0.0,0.0,0.0,0.0,0.0,0.0,0.0,0.0,0.0,0.0,0.0,0.0,0.0,0.0,0.0,0.0,0.0,0.0,0.0,0.0,0.0,0.0,0.0,0.0,0.0,0.0,0.0,0.0,0.0,0.0,0.0,0.0,0.0,0.0,0.0,0.0,0.0,0.0,0.0,0.0,0.0,0.0,0.0,0.0,0.0,0.0,0.0,0.0,0.0,0.0,-4.6896,-5.267,-5.7585,-6.0156,-6.1379,-6.2666,-6.4287,-6.3094,-6.0939,0.0,0.0,0.0,0.0,0.0,0.0,0.0,0.0,0.0,0.0,0.0,0.0,0.0,0.0,0.0,0.0,0.0,0.0,0.0,0.0,0.0,0.0,0.0,0.0,0.0,0.0,0.0,0.0,0.0,0.0,0.0,0.0,0.0,0.0,0.0,0.0,0.0,0.0,0.0,0.0,0.0,0.0,0.0,0.0,0.0,0.0,0.0,0.0,0.0,0.0,0.0,0.0,0.0,0.0,0.0,0.0,0.0,0.0,0.0,0.0,0.0,0.0,0.0,0.0,0.0,0.0,0.0,0.0,0.0,0.0,0.0,0.0,0.0,0.0,0.0,0.0,0.0,0.0,0.0,0.0,0.0,0.0,0.0,0.0,0.0,0.0,0.0,0.0,0.0,0.0,0.0,0.0,0.0,0.0,0.0,0.0,0.0,0.0,0.0,0.0,0.0,0.0,0.0,-4.8282,-5.4135,-5.8795,-6.082,-6.3509,-6.5344,-6.5849,-6.6141,-6.4924,-6.1661,0.0,0.0,0.0,0.0,0.0,0.0,0.0,0.0,0.0,0.0,0.0,0.0,0.0,0.0,0.0,0.0,0.0,0.0,0.0,0.0,0.0,0.0,0.0,0.0,0.0,0.0,0.0,0.0,0.0,0.0,0.0,0.0,0.0,0.0,0.0,0.0,0.0,0.0,0.0,0.0,0.0,0.0,0.0,0.0,0.0,0.0,0.0,0.0,0.0,0.0,0.0,0.0,0.0,0.0,0.0,0.0,0.0,0.0,0.0,0.0,0.0,0.0,0.0,0.0,0.0,0.0,0.0,0.0,0.0,0.0,0.0,0.0,0.0,0.0,0.0,0.0,0.0,0.0,0.0,0.0,0.0,0.0,0.0,0.0,0.0,0.0,0.0,0.0,0.0,0.0,0.0,0.0,0.0,0.0,0.0,0.0,0.0,0.0,0.0,0.0,0.0,0.0,-4.9555,-5.5571,-6.0415,-6.2517,-6.4999,-6.6765,-6.7384,-6.8108,-6.7112,-6.3917,0.0,0.0,0.0,0.0,0.0,0.0,0.0,0.0,0.0,0.0,0.0,0.0,0.0,0.0,0.0,0.0,0.0,0.0,0.0,0.0,0.0,0.0,0.0,0.0,0.0,0.0,0.0,0.0,0.0,0.0,0.0,0.0,0.0,0.0,0.0,0.0,0.0,0.0,0.0,0.0,0.0,0.0,0.0,0.0,0.0,0.0,0.0,0.0,0.0,0.0,0.0,0.0,0.0,0.0,0.0,0.0,0.0,0.0,0.0,0.0,0.0,0.0,0.0,0.0,0.0,0.0,0.0,0.0,0.0,0.0,0.0,0.0,0.0,0.0,0.0,0.0,0.0,0.0,0.0,0.0,0.0,0.0,0.0,0.0,0.0,0.0,0.0,0.0,0.0,0.0,0.0,0.0,0.0,0.0,0.0,0.0,0.0,0.0,0.0,0.0,0.0,0.0,-5.0891,-5.7108,-6.2331,-6.4767,-6.6156,-6.7528,-6.9007,-6.9302,-6.8192,-6.5408,0.0,0.0,0.0,0.0,0.0,0.0,0.0,0.0,0.0,0.0,0.0,0.0,0.0,0.0,0.0,0.0,0.0,0.0,0.0,0.0,0.0,0.0,0.0,0.0,0.0,0.0,0.0,0.0,0.0,0.0,0.0,0.0,0.0,0.0,0.0,0.0,0.0,0.0,0.0,0.0,0.0,0.0,0.0,0.0,0.0,0.0,0.0,0.0,0.0,0.0,0.0,0.0,0.0,0.0,0.0,0.0,0.0,0.0,0.0,0.0,-3.7314,-3.6295,0.0,0.0,0.0,0.0,0.0,0.0,0.0,0.0,0.0,0.0,0.0,0.0,0.0,0.0,0.0,0.0,0.0,0.0,0.0,0.0,0.0,0.0,0.0,0.0,0.0,0.0,0.0,0.0,0.0,0.0,0.0,0.0,0.0,0.0,0.0,0.0,0.0,0.0,0.0,0.0,-5.3171,-5.9538,-6.4363,-6.5699,-6.8363,-7.0249,-7.077,-7.0838,-7.0581,-6.9926,-6.6691,0.0,0.0,0.0,0.0,0.0,0.0,0.0,0.0,0.0,0.0,0.0,0.0,0.0,0.0,0.0,0.0,0.0,0.0,0.0,0.0,0.0,0.0,0.0,0.0,0.0,0.0,0.0,0.0,0.0,0.0,0.0,0.0,0.0,0.0,0.0,0.0,0.0,0.0,0.0,0.0,0.0,0.0,0.0,0.0,0.0,0.0,0.0,0.0,0.0,0.0,0.0,0.0,0.0,0.0,0.0,0.0,0.0,0.0,0.0,0.0,-4.2132,0.0,0.0,0.0,0.0,0.0,0.0,0.0,0.0,0.0,0.0,0.0,0.0,0.0,0.0,0.0,0.0,0.0,0.0,0.0,0.0,0.0,0.0,0.0,0.0,0.0,0.0,0.0,0.0,0.0,0.0,0.0,0.0,0.0,0.0,0.0,0.0,0.0,0.0,0.0,0.0,-5.5711,-6.1501,-6.6021,-6.7629,-6.9796,-7.1179,-7.1276,-7.1701,-7.1625,-7.0802,-6.8878,0.0,0.0,0.0,0.0,0.0,0.0,0.0,0.0,0.0,0.0,0.0,0.0,0.0,0.0,0.0,0.0,0.0,0.0,0.0,0.0,0.0,0.0,0.0,0.0,0.0,0.0,0.0,0.0,0.0,0.0,0.0,0.0,0.0,0.0,0.0,0.0,0.0,0.0,0.0,0.0,0.0,0.0,0.0,0.0,0.0,0.0,0.0,0.0,0.0,0.0,0.0,0.0,0.0,-4.8559,-5.0409,-5.2588,-5.2799,-5.3997,-5.5616,-5.0859,-4.8531,-4.8045,-4.711,0.0,0.0,0.0,0.0,0.0,0.0,0.0,0.0,0.0,0.0,0.0,0.0,0.0,0.0,0.0,0.0,0.0,0.0,0.0,0.0,0.0,0.0,0.0,0.0,-5.3605,-5.5263,-4.9437,0.0,0.0,0.0,0.0,0.0,0.0,0.0,0.0,0.0,0.0,0.0,-5.808,-6.3334,-6.7644,-6.9633,-7.0872,-7.168,-7.1922,-7.2633,-7.2452,-7.1051,-7.0694,-6.9129,0.0,0.0,0.0,0.0,0.0,0.0,0.0,0.0,0.0,0.0,0.0,0.0,0.0,0.0,0.0,0.0,0.0,0.0,0.0,0.0,0.0,0.0,0.0,0.0,0.0,0.0,0.0,0.0,0.0,0.0,0.0,0.0,-2.7102,-2.882,0.0,0.0,0.0,0.0,0.0,0.0,0.0,0.0,0.0,0.0,0.0,0.0,0.0,-4.5215,-4.8066,-5.0365,-5.2284,-5.3787,-5.4512,-5.5454,-5.6553,-5.646,-5.7071,-5.8231,-5.7738,0.0,-5.3637,-5.2297,0.0,0.0,0.0,0.0,0.0,0.0,0.0,0.0,0.0,0.0,0.0,0.0,0.0,0.0,0.0,0.0,0.0,0.0,0.0,0.0,0.0,0.0,-5.3908,-5.6099,-5.8844,-6.0755,-5.983,-5.7034,-5.4788,-5.504,-5.4047,-5.2794,0.0,0.0,0.0,0.0,0.0,0.0,-5.9805,-6.5361,-6.9594,-7.0695,-7.1896,-7.3146,-7.4474,-7.4454,-7.435,-7.4435,-7.3034,-7.1542,-7.0066,-6.8579,0.0,0.0,0.0,0.0,0.0,0.0,0.0,0.0,0.0,0.0,0.0,0.0,0.0,0.0,0.0,0.0,0.0,0.0,0.0,0.0,0.0,0.0,0.0,0.0,0.0,0.0,0.0,0.0,0.0,-2.6639,-2.9919,-3.224,-3.3069,-3.3497,0.0,0.0,0.0,0.0,0.0,0.0,0.0,0.0,0.0,-4.5244,-4.834,-5.0865,-5.2687,-5.4483,-5.598,-5.7231,-5.7249,-5.7903,-5.9051,-5.92,-5.9922,-6.1142,-6.1429,-6.089,-5.9594,-5.6649,-5.4957,-5.3873,0.0,0.0,0.0,0.0,-4.625,-4.7579,-4.7229,-4.8705,-5.0621,-5.0147,0.0,0.0,0.0,0.0,0.0,0.0,0.0,-4.9705,0.0,0.0,-5.8144,-5.9526,-6.1771,-6.363,-6.376,-6.3087,-6.2159,-6.1092,-6.0273,-5.9394,-5.8268,-5.789,0.0,0.0,0.0,-6.2872,-6.4148,-6.8259,-7.135,-7.2103,-7.3147,-7.3967,-7.4266,-7.4562,-7.4566,-7.4168,-7.3549,-7.2593,-7.1364,-7.0221,-6.7686,0.0,0.0,0.0,0.0,0.0,0.0,0.0,0.0,0.0,0.0,0.0,0.0,0.0,0.0,0.0,0.0,0.0,0.0,0.0,0.0,0.0,0.0,0.0,0.0,0.0,0.0,0.0,0.0,-2.9454,-3.2723,-3.5328,-3.6789,-3.7649,0.0,0.0,0.0,0.0,0.0,0.0,-4.4786,-4.693,-4.8749,-5.0342,-5.334,-5.5392,-5.6364,-5.7399,-5.8523,-5.9724,-5.9372,-5.9882,-6.1193,-6.1385,-6.2248,-6.3538,-6.3417,-6.3693,-6.3862,-6.0178,-5.8426,-5.7822,-5.5109,-5.3952,-5.3521,-5.156,-5.2157,-5.3969,-5.357,-5.5174,-5.7281,-5.6965,-5.647,-5.573,-5.415,0.0,0.0,0.0,0.0,-5.5021,-5.5888,-5.8761,-6.1668,-6.2199,-6.4027,-6.5716,-6.5884,-6.719,-6.7824,-6.6067,-6.5611,-6.5248,-6.4327,-6.3956,0.0,-6.2354,0.0,-6.6837,-6.8139,-7.0767,-7.2887,-7.3754,-7.4256,-7.4431,-7.4307,-7.4711,-7.4714,-7.4072,-7.3708,-7.3103,-7.2117,-7.0972,-6.8896,-6.5649,0.0,0.0,0.0,0.0,0.0,0.0,0.0,0.0,0.0,0.0,0.0,0.0,0.0,0.0,0.0,0.0,0.0,0.0,0.0,0.0,0.0,0.0,0.0,0.0,0.0,0.0,0.0,0.0,0.0,-3.7423,-4.0763,0.0,0.0,0.0,0.0,-4.4498,-4.5198,-4.7245,-5.1215,-5.2784,-5.4313,-5.5919,-5.6918,-5.8075,-5.9432,-5.9538,-6.0296,-6.1632,-6.1667,-6.2178,-6.3265,-6.3151,-6.3801,-6.4944,-6.3857,-6.4144,-6.5226,-6.2581,-6.14,-6.1175,-6.01,-5.9685,-5.9685,-5.973,-5.9734,-5.9745,-6.0022,-6.0035,-6.0033,-6.0771,-6.0231,-5.9267,-5.8784,-5.7417,0.0,0.0,-5.8651,-5.9053,-6.0563,-6.2705,-6.4495,-6.453,-6.6037,-6.7477,-6.7477,-6.8993,-7.0053,-6.9062,-6.8885,-6.8703,-6.8213,0.0,-6.6823,-6.6028,-6.7482,-6.9165,-7.062,-7.2276,-7.4032,-7.5753,-7.4937,-7.4758,-7.5789,-7.5655,-7.5513,-7.5655,-7.4078,-7.3078,-7.3042,-7.0688,-6.8877,-6.7747,-6.5273,0.0,0.0,0.0,0.0,0.0,0.0,0.0,0.0,0.0,0.0,0.0,0.0,0.0,0.0,0.0,0.0,0.0,0.0,0.0,0.0,0.0,0.0,0.0,0.0,0.0,0.0,0.0,0.0,-4.0467,-4.2864,0.0,-4.6087,-4.6054,-4.7146,-5.0054,-5.0784,-5.2422,-5.5418,-5.6047,-5.6815,-5.7853,-5.8581,-5.917,-5.9681,-6.062,-6.137,-6.1934,-6.2431,-6.2946,-6.3418,-6.3886,-6.4689,-6.5689,-6.5558,-6.6076,-6.6898,-6.5746,-6.4411,-6.2969,-6.2752,-6.2679,-6.2746,-6.3403,-6.3329,-6.2903,-6.3093,-6.271,-6.21,-6.2194,-6.234,-6.2375,-6.1636,-6.1351,-6.1485,-6.1982,-6.2931,-6.3849,-6.4177,-6.5405,-6.653,-6.639,-6.7411,-6.8538,-6.9139,-7.0202,-7.1303,-7.2086,-7.1766,-7.1374,-7.1434,-7.101,-7.069,-7.0809,-7.157,-7.2542,-7.3757,-7.4868,-7.5693,-7.6231,-7.6016,-7.5801,-7.5691,-7.555,-7.5119,-7.4289,-7.4007,-7.3186,-7.1645,-7.0616,-6.9196,-6.738,-6.5394,-6.299,0.0,0.0,0.0,0.0,0.0,0.0,0.0,0.0,0.0,0.0,0.0,0.0,0.0,0.0,0.0,0.0,0.0,0.0,0.0,0.0,0.0,0.0,0.0,0.0,0.0,0.0,-4.1101,-4.34,-4.5694,-4.7843,-4.9734,-5.0136,-5.1397,-5.4092,-5.4625,-5.5774,-5.7954,-5.8223,-5.8679,-5.9458,-5.9656,-6.0024,-6.0463,-6.1183,-6.1934,-6.2715,-6.331,-6.3764,-6.4045,-6.4579,-6.5494,-6.6618,-6.6477,-6.7261,-6.8533,-6.7375,-6.6246,-6.5145,-6.4615,-6.4261,-6.4046,-6.4237,-6.4017,-6.3662,-6.4258,-6.4404,-6.4308,-6.3983,-6.4336,-6.4822,-6.4442,-6.4791,-6.5247,-6.5046,-6.5855,-6.6737,-6.6426,-6.7376,-6.8257,-6.7905,-6.8964,-7.0026,-6.9847,-7.109,-7.2478,-7.3084,-7.2905,-7.2905,-7.369,-7.3369,-7.3226,-7.3902,-7.4476,-7.5155,-7.6158,-7.6732,-7.7125,-7.7375,-7.6946,-7.6481,-7.5944,-7.5407,-7.4582,-7.336,-7.3685,-7.2862,-7.0494,-7.0255,-6.908,-6.6721,-6.5173,-6.3231,-6.0782,0.0,0.0,0.0,0.0,0.0,0.0,0.0,0.0,0.0,0.0,0.0,0.0,0.0,0.0,0.0,0.0,0.0,0.0,0.0,0.0,0.0,0.0,0.0,-3.8006,-4.125,-4.4262,-4.6051,-4.9398,-5.1951,-5.2883,-5.3646,-5.4768,-5.6501,-5.655,-5.7206,-5.8944,-5.9472,-6.0131,-6.1022,-6.035,-6.0612,-6.1955,-6.1467,-6.2159,-6.4114,-6.4308,-6.4734,-6.5316,-6.528,-6.623,-6.782,-6.653,-6.7588,-6.9989,-6.7409,-6.6949,-6.7753,-6.5785,-6.4556,-6.3778,-6.2648,-6.224,-6.2422,-6.3754,-6.5344,-6.6721,-6.6384,-6.635,-6.6628,-6.7371,-6.7618,-6.7583,-6.734,-6.741,-6.7514,-6.734,-6.8576,-6.9672,-6.8999,-7.0771,-7.1979,-6.9669,-7.1694,-7.3583,-7.2084,-7.237,-7.3333,-7.4939,-7.4582,-7.4296,-7.5118,-7.5903,0.0,-7.7698,-7.7842,-7.8202,-7.9177,-7.7738,-7.6732,-7.6696,-7.5227,-7.4009,-7.3151,-7.3115,-7.2143,-6.9976,-6.9669,-6.846,-6.6093,-6.4764,-6.3045,-6.0894,0.0,0.0,0.0,0.0,0.0,0.0,0.0,0.0,0.0,0.0,0.0,0.0,0.0,0.0,0.0,0.0,0.0,0.0,0.0,0.0,0.0,0.0,-4.1177,-4.1247,-4.5357,-4.8841,-5.002,-5.205,-5.3673,-5.4616,-5.4731,-5.5672,-5.7945,-5.7929,-5.8461,-6.0053,-6.0276,-6.0296,-6.0207,-6.0889,-6.1285,-6.1355,-6.279,-6.3701,-6.4114,-6.4404,-6.486,-6.5412,-6.4746,-6.5731,-6.7988,-6.7405,-6.8326,-7.0166,-6.9423,-6.9211,-6.9141,-6.7048,-6.6124,-6.6018,-6.696,-6.7275,-6.7275,-6.6934,-6.7605,-6.8453,-6.7682,-6.7893,-6.842,-6.7964,-6.789,-6.7814,-6.708,-6.6903,-6.6869,-6.67,-6.7937,-6.9281,-6.9531,-7.1197,-7.2692,-7.2477,-7.3261,-7.4083,-7.4225,-7.394,-7.4011,-7.501,-7.4901,-7.5006,-7.5901,-7.6148,-7.6716,-7.8262,-7.8592,-7.8701,-7.884,-7.8167,-7.7379,-7.6549,-7.5801,-7.4723,-7.3187,-7.3651,-7.315,-7.1426,-7.1185,-6.9689,-6.6692,-6.5518,-6.4111,0.0,0.0,0.0,0.0,0.0,0.0,0.0,0.0,0.0,0.0,0.0,0.0,0.0,0.0,0.0,0.0,0.0,0.0,0.0,0.0,0.0,0.0,-4.2432,-4.4867,-4.6176,-4.896,-5.1322,-5.2526,-5.37,-5.4777,-5.566,-5.5821,-5.6631,-5.8401,-5.8757,-5.9411,-6.0543,-6.099,-6.0899,-6.0386,-6.1417,-6.1875,-6.1682,-6.3306,-6.4326,-6.4672,-6.4867,-6.5261,-6.5776,-6.5251,-6.6167,-6.8285,-6.8044,-6.8822,-7.0166,-6.9777,-6.9635,0.0,0.0,0.0,0.0,0.0,-6.7634,-6.8199,-6.7401,-6.8284,-6.9661,-6.8959,-6.9384,-7.0128,-6.9812,-6.9776,-6.9599,-6.8575,-6.8433,-6.8536,-6.8397,-6.9423,-7.0628,-7.102,-7.2513,-7.3619,-7.3012,-7.3761,-7.444,-7.4225,-7.4368,0.0,-7.5118,-7.4794,-7.4828,-7.5796,-7.6251,-7.6961,-7.8079,-7.8796,-7.9117,-7.8722,-7.8198,-7.7591,-7.6939,-7.6159,0.0,0.0,0.0,-7.3795,-7.1502,-7.0582,0.0,0.0,0.0,-6.5711,-6.4824,-6.5188,0.0,0.0,-6.2402,-6.2152,0.0,0.0,0.0,0.0,0.0,0.0,0.0,0.0,0.0,0.0,0.0,0.0,0.0,0.0,0.0,0.0,-4.5601,-4.8546,-5.1652,-5.2057,-5.263,-5.418,-5.498,-5.5672,-5.6382,-5.6985,-5.7641,-5.8349,-5.9248,-5.9992,-6.0512,0.0,0.0,0.0,0.0,-6.2485,-6.2654,-6.3519,-6.4479,-6.551,-6.5439,-6.5701,-6.6282,-6.6176,-6.6988,-6.8576,-6.8576,-6.9177,-7.0166,-6.9317,-6.9171,-6.9338,-6.8315,-6.7435,-6.6555,-6.5143,-6.5767,-6.7275,-6.6808,0.0,0.0,-7.0239,-7.0771,-7.1588,-7.2116,-7.2186,-7.1865,-7.0756,-7.0657,-7.0877,-7.0877,-7.1694,-7.2549,-7.2763,-7.4047,-7.4618,-7.2548,-7.3726,-7.4796,-7.3333,-7.4225,-7.5189,-7.5152,-7.4582,-7.4368,-7.5188,-7.6322,-7.7172,-7.754,-7.8707,-7.9309,-7.8862,0.0,0.0,-7.7508,-7.6372,-7.5586,-7.5371,-7.5406,-7.4154,-7.1291,-6.9517,-6.7986,-6.6717,-6.747,-6.7799,-6.7729,-6.9405,-7.0025,-6.9573,-6.625,-6.5651,0.0,0.0,0.0,0.0,0.0,0.0,0.0,0.0,0.0,0.0,0.0,0.0,0.0,0.0,0.0,-4.6581,-4.8686,-5.0912,-5.3954,-5.4378,-5.4922,-5.6489,-5.737,-5.7846,-5.7907,-5.8436,-5.8875,-5.9016,-5.9628,-6.0058,-6.0167,-6.0973,-6.1235,-6.0854,-6.275,-6.3658,-6.3483,-6.4756,-6.5518,-6.5704,0.0,0.0,-6.6818,-6.601,-6.6834,-6.8891,-6.8961,-6.9456,-7.0202,-7.0198,-7.0196,-7.0087,-6.8493,-6.8243,-6.8669,-6.7939,-6.8469,-6.9633,-6.9848,-7.0342,-7.1054,-7.1584,-7.1867,-7.2081,-7.2186,-7.1796,0.0,-7.0487,-6.9849,-6.9456,-6.9594,-7.0766,-7.2014,-7.2655,-7.4047,-7.5082,-7.4618,-7.4868,-7.5118,-7.4796,-7.501,-7.5152,-7.4968,-7.4826,-7.5004,-7.5785,-7.6138,-7.674,-7.7866,-7.8491,-7.8999,-7.938,-7.901,-7.8373,-7.7544,-7.6947,-7.6231,-7.5297,-7.5079,-7.4794,-7.4333,-7.2898,-7.1794,-7.109,-7.0339,-7.0222,-7.0817,-7.0567,-7.1336,-7.2984,-7.0412,-6.9115,0.0,0.0,0.0,0.0,0.0,0.0,0.0,0.0,0.0,0.0,0.0,-3.9388,0.0,0.0,-4.615,-4.9457,-5.0937,-5.2571,-5.5233,-5.5858,-5.6184,-5.6553,-5.724,-5.7677,-5.7618,-5.8532,-5.8932,-5.8602,-5.9597,-6.0234,-6.0199,-6.1069,-6.1443,-6.1238,-6.3119,-6.3918,-6.3541,-6.4955,-6.5707,-6.5804,-6.5707,-6.6002,-6.6718,-6.7009,-6.7689,-6.8647,-6.9352,-6.9742,-6.992,-7.0132,-7.0202,-7.0131,-6.9245,-6.9243,-6.9702,-6.914,-6.9671,-7.0629,-7.0619,-7.1362,-7.2291,-7.2533,-7.2922,-7.3239,-7.3239,-7.2917,-7.2456,-7.1829,-7.1335,-7.1124,-7.141,-7.2122,-7.2941,-7.3761,-7.4618,-7.5225,-7.5225,-7.5225,-7.5152,-7.5079,-7.5042,-7.4968,-7.4782,-7.4744,-7.5066,-7.5958,-7.5877,-7.6405,-7.82,-7.8377,-7.8555,-7.8946,-7.8541,-7.8012,-7.7393,-7.7264,-7.6802,-7.5831,-7.561,-7.518,-7.4472,-7.36,-7.2809,-7.2144,-7.1458,-7.123,-7.1539,-7.1539,-7.1925,-7.2696,-7.215,-7.163,0.0,0.0,0.0,0.0,0.0,0.0,0.0,0.0,-3.79,-3.9522,-4.141,-4.3462,-4.5889,-4.7287,-4.8944,-5.1668,-5.2607,-5.3646,-5.5616,-5.6425,-5.6516,-5.5709,-5.6505,-5.7152,-5.7298,-5.8448,-5.9011,-5.8466,-5.9734,-6.0544,-6.0509,-6.1408,-6.1966,-6.2107,-6.3518,-6.4105,-6.3783,-6.4938,-6.5649,-6.6053,-6.6497,-6.6794,-6.7013,-6.8289,-6.8788,-6.8608,-6.9637,-6.992,-6.967,-6.9778,-6.9849,-6.9885,-6.9849,-6.992,-7.0026,-6.9597,-7.0125,-7.1015,-7.0787,-7.1847,-7.331,-7.33,-7.3681,-7.4248,-7.4248,-7.4132,-7.3909,-7.3435,-7.3373,-7.3487,-7.3824,-7.3971,-7.4222,-7.501,-7.5225,-7.5225,-7.5225,-7.5225,-7.5152,-7.5005,-7.4968,-7.4894,-7.4669,-7.4669,-7.4882,-7.5669,-7.5475,-7.6041,-7.8028,-7.7983,-7.7941,-7.8342,-7.7858,-7.7362,-7.7067,-7.7181,-7.6973,-7.6188,-7.5966,-7.5285,-7.4042,-7.3458,-7.2882,-7.2282,-7.1953,-7.1763,-7.1672,-7.2442,-7.2582,-7.2162,-7.3028,-7.3142,-3.4796,-3.4169,-3.4176,-3.4934,-3.5218,-3.5885,0.0,0.0,-4.0546,-4.2236,-4.4848,-4.714,-4.8032,-4.9386,-5.1043,-5.3211,-5.3647,-5.3929,-5.4663,-5.5383,-5.5501,-5.4582,-5.6464,-5.8114,-5.8698,-5.9475,-5.9931,-5.9858,-6.0701,-6.1192,-6.1192,-6.1928,-6.2697,-6.3531,-6.4448,-6.5039,-6.5261,-6.5308,-6.5835,-6.6839,-6.6746,-6.7496,-6.8984,-6.9162,-6.942,-6.9707,-6.9671,-6.9742,-6.9849,-6.9706,-6.9742,-6.9884,-6.956,-6.9524,-6.967,-6.9598,-7.0126,-7.0902,-7.1417,-7.2152,-7.2999,-7.3663,-7.3979,-7.4049,-7.4049,-7.401,-7.4014,-7.4142,-7.4261,-7.4452,-7.4715,-7.49,-7.5045,-7.5189,-7.5225,-7.5225,-7.5225,-7.5225,-7.5189,-7.5152,-7.5188,-7.5079,-7.4894,-7.4857,-7.478,-7.4508,-7.4773,-7.5418,-7.6667,-7.6666,-7.7074,-7.8274,-7.7858,-7.7223,-7.6543,-7.6509,-7.6188,-7.5403,-7.5148,-7.5004,-7.5045,-7.3965,-7.3317,-7.3246,-7.2574,-7.235,-7.2637,-7.3604,-7.4307,-7.4672,-7.4167,-7.3182,-3.5038,-3.5408,0.0,0.0,-3.7594,-3.9119,-4.1139,-4.2481,-4.3643,-4.4895,-4.6768,-4.8272,-4.8556,-4.9829,-5.1379,0.0,-5.3184,-5.3487,-5.457,-5.4917,-5.4726,-5.3894,-5.4804,-5.6104,-5.7469,-5.8374,-5.8862,-5.8862,-5.996,-6.0455,-6.0093,-6.1155,-6.2207,-6.3146,-6.3886,-6.4687,-6.5477,-6.5412,-6.5969,-6.6981,-6.7344,-6.7814,-6.8355,-6.9485,-7.0056,-7.0062,-6.9669,-6.9597,-6.9706,-6.956,-6.9524,-6.9632,-6.9449,-6.9449,-6.9487,-6.9487,-6.9943,-7.0752,-7.1485,-7.2184,-7.2922,-7.3729,-7.401,-7.401,-7.401,-7.401,-7.4088,-7.4364,-7.4517,-7.4669,-7.4968,-7.5116,-7.5225,-7.5225,-7.5225,-7.5225,-7.5225,-7.5225,-7.5188,-7.5042,-7.5005,-7.4968,-7.4744,-7.4819,-7.4961,-7.5154,-7.495,-7.5312,-7.6914,-7.6603,-7.6502,-7.7181,-7.7713,-7.7395,-7.5831,-7.6117,-7.6045,-7.526,-7.5116,-7.5042,-7.5005,-7.4537,-7.4173,-7.3946,-7.3741,-7.3628,-7.3678,-7.453,-7.5059,-7.5297,-7.567,-7.4693,-3.5439,0.0,0.0,-3.7887,-3.9661,-4.1707,-4.3332,-4.4657,-4.5892,-4.7046,-4.797,-4.8632,-4.8656,-4.9514,-5.0698,-5.2097,-5.2157,-5.251,-5.3926,-5.4083,-5.3737,-5.2952,-5.2883,-5.3637,-5.5549,-5.677,-5.7645,-5.8224,-5.9397,-6.003,-5.9773,-6.0768,-6.182,-6.2969,-6.3498,-6.4334,-6.5477,-6.5445,-6.5969,-6.7017,-6.7698,-6.8064,-6.8109,-6.9453,-6.9917,-6.9707,-6.9278,-6.9238,-6.956,-6.9449,-6.9412,-6.9412,-6.9412,-6.9412,-6.9412,-6.9412,-6.9867,-7.0639,-7.1447,-7.2184,-7.2922,-7.3729,-7.401,-7.401,-7.401,-7.401,-7.4088,-7.4325,-7.4479,-7.4593,-7.4857,-7.5005,-7.5116,-7.5116,-7.5116,-7.5116,-7.5116,-7.5042,-7.5005,-7.4931,-7.4894,-7.4857,-7.4782,-7.4894,-7.5216,-7.5847,-7.5492,-7.5745,-7.7502,-7.7215,-7.6787,-7.6723,-7.7787,-7.7749,-7.601,-7.6581,-7.6688,-7.5903,-7.5653,-7.5472,-7.5326,-7.5038,-7.4744,-7.4402,-7.4517,-7.4479,-7.4209,-7.509,-7.5658,-7.5904,-7.6987,-7.6608,0.0,0.0,-3.7561,-3.9823,-4.1577,-4.3177,-4.4858,-4.5727,-4.6654,-4.8275,-4.8566,-4.8524,-4.8518,-4.852,-4.9029,-5.0378,-5.0552,-5.1033,-5.227,-5.2573,-5.2368,-5.1571,-5.1019,-5.1444,0.0,-5.503,-5.6788,-5.8839,-5.9685,-6.0423,-6.1195,-6.1265,-6.2066,-6.371,-6.378,-6.4334,-6.5477,-6.5382,-6.5871,-6.7017,-6.7601,-6.8384,-6.9231,-6.8961,-6.8752,-6.854,-6.8324,-6.8673,-6.9412,-6.9412,-6.9412,-6.9412,-6.9412,-6.9412,-6.9412,-6.9412,-6.9867,-7.0639,-7.1447,-7.2184,-7.2922,-7.3729,-7.401,-7.401,-7.401,-7.401,-7.401,-7.401,-7.4132,-7.4325,-7.4325,-7.4631,-7.4931,-7.4931,-7.4931,-7.4931,-7.4931,-7.4744,-7.4669,-7.4857,-7.4894,-7.4968,-7.5152,-7.5188,-7.5474,-7.6259,-7.6367,-7.6827,-7.8203,-7.8535,-7.8329,-7.7544,-7.8186,-7.8329,-7.7508,-7.8151,-7.8294,-7.7473,-7.6759,-7.6367,-7.6367,-7.5432,-7.4819,-7.4593,-7.4593,-7.4438,-7.401,-7.5288,-7.6278,-7.7052,-7.8078,-7.8536,0.0,0.0,-3.9621,-4.0807,-4.2638,-4.454,-4.6126,-4.7016,-4.7662,-4.8402,-4.882,-4.8762,-4.7875,-4.8027,-4.8789,-5.039,-5.0018,-5.0272,-5.2316,-5.2644,-5.2365,-5.1569,-5.1893,0.0,0.0,0.0,0.0,-5.6788,-5.8099,-5.9006,-5.938,-6.0618,-6.1953,-6.3364,-6.3798,-6.4534,-6.5707,-6.5675,-6.6349,-6.7731,-6.8315,-6.8814,-6.9132,-6.8221,-6.7764,-6.7729,-6.8043,-6.8357,-6.8638,-6.9165,-6.9412,-6.9412,-6.9412,-6.9412,-6.9412,-6.9412,-6.9551,-6.9937,-7.1271,-7.2184,-7.296,-7.3885,-7.4128,-7.4049,-7.4132,-7.4128,-7.4049,-7.417,-7.4248,-7.4364,-7.4631,-7.4819,-7.4894,-7.4894,-7.4894,-7.4857,-7.4744,-7.4744,-7.4819,-7.4894,-7.5005,-7.5116,-7.5189,-7.5653,-7.6438,-7.7723,-7.7473,-7.7257,-7.7754,-7.8327,-7.8365,-7.758,-7.8686,-7.8936,-7.7615,-7.8108,-7.796,-7.6678,-7.6171,-7.5705,-7.5208,-7.4886,-7.4593,-7.4402,-7.4626,-7.4582,-7.4264,-7.4787,-7.5846,-7.7414,-7.8207,-7.8223,-3.7931,-3.9319,-4.0675,-4.1531,-4.3202,-4.492,-4.586,-4.6801,-4.756,-4.7803,-4.7702,-4.7375,-4.6493,-4.6507,-4.716,-4.8755,-4.8877,-4.9553,-5.1631,-5.1948,-5.1779,-5.1262,-5.1848,-5.2498,0.0,0.0,0.0,-5.6399,-5.7588,-5.8491,-5.9081,-6.0537,-6.1941,-6.3164,-6.3886,-6.4696,-6.5804,-6.5804,-6.6414,-6.7596,-6.8281,-6.857,-6.8466,-6.794,-6.7518,-6.7236,-6.7902,-6.8217,-6.8287,-6.906,-6.9412,-6.9412,-6.9412,-6.9412,-6.9412,-6.9412,-6.9551,-6.9972,-7.1271,-7.2009,-7.2609,-7.378,-7.4128,-7.4049,-7.4132,-7.4092,-7.4049,-7.4132,-7.417,-7.4248,-7.4517,-7.4631,-7.4707,-7.4707,-7.4707,-7.4669,-7.4517,-7.4593,-7.4707,-7.4782,-7.4894,-7.5112,-7.5545,-7.6509,-7.7544,-7.8543,-7.8508,-7.8365,-7.8365,-7.8793,-7.8936,-7.8401,-7.9293,-7.9471,-7.8436,-7.8636,-7.8413,-7.7418,-7.6586,-7.5939,-7.5443,-7.48,-7.4441,-7.4361,-7.4435,-7.4424,-7.4256,-7.5098,-7.6303,-7.7907,-7.8376,-7.8287,-3.9787,-4.042,-4.0775,-4.2006,-4.3359,-4.4366,-4.4291,-4.5376,-4.6396,-4.6484,-4.5481,-4.4542,0.0,0.0,-4.4212,-4.5731,-4.7263,-4.8781,-5.0286,-5.0637,-5.0736,0.0,0.0,0.0,0.0,0.0,0.0,-5.757,0.0,-5.8784,-6.0246,-6.1062,-6.2036,-6.3204,-6.3982,-6.486,-6.5772,-6.5807,-6.6135,-6.6718,-6.7536,-6.7688,-6.7341,-6.8082,-6.7905,-6.7058,-6.7866,-6.8217,-6.8287,-6.906,-6.9412,-6.9412,-6.9412,-6.9412,-6.9412,-6.9412,-6.9832,-7.0569,-7.1377,-7.1693,-7.2009,-7.3448,-7.3975,-7.401,-7.401,-7.401,-7.401,-7.401,-7.401,-7.401,-7.401,-7.4132,-7.4287,-7.4287,-7.4287,-7.4287,-7.4287,-7.4287,-7.4364,-7.4555,-7.4593,-7.4993,-7.6185,-7.7615,-7.865,-7.8686,-7.9364,-7.9899,-7.9899,-7.9899,-7.9899,-7.9899,-7.9899,-7.9899,-7.9864,-7.9669,-7.9475,-7.9404,-7.7752,-7.6784,-7.6749,-7.514,-7.4322,-7.4357,-7.4233,-7.4106,-7.4127,-7.6192,-7.765,-7.8565,-7.8581,-7.8574,-4.0709,-4.1298,-4.1828,-4.245,-4.3323,-4.4249,-4.5127,-4.5735,-4.6024,-4.5598,-4.4741,-4.3797,0.0,0.0,0.0,-4.5419,-4.6641,0.0,-5.0075,-5.0911,0.0,-5.1322,0.0,-5.3052,-5.3335,-5.4679,0.0,0.0,-5.7559,-5.79,-5.9222,-6.068,-6.222,-6.3825,-6.4202,-6.4731,-6.5447,-6.6114,-6.6538,-6.6718,-6.7536,-6.7688,-6.7306,-6.7517,-6.7377,-6.7058,-6.7866,-6.8217,-6.8287,-6.906,-6.9412,-6.9412,-6.9412,-6.9412,-6.9412,-6.9412,-6.9553,-6.9762,-7.0534,-7.1552,-7.2609,-7.3146,-7.3635,-7.4049,-7.417,-7.4092,-7.401,-7.401,-7.401,-7.4049,-7.417,-7.4248,-7.4287,-7.4287,-7.4287,-7.4248,-7.4128,-7.417,-7.4325,-7.4364,-7.4631,-7.5143,-7.6222,-7.7187,-7.8008,-7.8579,-7.9364,-7.9899,-7.9899,-7.9899,-7.9899,-7.9899,-7.9899,-7.965,-7.9043,-7.8697,-7.7965,-7.6831,-7.6023,-7.5293,-7.4765,-7.4291,-7.4115,-7.4088,-7.5173,-7.573,-7.5725,-7.7415,-7.821,-7.8224,-7.8116,-7.8186,-4.1848,-4.1905,-4.189,-4.2346,-4.3043,-4.3694,-4.3929,-4.451,-4.4593,-4.3079,-4.231,0.0,0.0,0.0,0.0,0.0,0.0,0.0,-4.9157,-5.0357,-5.1058,0.0,-5.2687,0.0,-5.3627,-5.4953,-5.6304,0.0,-5.7635,-5.8384,-6.0084,-6.1357,-6.2711,-6.4176,-6.466,-6.5083,-6.5513,-6.5972,-6.633,-6.6585,-6.7298,-6.7657,-6.7693,-6.8081,-6.7974,-6.7585,0.0,-6.8533,-6.8287,-6.906,-6.9412,-6.9412,-6.9412,-6.9412,-6.9448,-6.9762,-6.9656,-6.9481,-7.0141,-7.1119,-7.2209,-7.2791,-7.3421,-7.4049,-7.4132,-7.4088,-7.401,-7.401,-7.401,-7.4049,-7.4132,-7.417,-7.417,-7.417,-7.417,-7.4132,-7.4049,-7.4132,-7.4287,-7.4287,-7.499,-7.5682,-7.6071,-7.6896,-7.7758,-7.8579,-7.9079,-7.9507,-7.9864,-7.9899,-7.9861,-7.9779,-7.9743,-7.9384,-7.8487,-7.8461,-7.7802,-7.6246,-7.5825,-7.5309,-7.4682,-7.4212,-7.4321,-7.5007,-7.5635,-7.6368,-7.7287,-7.7802,-7.8175,-7.8294,-7.8237,-7.8062,-4.2973,-4.2264,-4.1568,-4.2049,-4.2664,-4.2916,-4.1999,-4.2545,-4.2588,-4.0147,0.0,-3.907,-3.8971,0.0,-4.1017,-4.2683,0.0,-4.673,-4.7832,-4.9305,-5.0325,-5.0439,-5.2481,-5.3815,-5.3599,-5.4524,-5.5778,-5.7277,-5.7994,-5.9384,-6.1703,-6.2287,-6.3129,-6.4305,-6.5054,-6.551,-6.574,-6.551,-6.5736,-6.6314,-6.6953,-6.7587,-6.8216,-6.8988,-6.8989,-6.8392,-6.9095,-6.8884,-6.8112,-6.9024,-6.927,-6.9058,-6.9305,-6.9376,-6.9444,-7.0181,-7.004,-6.9584,-7.0129,-7.0787,-7.1521,-7.2349,-7.3234,-7.397,-7.401,-7.401,-7.401,-7.401,-7.401,-7.401,-7.401,-7.401,-7.401,-7.401,-7.401,-7.401,-7.401,-7.4132,-7.4287,-7.4287,-7.5312,-7.6038,-7.5735,-7.664,-7.758,-7.8255,-7.8434,-7.8755,-7.9429,-7.9715,-7.9783,-7.9621,-7.9582,-7.9112,-7.8027,-7.8322,-7.7918,-7.6367,-7.6097,-7.5806,-7.5319,-7.4466,-7.4822,-7.6574,-7.6172,-7.68,-7.8606,-7.7913,-7.7901,-7.849,-7.8483,-7.8014,-4.3071,-4.2597,-4.2323,-4.2093,-4.2226,-4.2268,-4.1763,-4.1571,0.0,0.0,0.0,-3.7896,-3.7335,-3.8048,0.0,-4.0806,0.0,0.0,0.0,0.0,-4.9412,0.0,0.0,0.0,0.0,0.0,0.0,0.0,0.0,-5.9359,-6.1756,-6.1915,-6.2627,-6.4111,-6.4758,-6.5182,-6.5382,-6.5216,-6.5367,-6.5935,-6.6672,-6.7373,-6.7996,-6.8803,-6.9157,-6.92,-6.9342,0.0,-6.7339,-6.8779,-6.853,-6.7333,-6.8847,-6.9302,-6.9258,-6.9955,-7.0164,-7.0164,-7.0667,-7.139,-7.1987,-7.1734,-7.2617,-7.3812,-7.397,-7.401,-7.401,-7.401,-7.401,-7.401,-7.401,-7.401,-7.401,-7.401,-7.401,-7.401,-7.401,-7.4049,-7.4092,-7.4248,-7.4623,-7.4957,-7.5032,-7.5897,-7.6579,-7.6534,-7.7065,-7.7453,-7.744,-7.8729,-7.9661,-7.9621,-7.9427,-7.8665,-7.7248,-7.7051,-7.6332,-7.489,-7.4514,-7.4361,-7.4256,-7.4087,-7.5339,-7.8125,-7.8078,-7.8236,-7.8606,-7.8455,-7.8272,-7.8023,-7.7876,-7.7719,-4.2952,-4.2786,-4.2846,-4.3065,-4.284,-4.2364,-4.1268,0.0,0.0,0.0,0.0,-3.6345,-3.5665,0.0,0.0,0.0,0.0,0.0,0.0,0.0,0.0,0.0,0.0,0.0,0.0,0.0,0.0,0.0,0.0,-5.9269,-6.1573,-6.2425,-6.3382,-6.4548,-6.4937,-6.5216,-6.5316,-6.5115,-6.5476,-6.6426,-6.6706,-6.7438,-6.8553,-6.8903,-6.919,-6.9412,-6.9412,-6.8917,-6.8176,-6.9332,-6.901,-6.788,-6.9031,-6.952,-6.9589,-7.024,-7.0519,-7.0702,-7.127,-7.1712,-7.1955,-7.1728,-7.2509,-7.3496,-7.3617,-7.3617,-7.3657,-7.3777,-7.3852,-7.3891,-7.397,-7.401,-7.401,-7.401,-7.401,-7.401,-7.401,-7.4088,-7.4132,-7.4132,-7.4364,-7.4593,-7.4593,-7.5064,-7.5567,-7.5879,-7.6234,-7.6586,-7.6863,-7.7567,-7.8204,-7.8629,-7.8544,-7.7969,-7.672,-7.6785,-7.6111,-7.4272,-7.4796,-7.4827,-7.4045,-7.4778,-7.5881,-7.7369,-7.8224,-7.8335,-7.7824,-7.8259,-7.8256,-7.7893,-7.7798,-7.7502,-4.2378,-4.2689,-4.326,-4.382,-4.3382,-4.2402,-4.0866,-3.9939,0.0,0.0,-3.4995,-3.5,-3.4472,0.0,0.0,0.0,0.0,0.0,0.0,0.0,0.0,0.0,0.0,0.0,0.0,0.0,0.0,0.0,0.0,0.0,-6.1354,-6.2936,-6.4064,-6.4631,-6.5186,-6.5463,-6.543,-6.5368,-6.597,-6.7125,-6.6944,-6.7566,-6.8965,-6.8965,-6.9078,-6.9264,-6.9264,-6.898,-6.8621,-6.9666,-6.9447,-6.8489,-6.9307,-6.9758,-7.0045,-7.0395,-7.0747,-7.1145,-7.178,-7.194,-7.1946,-7.2022,-7.2602,-7.3252,-7.3293,-7.3293,-7.3334,-7.3537,-7.3652,-7.3732,-7.3891,-7.397,-7.401,-7.397,-7.397,-7.401,-7.397,-7.4053,-7.4132,-7.397,-7.4245,-7.4402,-7.4248,-7.4441,-7.4806,-7.5404,-7.5511,-7.5649,-7.6211,-7.6266,-7.6539,-7.7133,-7.752,-7.7303,-7.6227,-7.6724,-7.6232,-7.4115,-7.5143,-7.5248,-7.4045,-7.5143,-7.5891,-7.6107,-7.7544,-7.7907,-7.7076,-7.7922,-7.8143,-7.7841,-7.7841,-7.7363,-4.1095,-4.2168,-4.3565,-4.3562,-4.2909,-4.1968,-4.0861,0.0,0.0,0.0,-3.4521,-3.4341,-3.4387,-3.4517,0.0,0.0,0.0,0.0,0.0,0.0,0.0,0.0,0.0,0.0,0.0,0.0,0.0,0.0,0.0,0.0,-6.116,-6.2835,-6.3717,-6.3449,-6.5196,-6.6003,-6.5864,-6.6319,-6.6872,-6.7559,-6.7333,-6.7673,-6.8474,-6.8474,-6.8551,-6.8781,-6.8781,-6.7942,0.0,-6.9022,-6.8937,-6.7565,-6.902,-6.9906,-7.0325,-7.0155,-7.0519,-7.1316,-7.1996,-7.227,-7.2313,-7.2525,-7.2811,-7.3088,-7.3252,-7.3293,-7.3334,-7.3334,-7.3496,-7.3732,-7.3732,-7.3891,-7.397,-7.3772,-7.3891,-7.397,-7.3772,-7.3772,-7.3772,-7.3732,-7.3931,-7.4049,-7.4049,-7.4361,-7.4553,-7.454,-7.4467,-7.4389,-7.4264,-7.4822,-7.5279,-7.5349,-7.6614,-7.693,-7.567,-7.6497,-7.6211,-7.415,-7.4137,-7.4172,-7.401,-7.4137,-7.4632,-7.5529,-7.6678,-7.718,-7.7076,-7.7922,-7.8058,-7.7657,-7.7657,-7.7456,-4.0148,-4.2154,-4.4136,-4.4615,-4.336,-4.1685,-4.0656,0.0,0.0,-3.4308,-3.3604,-3.3248,-3.2913,-3.2868,-3.3626,0.0,0.0,0.0,0.0,0.0,0.0,0.0,0.0,0.0,0.0,0.0,0.0,0.0,0.0,0.0,-6.1564,-6.2362,-6.3131,-6.3939,-6.4638,-6.4988,-6.4882,-6.5543,-6.6056,-6.6519,-6.7042,-6.7627,-6.8201,-6.8358,-6.8513,-6.8705,-6.859,-6.7607,0.0,-6.8887,-6.8693,-6.6981,-6.9262,-7.0351,-7.0591,-7.0379,-7.0892,-7.1705,-7.2185,-7.2245,-7.2202,-7.2586,-7.2628,-7.2628,-7.288,-7.2963,-7.2963,-7.3088,-7.3211,-7.3334,-7.3652,-7.3852,-7.397,-7.3772,-7.3852,-7.397,-7.3772,-7.3812,-7.3891,-7.3891,-7.397,-7.397,-7.3852,-7.3935,-7.3975,-7.3737,-7.3856,-7.3856,-7.3617,-7.3977,-7.4192,-7.4036,-7.5364,-7.6041,-7.5563,-7.5353,-7.4857,-7.4047,-7.3496,-7.3217,-7.3203,-7.3961,-7.431,-7.4031,-7.5463,-7.614,-7.5999,-7.6764,-7.7216,-7.7357,-7.7357,-7.7313,-3.8439,-4.0906,-4.3221,-4.4152,-4.2902,-4.1078,0.0,0.0,0.0,-3.3381,-3.2713,-3.2284,-3.181,-3.182,-3.2662,0.0,0.0,0.0,0.0,0.0,0.0,0.0,0.0,0.0,0.0,0.0,0.0,0.0,0.0,0.0,-6.195,-6.2088,-6.2752,-6.4182,-6.4425,-6.4633,-6.4876,-6.5497,-6.6003,-6.6497,-6.7126,-6.764,-6.8004,-6.8201,-6.8154,-6.7888,-6.8146,-6.7057,0.0,-6.8582,-6.8658,-6.6997,-6.951,-7.0701,-7.0968,-7.0299,-7.0818,-7.1776,-7.1755,-7.1867,-7.2072,-7.2459,-7.2501,-7.2459,-7.2628,-7.2713,-7.2713,-7.288,-7.3005,-7.317,-7.3577,-7.3812,-7.3852,-7.3617,-7.3737,-7.3852,-7.3617,-7.3772,-7.3931,-7.3931,-7.3931,-7.3891,-7.3732,-7.3772,-7.3657,-7.3276,-7.3502,-7.3577,-7.3264,-7.3421,-7.3496,-7.3369,-7.4251,-7.4932,-7.5037,-7.5271,-7.5242,-7.498,-7.3537,-7.2864,-7.3241,-7.3786,-7.3774,-7.3189,-7.4469,-7.5177,-7.5163,-7.5968,-7.6597,-7.7054,-7.7168,-7.703,-3.5638,-3.8002,-4.0124,-4.1326,-4.1057,-4.0034,0.0,0.0,0.0,-3.2404,-3.1791,-3.15,-3.1485,-3.1728,-3.2533,-3.447,0.0,0.0,0.0,0.0,0.0,0.0,0.0,0.0,0.0,0.0,0.0,0.0,0.0,0.0,-6.232,-6.2188,-6.2648,-6.3858,-6.4802,-6.5677,-6.6477,-6.6831,-6.7325,-6.8083,-6.7885,-6.7799,-6.7799,-6.8004,-6.729,-6.5979,-6.7266,-6.6122,0.0,-6.7933,-6.8842,-6.7715,-6.9714,-7.0954,-7.1396,-6.9742,-7.006,-7.1255,-7.0697,-7.1197,-7.2029,-7.2245,-7.2501,-7.2671,-7.2713,-7.2713,-7.2713,-7.2713,-7.3005,-7.3375,-7.3617,-7.3692,-7.3652,-7.3375,-7.3496,-7.3617,-7.3375,-7.3496,-7.3732,-7.3732,-7.3732,-7.3692,-7.3692,-7.3891,-7.3786,-7.3158,-7.3442,-7.3542,-7.3154,-7.3223,-7.3369,-7.3473,-7.3403,-7.3514,-7.3979,-7.6817,-7.8133,-7.7256,-7.4371,-7.3254,-7.4552,-7.3331,-7.2838,-7.3293,-7.3816,-7.4368,-7.4903,-7.5784,-7.6376,-7.6725,-7.7045,-7.6654,-3.3951,-3.5931,-3.7517,-3.8652,-3.7828,-3.6576,-3.5887,0.0,0.0,0.0,-3.1564,-3.1327,-3.1355,-3.1504,-3.2245,-3.4144,0.0,0.0,0.0,0.0,0.0,0.0,0.0,0.0,0.0,0.0,0.0,0.0,0.0,0.0,-6.2544,-6.2684,-6.3066,-6.3892,-6.4691,-6.5103,-6.5045,-6.6204,-6.6764,-6.6649,-6.7317,-6.7516,-6.7387,-6.7597,-6.7439,-6.7027,-6.7305,-6.5687,-6.3192,-6.7513,-6.7802,-6.5902,-6.9616,-7.1164,-7.1334,-7.077,-7.0906,-7.1323,-7.1274,-7.144,-7.1776,-7.2029,-7.2245,-7.2416,-7.2416,-7.2544,-7.2713,-7.2713,-7.288,-7.3129,-7.3211,-7.3334,-7.3375,-7.317,-7.3415,-7.3652,-7.3375,-7.3617,-7.3931,-7.3931,-7.3931,-7.3777,-7.3496,-7.3496,-7.338,-7.2866,-7.306,-7.3129,-7.2887,-7.297,-7.3046,-7.2957,-7.2935,-7.3073,-7.349,-7.607,-7.7069,-7.5721,-7.4213,-7.3567,-7.3987,-7.2939,-7.239,-7.2416,-7.2888,-7.3439,-7.4075,-7.4586,-7.556,-7.7033,-7.6439,-7.598,0.0,-3.368,-3.4949,-3.5967,-3.5283,0.0,0.0,0.0,0.0,0.0,0.0,0.0,0.0,0.0,0.0,0.0,0.0,0.0,0.0,0.0,0.0,0.0,0.0,0.0,0.0,0.0,0.0,0.0,0.0,0.0,-6.2645,-6.2962,-6.3309,-6.3783,-6.4581,-6.4954,-6.4927,-6.6009,-6.6519,-6.6466,-6.7066,-6.7346,-6.7304,-6.7469,-6.7208,-6.6736,-6.7066,-6.5481,0.0,-6.6998,-6.7387,-6.5797,-6.9451,-7.1075,-7.1278,-7.1063,-7.1175,-7.1378,-7.125,-7.1494,-7.1864,-7.1854,-7.2072,-7.2331,-7.2331,-7.2501,-7.2713,-7.2713,-7.2838,-7.3116,-7.3476,-7.3378,-7.324,-7.3517,-7.3502,-7.3375,-7.3211,-7.3496,-7.3737,-7.3737,-7.3737,-7.3657,-7.3375,-7.3293,-7.3211,-7.288,-7.2922,-7.2922,-7.2713,-7.2797,-7.2838,-7.2713,-7.2689,-7.2758,-7.2816,-7.5161,-7.6002,-7.455,-7.386,-7.3576,-7.374,-7.2751,-7.2159,-7.2115,-7.2373,-7.2853,-7.3499,-7.4377,-7.5402,-7.6633,-7.6004,-7.5293,0.0,0.0,0.0,0.0,0.0,0.0,0.0,0.0,0.0,0.0,0.0,0.0,0.0,0.0,0.0,0.0,0.0,0.0,0.0,0.0,0.0,0.0,0.0,0.0,0.0,0.0,0.0,0.0,0.0,0.0,-6.2749,-6.3206,-6.3484,-6.3602,-6.4579,-6.5305,-6.5769,-6.6171,-6.6602,-6.7044,-6.7188,-6.7236,-6.7339,-6.7441,-6.6804,0.0,-6.6596,-6.5447,-6.3096,-6.6388,-6.7387,-6.7049,-6.9316,-7.0635,-7.1255,-7.0765,-7.1022,-7.1542,-7.0818,-7.1361,-7.2245,-7.1776,-7.1873,-7.2219,-7.2253,-7.2501,-7.2671,-7.2671,-7.2838,-7.322,-7.4191,-7.3684,-7.322,-7.4226,-7.3684,-7.3005,-7.3005,-7.317,-7.3293,-7.3293,-7.3293,-7.3293,-7.3293,-7.3293,-7.3211,-7.3005,-7.3005,-7.2922,-7.2713,-7.2713,-7.2713,-7.2713,-7.2671,-7.249,-7.2062,-7.4196,-7.5057,-7.3791,-7.3391,-7.3367,-7.3766,-7.2656,-7.2072,-7.2279,-7.2175,-7.257,-7.3368,-7.4922,-7.5651,-7.547,-7.5489,-7.4469,-2.6548,0.0,-2.9667,-3.011,0.0,0.0,0.0,0.0,0.0,0.0,0.0,0.0,0.0,0.0,0.0,0.0,0.0,0.0,0.0,0.0,0.0,0.0,0.0,0.0,0.0,0.0,0.0,0.0,0.0,-6.3136,-6.3399,-6.4459,-6.4634,-6.3637,-6.5063,-6.5707,-6.5338,-6.6593,-6.6602,-6.544,-6.68,-6.6854,-6.5801,-6.6963,-6.7264,-6.6766,-6.5827,-6.4958,-6.4288,-6.567,-6.644,-6.7049,-6.9316,-7.0768,-7.1512,-7.1396,-7.1596,-7.1864,-7.1693,-7.1935,-7.2288,-7.2167,-7.1575,-7.1061,-7.1858,-7.2373,-7.2671,-7.2459,-7.2586,-7.2969,-7.3772,-7.3349,-7.2962,-7.3551,-7.3349,-7.2963,-7.2797,-7.3046,-7.3293,-7.3293,-7.3293,-7.3252,-7.3088,-7.3088,-7.3005,-7.2797,-7.2755,-7.2755,-7.2713,-7.2713,-7.2713,-7.2713,-7.2442,-7.2313,-7.2236,-7.3654,-7.4292,-7.3835,-7.3376,-7.3303,-7.3685,-7.2585,-7.2034,-7.2042,-7.1712,-7.272,-7.5106,-7.5538,-7.4934,-7.3421,-7.3413,-7.316,-2.5484,-2.6838,-2.8303,-2.8498,-2.8764,-2.8905,0.0,0.0,0.0,0.0,0.0,0.0,0.0,0.0,0.0,0.0,0.0,0.0,0.0,0.0,0.0,0.0,0.0,0.0,0.0,0.0,0.0,0.0,0.0,-6.303,-6.3084,-6.4521,-6.4764,-6.3671,-6.4703,-6.5386,-6.5615,-6.7044,-6.7267,-6.624,-6.7181,-6.7227,-6.6399,-6.7093,-6.7346,-6.7243,-6.5508,-6.5108,-6.5595,-6.529,-6.6034,-6.7455,-6.9079,-7.0216,-7.1026,-7.142,-7.1688,-7.1854,-7.1942,-7.1746,-7.155,-7.2013,-7.1429,-7.0648,-7.1572,-7.2072,-7.2331,-7.2202,-7.2288,-7.2657,-7.3973,-7.3413,-7.2819,-7.4042,-7.3583,-7.2797,-7.2586,-7.2713,-7.2846,-7.2846,-7.2804,-7.2804,-7.288,-7.288,-7.2838,-7.2713,-7.2552,-7.2432,-7.2398,-7.2578,-7.2605,-7.2373,-7.2279,-7.2236,-7.2253,-7.2914,-7.3189,-7.2992,-7.3098,-7.3113,-7.3058,-7.2146,-7.1903,-7.228,-7.2303,-7.3413,-7.5697,-7.5708,-7.4876,-7.3356,-7.2892,-7.3068,-2.5495,-2.6536,-2.7694,-2.7977,-2.8786,-2.9476,0.0,0.0,0.0,0.0,0.0,0.0,0.0,0.0,0.0,0.0,0.0,0.0,0.0,0.0,0.0,0.0,0.0,0.0,0.0,0.0,0.0,0.0,0.0,-6.2676,-6.2598,-6.4127,-6.4542,-6.36,-6.4099,-6.4862,-6.5899,-6.7191,-6.7718,-6.7496,-6.7696,-6.7622,-6.7456,-6.7325,-6.7304,-6.7325,0.0,0.0,-6.6627,-6.5046,-6.5714,-6.7877,-6.8494,-6.935,-7.0307,-7.1138,-7.1474,-7.1518,-7.1727,-7.1163,-7.0478,-7.1538,-7.11,-7.0304,-7.1151,-7.16,-7.181,-7.181,-7.1898,-7.238,-7.4144,-7.3447,-7.2717,-7.4516,-7.3748,-7.2578,-7.2468,-7.2313,-7.2322,-7.2425,-7.2322,-7.2262,-7.2586,-7.2628,-7.2628,-7.2621,-7.2382,-7.2185,-7.2116,-7.2356,-7.2416,-7.2072,-7.2081,-7.2167,-7.2313,-7.2215,-7.2117,-7.2112,-7.2696,-7.2819,-7.2313,-7.1786,-7.1903,-7.2678,-7.3299,-7.4309,-7.572,-7.5773,-7.5377,-7.4513,-7.3591,-7.3744,-2.554,-2.6472,-2.7516,-2.8584,-2.9666,-3.0316,0.0,0.0,0.0,0.0,0.0,0.0,0.0,0.0,0.0,0.0,0.0,0.0,0.0,0.0,0.0,0.0,0.0,0.0,0.0,0.0,0.0,0.0,0.0,-6.2737,-6.3134,-6.4146,-6.4396,-6.36,-6.3985,-6.4397,-6.4913,-6.6009,-6.6416,-6.6148,-6.7102,-6.6953,-6.5911,-6.6975,-6.7387,-6.7154,0.0,-6.5508,-6.6381,-6.4259,-6.4984,-6.7299,-6.7012,-6.8273,-7.0239,-7.0561,-7.0813,-7.102,-7.1063,-7.0293,-6.9538,-7.0971,-7.0153,-6.8875,-7.0251,-7.087,-7.1052,-7.1052,-7.1501,-7.219,-7.3132,-7.2722,-7.2277,-7.3254,-7.2731,-7.2243,-7.2815,-7.2473,-7.2243,-7.3077,-7.257,-7.2115,-7.2331,-7.2373,-7.2365,-7.2296,-7.2245,-7.2331,-7.2545,-7.2159,-7.1935,-7.2176,-7.1873,-7.2015,-7.2883,-7.2219,-7.2019,-7.2563,-7.2337,-7.2189,-7.2209,-7.2385,-7.2551,-7.2681,-7.366,-7.4659,-7.5697,-7.6131,-7.6302,-7.6142,-7.5536,-7.4895,-2.504,-2.624,-2.7731,-2.9066,-3.0596,-3.1755,0.0,0.0,0.0,0.0,0.0,0.0,0.0,0.0,0.0,0.0,0.0,0.0,0.0,0.0,0.0,0.0,0.0,0.0,0.0,0.0,0.0,0.0,0.0,0.0,-6.3152,-6.4439,-6.458,-6.3336,-6.3422,-6.3722,-6.4213,-6.4427,-6.5085,-6.6078,-6.713,-6.7221,-6.641,-6.7046,-6.7263,-6.7112,0.0,-6.5418,-6.6372,-6.4555,-6.4934,-6.6598,-6.6829,-6.7641,-6.8914,-6.9799,-7.0531,-7.1084,-7.0904,-7.0622,-7.0364,-7.0726,-6.9961,-6.9109,-7.0352,-7.0825,-7.0916,-7.1086,-7.1356,-7.1838,-7.2686,-7.2356,-7.2025,-7.3074,-7.2619,-7.2234,-7.3152,-7.2546,-7.2243,-7.3577,-7.3307,-7.2662,-7.2078,-7.1873,-7.1907,-7.238,-7.2053,-7.1761,-7.1907,-7.1786,-7.1664,-7.1688,-7.1644,-7.178,-7.2253,-7.2801,-7.2994,-7.272,-7.2131,-7.1791,-7.1698,-7.2122,-7.2467,-7.269,-7.3191,-7.3956,-7.4923,-7.5424,-7.5538,-7.5264,-7.5536,-7.5534,-2.4975,-2.6445,-2.826,0.0,0.0,0.0,0.0,0.0,0.0,0.0,0.0,0.0,0.0,0.0,0.0,0.0,0.0,0.0,0.0,0.0,0.0,0.0,0.0,0.0,0.0,0.0,0.0,0.0,0.0,0.0,-6.3235,-6.4444,-6.4517,-6.2958,-6.2885,-6.3149,-6.3707,-6.3383,-6.4146,-6.6,-6.65,-6.6787,-6.6792,-6.6625,-6.6761,-6.6862,-6.5587,-6.5547,-6.6235,-6.4967,-6.5042,-6.5999,-6.6531,-6.7252,-6.8041,-6.9083,-7.0176,-7.1084,-7.0377,-7.058,-7.1075,-7.0452,-6.9833,-6.9499,-7.0452,-7.0779,-7.087,-7.1131,-7.1267,-7.1492,-7.2214,-7.1953,-7.1804,-7.303,-7.2668,-7.2444,-7.3587,-7.2914,-7.2576,-7.4105,-7.3924,-7.3198,-7.2348,-7.1974,-7.1882,-7.2298,-7.1825,-7.1386,-7.1274,-7.141,-7.1501,-7.1367,-7.1457,-7.1614,-7.1862,-7.3266,-7.3889,-7.3423,-7.2594,-7.1927,-7.1542,-7.2097,-7.257,-7.2839,-7.2911,-7.3186,-7.3697,-7.4468,-7.4673,-7.4321,-7.5286,-7.5887,-2.5978,-2.753,-2.9157,-3.0195,0.0,0.0,0.0,0.0,0.0,0.0,0.0,0.0,0.0,0.0,0.0,0.0,0.0,0.0,0.0,0.0,0.0,0.0,0.0,0.0,0.0,0.0,0.0,0.0,0.0,0.0,-6.3718,-6.3854,-6.3548,-6.2727,-6.2537,-6.2792,-6.3503,-6.3497,-6.399,-6.4977,-6.4061,-6.4379,-6.5764,-6.5176,-6.533,-6.6182,-6.6287,-6.6192,-6.5801,-6.5206,-6.5134,-6.5448,-6.5545,-6.6938,-6.8866,-6.8543,-6.9435,-7.0586,-6.865,-6.9244,-7.0714,-6.9769,-6.934,-6.9256,-7.0023,-7.041,-7.0561,-7.087,-7.1131,-7.1345,-7.1379,-7.1345,-7.1571,-7.2507,-7.2553,-7.2836,-7.4558,-7.4068,-7.3671,-7.475,-7.417,-7.3535,-7.3697,-7.3345,-7.2711,-7.1548,-7.1548,-7.1566,-7.1352,-7.131,-7.1401,-7.1556,-7.1412,-7.1695,-7.2621,-7.3218,-7.4102,-7.5423,-7.4148,-7.3006,-7.2156,-7.303,-7.3538,-7.3351,-7.342,-7.2922,-7.1886,-7.3561,-7.4446,-7.4694,-7.5401,-7.6072,-2.5461,-2.6909,-2.862,-2.9371,0.0,0.0,0.0,0.0,0.0,0.0,0.0,0.0,0.0,0.0,0.0,0.0,0.0,0.0,0.0,0.0,0.0,0.0,0.0,0.0,0.0,0.0,0.0,0.0,0.0,0.0,-6.2582,-6.3226,-6.3204,-6.2268,-6.2189,-6.2441,-6.3067,-6.2623,-6.2798,-6.3593,-6.3643,-6.4033,-6.4647,-6.4681,-6.5167,-6.5955,-6.6172,-6.6086,-6.578,-6.5567,-6.5469,-6.5437,-6.5708,-6.6671,-6.7867,-6.7959,-6.8115,-6.8423,-6.8641,-6.911,-6.962,-6.9967,-7.0021,-7.0042,-7.0309,-7.0549,-7.0779,-7.087,-7.1098,-7.1312,-7.1312,-7.1312,-7.1526,-7.2462,-7.2576,-7.2892,-7.4798,-7.4348,-7.3999,-7.5417,-7.5033,-7.4506,-7.4382,-7.409,-7.332,-7.1558,-7.1379,-7.1537,-7.1702,-7.1446,-7.1401,-7.1556,-7.1819,-7.2326,-7.3151,-7.3815,-7.42,-7.4352,-7.2949,-7.2405,-7.2945,-7.3116,-7.3365,-7.3885,-7.3174,-7.2666,-7.2394,-7.3062,-7.3629,-7.4218,-7.5094,-7.5971,-2.5735,-2.7284,-2.9158,0.0,0.0,0.0,0.0,0.0,0.0,0.0,0.0,0.0,0.0,0.0,0.0,0.0,0.0,0.0,0.0,0.0,0.0,0.0,0.0,0.0,0.0,0.0,0.0,0.0,0.0,0.0,-6.2233,-6.2872,-6.2845,-6.183,-6.187,-6.2259,-6.3066,-6.2371,-6.233,-6.2941,-6.3208,-6.3439,-6.3637,-6.4042,-6.466,-6.5359,-6.5811,-6.5867,-6.5592,-6.5736,-6.5736,-6.5614,-6.579,-6.6433,-6.7244,-6.7339,-6.7257,-6.7206,-6.8439,-6.8908,-6.9069,-6.998,-7.044,-7.0608,-7.0608,-7.0779,-7.0916,-7.1007,-7.1131,-7.121,-7.1447,-7.1514,-7.1762,-7.2711,-7.2902,-7.327,-7.4941,-7.4702,-7.4517,-7.556,-7.5532,-7.5219,-7.4795,-7.4722,-7.4215,-7.2759,-7.1665,-7.1253,-7.1864,-7.147,-7.1334,-7.1672,-7.2496,-7.3181,-7.3688,-7.3945,-7.4161,-7.4187,-7.2507,-7.2033,-7.3186,-7.3413,-7.3788,-7.4446,-7.3413,-7.3027,-7.3354,-7.3164,-7.3459,-7.4252,-7.5037,-7.588,-2.7118,-2.8957,0.0,0.0,0.0,0.0,0.0,0.0,0.0,0.0,0.0,0.0,0.0,0.0,0.0,0.0,0.0,0.0,0.0,0.0,0.0,0.0,0.0,0.0,0.0,0.0,0.0,0.0,0.0,-6.2937,-6.3175,-6.2937,-6.2364,-6.1458,-6.1588,-6.2323,-6.3581,-6.3058,-6.2933,-6.3315,-6.2553,-6.2399,-6.2806,-6.3045,-6.3637,-6.4476,-6.5392,-6.5548,-6.5144,-6.5636,-6.5911,-6.6052,-6.557,-6.6124,-6.7089,-6.66,-6.6822,-6.7413,-6.7792,-6.8529,-6.9343,-6.9682,-7.031,-7.0916,-7.087,-7.087,-7.0961,-7.1222,-7.1131,-7.1118,-7.1812,-7.2014,-7.2275,-7.3295,-7.3676,-7.4079,-7.506,-7.5325,-7.5228,-7.5067,-7.5373,-7.5566,-7.5067,-7.5373,-7.558,-7.5258,-7.2544,-7.085,-7.1687,-7.1283,-7.1219,-7.1913,-7.3339,-7.4181,-7.4214,-7.3541,-7.3838,-7.5608,-7.3366,-7.2245,-7.2711,-7.4172,-7.4988,-7.4988,-7.4286,-7.4114,-7.4627,-7.3849,-7.4022,-7.5,-7.5276,-7.588,-2.7081,0.0,0.0,0.0,0.0,0.0,0.0,0.0,0.0,0.0,0.0,0.0,0.0,0.0,0.0,0.0,0.0,0.0,0.0,0.0,0.0,0.0,0.0,0.0,0.0,0.0,0.0,0.0,0.0,-6.2818,-6.2159,-6.1922,-6.1788,-6.1797,-6.175,-6.2219,-6.3306,-6.2616,-6.246,-6.2949,-6.2174,-6.1858,-6.1923,-6.2121,-6.2913,-6.4145,-6.4597,-6.495,-6.5099,-6.5234,-6.5425,-6.5614,-6.5647,-6.6001,-6.6397,-6.6078,-6.6401,-6.7155,-6.7735,-6.8481,-6.9249,-7.0013,-7.044,-7.0561,-7.0456,-7.0502,-7.0742,-7.1417,-7.1459,-7.1492,-7.1913,-7.2451,-7.3031,-7.381,-7.3903,-7.4079,-7.506,-7.5179,-7.5067,-7.5018,-7.5228,-7.5359,-7.5167,-7.5194,-7.5157,-7.5108,-7.3927,-7.2744,-7.1788,-7.1203,-7.1094,-7.1647,-7.2586,-7.3323,-7.386,-7.4228,-7.4411,-7.4359,-7.4176,-7.4099,-7.4077,-7.4262,-7.4499,-7.4721,-7.4484,-7.4437,-7.4627,-7.3849,-7.3929,-7.4721,-7.4966,-7.5651,-2.8338,0.0,0.0,0.0,0.0,0.0,0.0,0.0,0.0,0.0,0.0,0.0,0.0,0.0,0.0,0.0,0.0,0.0,0.0,0.0,0.0,0.0,0.0,0.0,0.0,0.0,0.0,0.0,-6.2226,-6.2211,-6.1621,-6.1383,-6.1383,-6.1628,-6.1506,-6.1914,-6.293,-6.2379,-6.2264,-6.2657,-6.2016,-6.1508,-6.1195,-6.1716,-6.255,-6.3584,-6.3747,-6.4137,-6.461,-6.4426,-6.4656,-6.5111,-6.5111,-6.5381,-6.579,-6.547,-6.5724,-6.6311,-6.7143,-6.7629,-6.8115,-6.9182,-6.9616,-6.9756,-6.979,-7.0236,-7.0911,-7.1473,-7.156,-7.1579,-7.2069,-7.2219,-7.2526,-7.339,-7.3945,-7.4451,-7.5064,-7.4914,-7.4716,-7.4835,-7.5045,-7.519,-7.5134,-7.5213,-7.5161,-7.4734,-7.3918,-7.2753,-7.1231,-7.1084,-7.1252,-7.188,-7.2615,-7.3317,-7.4085,-7.4286,-7.4335,-7.4299,-7.4335,-7.4481,-7.4734,-7.4604,-7.4604,-7.4781,-7.4877,-7.4843,-7.4843,-7.4546,-7.4687,-7.5349,-7.5395,-7.5912,0.0,0.0,0.0,0.0,0.0,0.0,0.0,0.0,0.0,0.0,0.0,0.0,0.0,0.0,0.0,0.0,0.0,0.0,0.0,0.0,0.0,0.0,0.0,0.0,0.0,0.0,0.0,-6.135,-6.145,-6.145,-6.1424,-6.121,-6.1119,-6.1127,-6.1161,-6.1509,-6.2241,-6.2173,-6.2131,-6.2199,-6.1844,-6.1367,-6.0807,-6.1655,-6.2306,-6.2771,-6.2952,-6.3311,-6.3782,-6.3404,-6.3817,-6.461,-6.4193,-6.461,-6.5291,-6.4839,-6.4905,-6.5297,-6.6151,-6.637,-6.6476,-6.7584,-6.8248,-6.8705,-6.9005,-6.9982,-7.1094,-7.1479,-7.1418,-7.1394,-7.2141,-7.1649,-7.1301,-7.23,-7.3736,-7.4805,-7.4919,-7.4616,-7.4381,-7.4652,-7.4926,-7.5037,-7.4951,-7.5381,-7.5299,-7.419,-7.2895,-7.1585,-7.0429,-7.0809,-7.1475,-7.2259,-7.2958,-7.3707,-7.4489,-7.389,-7.3856,-7.4886,-7.4005,-7.3938,-7.4886,-7.4968,-7.4968,-7.5018,-7.5179,-7.5325,-7.5325,-7.5614,-7.5947,-7.6402,-7.6216,-7.6449,0.0,0.0,0.0,0.0,0.0,0.0,0.0,0.0,0.0,0.0,0.0,0.0,0.0,0.0,0.0,0.0,0.0,0.0,0.0,0.0,0.0,0.0,0.0,0.0,0.0,0.0,0.0,-6.1417,-6.1916,-6.2099,-6.1662,-6.1293,-6.1252,-6.1547,-6.1424,-6.106,-6.0547,-6.1061,-6.0853,-5.9966,-6.0642,-6.1094,-6.1316,-6.0932,-6.1162,-6.1863,-6.3199,-6.3505,-6.3149,-6.3638,-6.3959,-6.4193,-6.4472,-6.4702,-6.4839,-6.4518,-6.4924,-6.5712,-6.5914,-6.6354,-6.6828,-6.7287,-6.7761,-6.8316,-6.9082,-6.9574,-7.0034,-7.1061,-7.118,-7.1069,-7.1427,-7.1649,-7.1735,-7.1615,-7.243,-7.3459,-7.452,-7.4837,-7.4854,-7.4935,-7.525,-7.5283,-7.4505,-7.5121,-7.4972,-7.2779,-7.2381,-7.1978,-7.0888,-7.0391,-7.0623,-7.1983,-7.2248,-7.2879,-7.4172,-7.4106,-7.4156,-7.4372,-7.4156,-7.4156,-7.4372,-7.4573,-7.487,-7.5228,-7.5277,-7.5422,-7.5614,-7.5662,-7.5757,-7.5899,-7.6028,-7.6169,0.0,0.0,0.0,0.0,0.0,0.0,0.0,0.0,0.0,0.0,0.0,0.0,0.0,0.0,0.0,0.0,0.0,0.0,0.0,0.0,0.0,0.0,0.0,0.0,0.0,0.0,-6.2315,-6.2324,-6.2441,-6.2349,-6.1949,-6.141,-6.1169,-6.1417,-6.1177,-6.0887,-6.0523,-6.0679,-6.0511,-5.999,-6.0299,-6.0684,-6.1185,-6.1075,-6.1227,-6.1548,-6.264,-6.2985,-6.2891,-6.3404,-6.3964,-6.446,-6.4197,-6.4668,-6.5332,-6.4463,-6.4547,-6.5106,-6.5223,-6.5325,-6.5651,-6.6398,-6.684,-6.7296,-6.8402,-6.9237,-6.9992,-7.0888,-7.1102,-7.1121,-7.1117,-7.1021,-7.0958,-7.1072,-7.2297,-7.3624,-7.4317,-7.4935,-7.527,-7.5048,-7.5,-7.4819,-7.4305,-7.4771,-7.4555,-7.2614,-7.2645,-7.2459,-7.1072,-7.056,-7.0759,-7.1885,-7.2018,-7.2581,-7.4038,-7.4221,-7.4221,-7.4221,-7.4221,-7.4221,-7.4221,-7.4322,-7.4523,-7.4738,-7.5033,-7.5262,-7.5373,-7.5614,-7.5852,-7.6088,-7.6122,-7.6309,0.0,0.0,0.0,0.0,0.0,0.0,0.0,0.0,0.0,0.0,0.0,0.0,0.0,0.0,0.0,0.0,0.0,0.0,0.0,0.0,0.0,0.0,0.0,0.0,0.0,0.0,-6.2722,-6.2832,-6.2713,-6.2414,-6.198,-6.1417,-6.1119,-6.1119,-6.0877,-6.0769,-6.0795,-6.0558,-6.0355,-6.0309,-6.013,-6.026,-6.0668,-6.1258,-6.1588,-6.1598,-6.2137,-6.2508,-6.2811,-6.3164,-6.3886,-6.4736,-6.3901,-6.4504,-6.5693,-6.4439,-6.4118,-6.424,-6.4384,-6.4244,-6.4233,-6.5636,-6.6046,-6.6355,-6.7735,-6.9042,-7.0092,-7.0581,-7.0873,-7.1021,-7.0759,-7.0262,-6.9931,-7.056,-7.2096,-7.3636,-7.4146,-7.5048,-7.5534,-7.4978,-7.45,-7.4121,-7.3856,-7.4304,-7.4154,-7.2712,-7.3042,-7.2909,-7.1304,-7.109,-7.1355,-7.2117,-7.2183,-7.2746,-7.4122,-7.4221,-7.4221,-7.4221,-7.4221,-7.4221,-7.4221,-7.4221,-7.4221,-7.4221,-7.4722,-7.5018,-7.5115,-7.5518,-7.5947,-7.6356,-7.6169,-7.6449,0.0,0.0,0.0,0.0,0.0,0.0,0.0,0.0,0.0,0.0,0.0,0.0,0.0,0.0,0.0,0.0,0.0,0.0,0.0,0.0,0.0,0.0,0.0,0.0,0.0,0.0,-6.26,-6.1155,-6.2359,-6.2534,-6.0957,-6.1027,-6.1119,-6.1119,-6.1077,-6.058,-5.9544,-6.0125,-5.9912,-5.8864,-5.9436,-5.9913,-6.0185,-6.0502,-6.1012,-6.1795,-6.2919,-6.3177,-6.2945,-6.337,-6.3787,-6.4121,-6.4013,-6.4076,-6.4247,-6.4061,-6.4043,-6.4038,-6.4071,-6.4024,-6.4283,-6.6095,-6.6436,-6.6453,-6.8291,-6.8994,-6.9255,-6.9787,-6.9964,-6.9964,-6.9964,-6.9864,-6.9831,-6.9931,-7.0177,-7.1198,-7.4012,-7.5185,-7.5437,-7.4497,-7.4237,-7.3775,-7.2498,-7.3559,-7.3874,-7.1787,-7.2678,-7.3076,-7.2,-7.1852,-7.215,-7.2879,-7.2945,-7.3276,-7.4155,-7.4221,-7.4221,-7.4221,-7.4221,-7.4221,-7.4221,-7.4221,-7.4221,-7.4221,-7.4722,-7.5213,-7.5614,-7.5662,-7.5757,-7.5805,-7.6028,-7.6169,0.0,0.0,0.0,0.0,0.0,0.0,0.0,0.0,0.0,0.0,0.0,0.0,0.0,0.0,0.0,0.0,0.0,0.0,0.0,0.0,0.0,0.0,0.0,0.0,0.0,0.0,-6.2286,-6.1969,-6.2382,-6.225,-6.1205,-6.1108,-6.1002,-6.0877,-6.0877,-6.0586,-5.9919,-6.0161,-5.9903,-5.9231,-5.9686,-6.0087,-6.0509,-6.0579,-6.0993,-6.169,-6.2737,-6.3127,-6.3114,-6.3735,-6.4233,-6.4509,-6.414,-6.4445,-6.4973,-6.4253,-6.3979,-6.3976,-6.4024,-6.4024,-6.4153,-6.4932,-6.5805,-6.6745,-6.8029,-6.878,-6.9238,-6.9655,-6.9798,-6.9798,-6.9798,-6.9798,-6.9798,-6.9798,-6.9798,-7.0372,-7.2558,-7.3997,-7.4738,-7.4289,-7.3858,-7.336,-7.2746,-7.2994,-7.3109,-7.2399,-7.2977,-7.3275,-7.2697,-7.2614,-7.2746,-7.3078,-7.3111,-7.3409,-7.4155,-7.4221,-7.4221,-7.4221,-7.4221,-7.4221,-7.4221,-7.4221,-7.4272,-7.4423,-7.4821,-7.5115,-7.5277,-7.5566,-7.5852,-7.6135,-7.6262,-7.6449,0.0,0.0,0.0,0.0,0.0,0.0,0.0,0.0,0.0,0.0,0.0,0.0,0.0,0.0,0.0,0.0,0.0,0.0,0.0,0.0,0.0,0.0,0.0,0.0,0.0,0.0,-6.1926,-6.2245,-6.2164,-6.1824,-6.1186,-6.1047,-6.0919,-6.0717,-6.0717,-6.0633,-6.0463,-6.0239,-5.9979,-5.9716,-5.9848,-6.014,-6.0526,-6.0482,-6.0735,-6.1262,-6.2215,-6.2834,-6.3275,-6.384,-6.437,-6.4893,-6.4524,-6.4958,-6.5683,-6.5008,-6.4365,-6.3817,-6.3944,-6.4024,-6.4041,-6.4222,-6.5368,-6.6793,-6.7718,-6.8583,-6.9271,-6.9688,-6.9798,-6.9798,-6.9798,-6.9798,-6.9831,-7.003,-6.9945,-7.0187,-7.1646,-7.3064,-7.4121,-7.4306,-7.379,-7.3276,-7.2912,-7.2662,-7.2628,-7.2829,-7.3127,-7.3359,-7.3111,-7.3276,-7.331,-7.3144,-7.3276,-7.3575,-7.4155,-7.4221,-7.4221,-7.4221,-7.4221,-7.4221,-7.4221,-7.4272,-7.4372,-7.4606,-7.4919,-7.5115,-7.5213,-7.5614,-7.6041,-7.6495,-7.6495,-7.6679,0.0,0.0,0.0,0.0,0.0,0.0,0.0,0.0,0.0,0.0,0.0,0.0,0.0,0.0,0.0,0.0,0.0,0.0,0.0,0.0,0.0,0.0,0.0,0.0,0.0,0.0,-6.1455,-6.0584,-6.1314,-6.1337,-6.025,-6.0538,-6.0717,-6.0717,-6.0717,-6.0717,-6.0675,-6.0325,-5.9979,-5.9716,-5.9464,-5.9496,-5.9737,-5.9484,-5.9781,-6.0489,-6.1472,-6.2366,-6.331,-6.3356,-6.3884,-6.4741,-6.5168,-6.5396,-6.552,-6.6419,-6.5271,-6.3307,-6.3785,-6.4024,-6.4121,-6.4721,-6.5513,-6.6355,-6.7604,-6.8469,-6.9091,-6.9655,-6.9798,-6.9798,-6.9798,-6.9798,-6.9964,-7.0693,-7.0306,-7.0362,-7.2304,-7.325,-7.3885,-7.4556,-7.4372,-7.3674,-7.2316,-7.2614,-7.2813,-7.215,-7.2647,-7.3111,-7.3111,-7.3707,-7.384,-7.3177,-7.3707,-7.4188,-7.4221,-7.4221,-7.4221,-7.4221,-7.4221,-7.4221,-7.4221,-7.4423,-7.4606,-7.4606,-7.5033,-7.5422,-7.5662,-7.5947,-7.6216,-7.6495,-7.6495,-7.6495,0.0,0.0,0.0,0.0,0.0,0.0,0.0,0.0,0.0,0.0,0.0,0.0,0.0,0.0,0.0,0.0,0.0,0.0,0.0,0.0,0.0,0.0,0.0,0.0,0.0,0.0,-6.0774,-5.9933,-6.0802,-6.0774,-5.9457,-6.0233,-6.0591,-6.0292,-6.042,-6.0506,-6.0506,-6.0335,-6.0109,-5.9716,-5.9903,-5.9728,-5.9274,-5.9464,-5.9625,-5.9717,-6.0198,-6.1213,-6.2511,-6.2872,-6.3641,-6.4612,-6.4835,-6.514,-6.5328,-6.4722,-6.4159,-6.3738,-6.3944,-6.4026,-6.4061,-6.43,-6.4545,-6.4997,-6.6255,-6.7749,-6.9121,-6.9637,-6.9798,-6.9846,-6.9988,-6.9941,-6.9997,-7.094,-7.1316,-7.1808,-7.2989,-7.3258,-7.3575,-7.4473,-7.404,-7.3177,-7.2183,-7.2216,-7.2316,-7.2051,-7.2647,-7.3111,-7.3111,-7.374,-7.3906,-7.3177,-7.374,-7.4221,-7.4221,-7.4221,-7.4221,-7.4221,-7.4221,-7.4221,-7.4221,-7.4423,-7.4606,-7.4606,-7.5033,-7.5373,-7.547,-7.5709,-7.5947,-7.6262,-7.6262,-7.6356,0.0,0.0,0.0,0.0,0.0,0.0,0.0,0.0,0.0,0.0,0.0,0.0,0.0,0.0,0.0,0.0,0.0,0.0,0.0,0.0,0.0,0.0,0.0,0.0,0.0,0.0,-6.0351,-5.9816,-6.037,0.0,-5.9296,-5.9834,-5.9919,-5.9392,-5.9834,-5.9932,-5.9804,-6.0151,-6.0109,-5.9716,-5.9903,-5.9728,-5.9274,-5.9464,-5.9508,-5.9452,-5.9855,-6.078,-6.1984,-6.2469,-6.3367,-6.4504,-6.5077,-6.5173,-6.4908,-6.4464,-6.411,-6.3914,-6.433,-6.4253,-6.4014,-6.4367,-6.4272,-6.4159,-6.4995,-6.7049,-6.9232,-6.9684,-6.9798,-6.9846,-7.0035,-7.0353,-7.0837,-7.1597,-7.2492,-7.3274,-7.3772,-7.3591,-7.3542,-7.4423,-7.4007,-7.3243,-7.2515,-7.2382,-7.2382,-7.2382,-7.2813,-7.3111,-7.3111,-7.374,-7.3906,-7.3177,-7.374,-7.4221,-7.4221,-7.4221,-7.4221,-7.4221,-7.4221,-7.4221,-7.4322,-7.4573,-7.4771,-7.4821,-7.5228,-7.5422,-7.5422,-7.5709,-7.5947,-7.6216,-7.6216,-7.6399,0.0,0.0,0.0,0.0,0.0,0.0,0.0,0.0,0.0,0.0,0.0,0.0,0.0,0.0,0.0,0.0,0.0,0.0,0.0,0.0,0.0,0.0,0.0,0.0,0.0,-6.0378,-6.0292,-6.0044,-6.0076,-5.9914,-5.9619,-5.9188,-5.8632,-5.7916,-5.8778,-5.9043,-5.8605,-5.9621,-5.9979,-5.9716,-5.9419,-5.9464,-5.9673,-5.9419,-5.9464,-5.9705,-6.0494,-6.1174,-6.1821,-6.2093,-6.303,-6.4417,-6.5849,-6.5461,-6.4233,-6.5834,-6.5173,-6.3692,-6.4926,-6.4751,-6.4143,-6.5078,-6.4835,-6.4159,-6.4031,-6.6467,-6.9379,-6.9717,-6.9798,-6.9798,-6.9798,-7.1051,-7.2423,-7.2638,-7.3656,-7.4589,-7.4654,-7.4204,-7.3889,-7.4473,-7.4372,-7.3939,-7.3243,-7.3144,-7.3144,-7.3111,-7.3144,-7.3144,-7.3111,-7.374,-7.3906,-7.3177,-7.374,-7.4221,-7.4221,-7.4221,-7.4221,-7.4221,-7.4221,-7.4322,-7.4606,-7.487,-7.5115,-7.5325,-7.5566,-7.5709,-7.5709,-7.5947,-7.6216,-7.6495,-7.6529,-7.6799,-3.6607,0.0,0.0,0.0,0.0,0.0,0.0,0.0,0.0,0.0,0.0,0.0,0.0,0.0,0.0,0.0,0.0,0.0,0.0,0.0,0.0,0.0,0.0,0.0,0.0,-6.0083,-5.9952,0.0,-5.9212,-5.8965,-5.7669,-5.7845,-5.7816,-5.7419,-5.827,-5.8744,-5.8648,-5.9621,-5.9979,-5.9716,-5.9848,-5.9673,-5.9229,-5.9496,-5.9516,-5.9377,-6.0534,-6.1575,-6.2391,-6.2428,-6.3056,-6.4103,-6.4255,-6.4641,-6.4988,-6.4753,-6.4334,-6.3929,-6.4265,-6.422,-6.4159,-6.5109,-6.6678,-6.7685,-6.4835,-6.6644,-6.9684,-6.9765,-6.9798,-6.9798,-6.9798,-7.0685,-7.1694,-7.2114,-7.2845,-7.3592,-7.3988,-7.4056,-7.4173,-7.4489,-7.4372,-7.3939,-7.3243,-7.3541,-7.3707,-7.3177,-7.3541,-7.3674,-7.3177,-7.374,-7.3906,-7.3177,-7.374,-7.4221,-7.4221,-7.4221,-7.4272,-7.4473,-7.4473,-7.4622,-7.487,-7.5115,-7.5228,-7.5325,-7.5566,-7.5709,-7.5709,-7.5757,-7.5947,-7.6216,-7.6948,-7.7644,-3.8465,0.0,0.0,0.0,0.0,0.0,-4.0226,-4.2303,-4.4257,0.0,0.0,0.0,0.0,0.0,0.0,0.0,0.0,0.0,0.0,0.0,0.0,0.0,0.0,0.0,0.0,-5.9063,-5.8965,-5.8032,-5.8358,-5.7972,-5.6626,-5.6731,-5.6659,-5.621,-5.7302,-5.7936,-5.8066,-5.9198,-5.976,-5.9716,-5.9848,-5.9705,-5.9325,-5.9863,-5.9851,-5.9486,-6.078,-6.1834,-6.2612,-6.2514,-6.311,-6.4009,-6.4224,-6.4739,-6.5331,-6.4818,-6.4559,-6.4586,-6.4586,-6.4347,-6.4157,-6.5061,-6.7408,-6.9379,-6.7083,-6.7991,-6.9813,-6.9798,-6.9798,-6.9798,-6.9798,-7.0552,-7.1361,-7.147,-7.2215,-7.2845,-7.3027,-7.3076,-7.3243,-7.3724,-7.4023,-7.384,-7.2813,-7.3243,-7.3475,-7.2746,-7.3011,-7.3111,-7.2713,-7.3011,-7.3111,-7.268,-7.331,-7.374,-7.374,-7.4106,-7.4423,-7.4606,-7.4672,-7.487,-7.5115,-7.5228,-7.5373,-7.547,-7.5614,-7.5709,-7.5709,-7.5805,-7.6041,-7.6368,-7.6939,-7.7601,-4.0601,-4.0106,-4.0125,-4.0262,-4.0551,0.0,-4.1648,-4.2264,-4.2959,0.0,0.0,0.0,0.0,0.0,0.0,0.0,0.0,0.0,0.0,0.0,0.0,0.0,0.0,0.0,-5.732,-5.7609,-5.7683,-5.7492,-5.7385,-5.6935,-5.6111,-5.5794,-5.5378,-5.4771,-5.6157,-5.6947,-5.712,-5.8578,-5.9375,-5.9628,-5.9628,-5.9649,-5.9677,-6.0437,-6.0502,-6.0089,-6.1355,-6.2204,-6.275,-6.2561,-6.311,-6.4074,-6.4868,-6.5384,-6.5658,-6.5545,-6.5381,-6.5248,-6.5361,-6.4796,-6.4123,-6.5029,-6.7166,-6.9427,-6.9658,-6.9655,-6.9666,-6.9765,-6.9798,-6.9798,-6.9798,-7.0453,-7.1047,-7.0858,-7.1534,-7.2129,-7.1935,-7.1738,-7.1804,-7.2347,-7.3241,-7.3508,-7.2216,-7.2548,-7.278,-7.2117,-7.2018,-7.2018,-7.2018,-7.2018,-7.2018,-7.2018,-7.2581,-7.3011,-7.3111,-7.3957,-7.4506,-7.4622,-7.487,-7.5164,-7.5325,-7.5373,-7.5518,-7.5757,-7.5805,-7.5805,-7.5805,-7.6028,-7.6368,-7.6782,-7.6702,-7.7193,-4.3321,-4.3101,-4.3334,-4.2442,-4.2718,0.0,-4.256,-4.3335,-4.4078,0.0,0.0,0.0,0.0,0.0,0.0,0.0,0.0,0.0,0.0,0.0,0.0,0.0,0.0,0.0,-5.5583,-5.6487,-5.698,-5.6737,-5.6021,-5.5426,-5.5121,-5.5005,-5.4857,-5.4497,-5.6039,-5.6817,-5.6643,-5.8268,-5.9062,-5.9139,-5.9286,-5.9407,-5.9395,-6.0295,-6.1219,-6.2022,-6.2328,-6.2931,-6.3667,-6.2916,-6.3159,-6.4028,-6.3885,-6.5432,-6.7523,-6.637,-6.5237,-6.4399,-6.5155,-6.4799,-6.4106,-6.485,-6.5801,-6.6995,-6.884,-6.9002,-6.8767,-6.9585,-6.9798,-6.9798,-6.9798,-6.9802,-6.9889,-7.0468,-7.0748,-7.0963,-7.1308,-7.1639,-7.1738,-7.1079,-7.1573,-7.2068,-7.2002,-7.2117,-7.2183,-7.2018,-7.2018,-7.2018,-7.2018,-7.2018,-7.2018,-7.2018,-7.2117,-7.2448,-7.3045,-7.3492,-7.4038,-7.4886,-7.5082,-7.5373,-7.5614,-7.5805,-7.5981,-7.6028,-7.6262,-7.6356,-7.6356,-7.6402,-7.6495,-7.6587,-7.756,-7.8121,-4.5269,-4.4774,-4.4718,-4.4075,-4.4269,0.0,0.0,-4.3956,-4.4404,0.0,0.0,0.0,0.0,0.0,0.0,0.0,0.0,0.0,0.0,0.0,0.0,0.0,0.0,0.0,-5.3059,-5.4016,-5.4909,-5.5587,-5.5098,-5.4707,-5.4613,-5.4486,-5.4401,-5.4242,-5.5736,-5.6511,-5.6511,-5.8045,-5.8914,-5.9113,-5.9139,-5.9139,-5.9178,-6.0366,-6.127,-6.1886,-6.222,-6.2608,-6.3024,-6.2426,-6.2636,-6.3453,-6.3661,-6.5126,-6.694,-6.5384,-6.4996,-6.5157,-6.4673,-6.438,-6.4276,-6.446,-6.5136,-6.6119,-6.7257,-6.8265,-6.9112,-6.9475,-6.9574,-6.9526,-6.943,-6.9285,-6.9287,-6.9648,-6.9845,-6.9992,-7.0256,-7.0404,-7.0419,-7.0235,-7.0239,-7.0453,-7.0843,-7.1223,-7.1322,-7.0958,-7.0891,-7.0891,-7.0891,-7.1223,-7.1455,-7.1455,-7.2264,-7.2911,-7.3276,-7.3954,-7.4616,-7.5131,-7.5373,-7.5566,-7.5709,-7.5805,-7.5899,-7.5899,-7.6041,-7.6088,-7.6088,-7.6088,-7.6262,-7.6495,-7.724,-7.7583,-4.7114,-4.6321,-4.6062,-4.5819,-4.5864,-4.5866,0.0,0.0,0.0,0.0,0.0,0.0,0.0,0.0,0.0,0.0,0.0,0.0,0.0,0.0,0.0,0.0,0.0,0.0,-5.0182,-5.1135,-5.2394,-5.3869,-5.3681,-5.3587,-5.383,-5.3776,-5.3816,-5.3942,-5.5172,-5.5923,-5.6069,-5.7462,-5.8328,-5.8651,-5.8837,-5.8887,-5.891,-6.0416,-6.1096,-6.1179,-6.1912,-6.2248,-6.2367,-6.1917,-6.2204,-6.2955,-6.3484,-6.4593,-6.5689,-6.4207,-6.4836,-6.6176,-6.4448,-6.4171,-6.4533,-6.4197,-6.4955,-6.6086,-6.6119,-6.7776,-6.9607,-6.9382,-6.9252,-6.9204,-6.9042,-6.8994,-6.8994,-6.8945,-6.914,-6.9285,-6.9237,-6.9091,-6.914,-6.9559,-6.9334,-6.9237,-6.9703,-7.0295,-7.0494,-6.9898,-6.9798,-6.9846,-6.9893,-7.0424,-7.0789,-7.0837,-7.206,-7.3038,-7.3338,-7.4262,-7.5022,-7.5291,-7.5566,-7.5709,-7.5709,-7.5757,-7.5805,-7.5852,-7.5852,-7.5852,-7.5805,-7.5805,-7.5994,-7.6356,-7.6507,-7.6553,-4.9426,-4.8984,-4.8977,-4.8576,-4.8459,-4.8149,-4.6961,0.0,-4.5654,-4.4717,0.0,0.0,0.0,0.0,0.0,0.0,0.0,0.0,0.0,0.0,0.0,0.0,0.0,-4.6234,-4.7403,-4.8639,-4.9884,-5.1105,-5.0592,-5.0659,-5.1706,-5.2278,-5.2871,-5.3434,-5.4215,-5.4621,-5.4666,-5.5979,-5.6667,-5.6822,-5.7866,-5.8367,-5.8321,-6.0213,-6.1224,-6.1501,-6.2149,-6.2824,-6.3355,-6.238,-6.2333,-6.2888,-6.268,-6.3594,-6.4978,-6.4478,-6.5093,-6.5999,-6.4949,-6.4739,-6.4848,-6.4388,-6.5419,-6.6799,-6.6799,-6.7895,-6.9091,-6.9042,-6.9042,-6.9042,-6.8994,-6.8994,-6.8945,-6.8699,-6.8847,-6.8994,-6.8748,-6.8847,-6.8994,-6.9091,-6.9237,-6.943,-6.9751,-6.9864,-6.9898,-6.9798,-6.9798,-6.9893,-7.0129,-7.0229,-7.0356,-7.051,-7.069,-7.1372,-7.2677,-7.3117,-7.3945,-7.5224,-7.5566,-7.5709,-7.5709,-7.5899,-7.6169,-7.6402,-7.6402,-7.6309,-7.6075,-7.6041,-7.5994,-7.5805,-7.5805,-7.5947,-5.0291,-5.0321,-5.0532,-4.8729,-4.8745,-4.8671,-4.6919,-4.5843,-4.5372,-4.5636,0.0,0.0,0.0,0.0,0.0,0.0,-4.2132,0.0,0.0,0.0,0.0,0.0,0.0,0.0,-4.5934,-4.6841,-4.7805,-4.892,-4.85,-4.8625,-4.9603,-5.0782,-5.1735,-5.2474,-5.3726,-5.4162,-5.3703,-5.5532,-5.6652,-5.6964,-5.7558,-5.7918,-5.8011,-5.9144,-5.9854,-6.0262,-6.1376,-6.2141,-6.254,-6.2315,-6.2473,-6.2808,-6.2319,-6.3299,-6.4801,-6.3834,-6.4319,-6.5287,-6.4192,-6.4111,-6.438,-6.4182,-6.5295,-6.6674,-6.6674,-6.7783,-6.8945,-6.8797,-6.8748,-6.8748,-6.86,-6.8649,-6.8699,-6.8451,-6.8699,-6.8945,-6.8649,-6.8699,-6.8797,-6.8945,-6.9091,-6.9237,-6.9526,-6.9703,-6.9798,-6.9798,-6.9798,-6.9893,-7.0176,-7.0576,-7.107,-7.1707,-7.2297,-7.2929,-7.3533,-7.4337,-7.4864,-7.4877,-7.5019,-7.5067,-7.5067,-7.5161,-7.5459,-7.6041,-7.6041,-7.5994,-7.5852,-7.5566,-7.5373,-7.5277,-7.5566,-7.5614,-5.164,-5.178,-5.1786,-4.9342,-4.928,-4.9232,-4.7118,-4.6156,-4.59,-4.6403,-4.5273,0.0,0.0,0.0,-4.2713,0.0,0.0,-4.0592,0.0,0.0,0.0,0.0,0.0,0.0,0.0,-4.4343,-4.5148,-4.6594,-4.603,-4.6011,-4.6852,-4.8584,-5.0082,-5.1164,-5.2922,-5.3571,-5.316,-5.4838,-5.6015,-5.6747,-5.701,-5.7322,-5.7606,-5.8213,-5.8842,-5.957,-6.0914,-6.1692,-6.1979,-6.239,-6.2562,-6.2562,-6.2166,-6.2956,-6.4188,-6.316,-6.3693,-6.4771,-6.3822,-6.3854,-6.425,-6.4103,-6.5071,-6.6222,-6.6418,-6.7459,-6.8487,-6.8485,-6.8501,-6.8451,-6.8251,-6.8451,-6.8649,-6.8351,-6.8649,-6.8945,-6.8748,-6.8649,-6.8649,-6.8847,-6.8994,-6.914,-6.9237,-6.9574,-6.9798,-6.9798,-6.9798,-6.9893,-7.0176,-7.069,-7.1432,-7.2418,-7.3225,-7.3871,-7.4276,-7.5148,-7.5391,-7.4661,-7.458,-7.4533,-7.4499,-7.4533,-7.4823,-7.5518,-7.5566,-7.5614,-7.5614,-7.5033,-7.4787,-7.487,-7.5082,-7.5082,-5.4089,-5.3819,-5.3104,-5.1232,-5.0903,-5.0437,-4.8254,-4.8159,-4.8037,-4.6149,-4.6071,-4.6102,-4.5022,-4.3863,-4.2793,-4.1812,-4.1124,0.0,0.0,0.0,0.0,0.0,0.0,0.0,0.0,-4.062,-4.1528,-4.3761,-4.266,-4.2248,-4.2998,-4.5347,-4.7602,-4.9716,-5.1395,-5.2489,-5.299,-5.3364,-5.4175,-5.5381,-5.5944,-5.6572,-5.7163,-5.7876,-5.8882,-6.0072,-6.1248,-6.1994,-6.24,-6.2678,-6.2513,-6.2016,-6.2016,-6.2365,-6.2839,-6.2808,-6.3595,-6.4674,-6.4318,-6.4529,-6.4866,-6.4467,-6.4821,-6.5571,-6.6287,-6.6858,-6.7409,-6.8007,-6.8201,-6.8201,-6.8201,-6.86,-6.8896,-6.8649,-6.8797,-6.8994,-6.8994,-6.8797,-6.86,-6.86,-6.9042,-6.9285,-6.9042,-6.943,-6.9798,-6.9798,-6.9798,-6.9893,-7.0176,-7.0363,-7.0943,-7.1913,-7.2291,-7.3037,-7.4445,-7.4627,-7.4627,-7.4627,-7.4391,-7.4296,-7.4214,-7.4296,-7.4522,-7.5018,-7.5179,-7.5325,-7.5325,-7.4506,-7.4256,-7.4539,-7.407,-7.4153,-5.447,-5.487,-5.489,-5.204,-5.1461,-5.1031,-4.8692,-4.847,-4.8288,-4.6642,-4.7043,-4.7223,-4.5459,-4.4631,-4.3778,-4.2413,-4.0895,-3.9564,0.0,0.0,0.0,0.0,0.0,0.0,0.0,0.0,0.0,-4.0487,-3.9831,-4.0059,-4.165,-4.3614,-4.6296,-4.9747,-5.0305,-5.1046,-5.2122,-5.2835,-5.358,-5.4453,-5.5122,-5.5883,-5.6844,-5.6977,-5.8107,-6.0023,-6.0243,-6.1145,-6.2414,-6.2315,-6.2266,-6.2266,-6.2066,-6.2315,-6.2808,-6.2808,-6.3308,-6.3918,-6.3677,-6.3742,-6.4045,-6.3914,-6.4445,-6.5253,-6.6015,-6.6712,-6.7327,-6.8007,-6.8201,-6.8201,-6.8201,-6.8451,-6.8649,-6.8401,-6.855,-6.8699,-6.8501,-6.855,-6.855,-6.8351,-6.8896,-6.9285,-6.9042,-6.943,-6.9798,-6.9798,-6.9798,-6.9893,-7.0176,-7.041,-7.0909,-7.1879,-7.2257,-7.28,-7.3781,-7.4322,-7.439,-7.3883,-7.3649,-7.3413,-7.3237,-7.3237,-7.3889,-7.5146,-7.5277,-7.5373,-7.5566,-7.4984,-7.4639,-7.4456,-7.4019,-7.3764,-5.4988,-5.5471,-5.5551,-5.2702,-5.218,-5.1778,-4.9378,-4.9243,-4.9233,-4.7844,-4.7989,-4.8038,-4.689,-4.5751,-4.4509,-4.3048,-4.1362,-3.9774,0.0,-3.7056,0.0,0.0,0.0,0.0,0.0,-3.7812,-3.8011,-3.7791,-3.7833,-3.8455,0.0,-4.2,-4.4761,-4.8177,-4.9284,-5.0426,-5.189,-5.245,-5.3192,-5.4195,-5.448,-5.5287,-5.6524,-5.6323,-5.7371,-5.9381,-5.9728,-6.0738,-6.2116,-6.2166,-6.2216,-6.2216,-6.2066,-6.2266,-6.271,-6.2759,-6.3162,-6.3645,-6.3195,-6.334,-6.3693,-6.3629,-6.3997,-6.469,-6.5756,-6.642,-6.7003,-6.7942,-6.8201,-6.8201,-6.8201,-6.8401,-6.855,-6.8401,-6.8451,-6.86,-6.8501,-6.855,-6.855,-6.8401,-6.8896,-6.9285,-6.9042,-6.943,-6.9798,-6.9798,-6.9798,-6.9846,-7.0035,-7.027,-7.077,-7.1787,-7.2119,-7.2708,-7.3815,-7.4262,-7.4148,-7.3405,-7.2774,-7.2505,-7.2582,-7.2582,-7.3332,-7.4852,-7.5252,-7.5399,-7.5325,-7.4821,-7.4473,-7.4206,-7.3449,-7.3037]}]]